     2              OBSERVATION DATA    GPS                 RINEX VERSION / TYPE
teqc 2002Apr3 20070406 16:16:51UTC                          PGM / RUN BY / DATE
                                                            COMMENT
L2: 1 -> 1; 150 -> 5; 250 -> 9                              COMMENT
L2: 1 -> 1; 150 -> 5; 250 -> 9                              COMMENT
L2: 1 -> 1; 150 -> 5; 250 -> 9                              COMMENT
L2: 1 -> 1; 150 -> 5; 250 -> 9                              COMMENT
L2: 1 -> 1; 150 -> 5; 250 -> 9                              COMMENT
Original Marker Name: MH32                                  COMMENT
Campaign Name: Painted Canyon Array                         COMMENT
4-Character Station Name: MH32                              COMMENT
6-Character Antenna Code: DMRCHT                            COMMENT
Vertical Measurement Point: BCR                             COMMENT
Vertical Offset to Rinex Ref. Point: 0.0348                 COMMENT
Radial Measurement Point: ECF                               COMMENT
Radial Offset to Rinex Ref. Point: 0.1897                   COMMENT
Antenna Height from Field Measurement: 0.9770 m             COMMENT
Additional Antenna Identification Info.:                    COMMENT
Turborogue and Ashtech Choke Ring                           COMMENT
Original XYZ: 0.0000 0.0000 0.0000                          COMMENT
New XYZ position is based on association with SCEC monument COMMENT
E1D0K9Y5+0321. Position of that monument is believed to be  COMMENT
valid to within 1 m horizontally; vertical accuracy         COMMENT
should be no worse than 3-times this value.                 COMMENT
                                                            COMMENT
Revised Rinex header created by UCSD GPS archive for        COMMENT
GSAC on 09-Jun-2007 (2007:160) 17:14:59 GMT                 COMMENT
For assistance contact dagnew@ucsd.edu                      COMMENT
or anderson@python.ucsd.edu                                 COMMENT
                                                            COMMENT
MH32                                                        MARKER NAME
-Unknown- SCRIPPS INSTITUTION OF OCEANOGRAPHY               OBSERVER / AGENCY
319 ASHTECH Z-XII3 CC00                                     REC # / TYPE / VERS
409 DORNE-MARGOL. TYPE T                                    ANT # / TYPE
 -2332808.0000 -4778510.0000  3510278.0000                  APPROX POSITION XYZ
        0.9236        0.0000        0.0000                  ANTENNA: DELTA H/E/N
     1     1     0                                          WAVELENGTH FACT L1/2
     7    C1    L1    L2    P1    P2    S1    S2            # / TYPES OF OBSERV
    30                                                      INTERVAL
  2007     2    18     1     3   40.000000                  TIME OF FIRST OBS
  2007     2    18     2    16   10.000000                  TIME OF LAST OBS
                                                            END OF HEADER
 07  2 18  1  3 40.0000000  0  1G 1
                    -11376.81619    956330.748 1
       233.000
 07  2 18  1  3 45.0000000  0  6G 1G14G22G19G18G 3
                    -22477.22949     -9262.24043
       232.0004         74.0004
                      1919.17119    697006.301 1
       237.000
                      5977.99019    404623.221 1
       245.000
                      5264.89519    975482.740 1
       230.000
                     14501.88019   1592619.694 1
       225.000
                     15603.69719   1715741.883 1
       222.000
 07  2 18  1  3 50.0000000  0  6G 1G14G22G19G18G 3
                    -33579.30649    -17869.85043
       233.0004         74.0004
                      3532.83549      1102.05143
       236.0004         74.0004
                     10744.36049      3212.47944                  19067616.4744
       244.0004        113.0004
                      9091.89649      2577.63544                  20485549.2304
       229.0004         98.0004
                     24902.30849      6994.66143                  20904924.5824
       225.0004         78.0004
                     27854.74849      8239.92643
       221.0004         74.0004
 07  2 18  1  3 55.0000000  0  7G 1G14G22G19G18G 3G31
                    -44671.62149    -26473.74843
       233.0004         74.0004
                      5159.05649      2457.43043
       238.0004         74.0004
                     15514.79949      6929.74946                  19068525.1604
       245.0004        171.0004
                     12933.06049      5570.67845                  20486277.9744
       231.0004        150.0004
                     35305.60849     15101.02045                  20906902.4484
       226.0004        133.0004
                     40112.17049     17791.17843
       221.0004         74.0004
                     -3685.304 9     65808.484 1
       216.000
 07  2 18  1  4  0.0000000  0  7G 1G14G22G19G18G 3G31
                    -55757.77349    -35072.40143
       233.0004         74.0004
                      6794.24949      3820.18943
       239.0004         74.0004
                     20285.75749     10647.37746                  19069432.8424
       245.0004        184.0004
                     16784.78349      8572.02746                  20487011.0074
       230.0004        163.0004
                     45708.19349     23206.94445                  20908881.7694
       225.0004        147.0004
                     52372.40049     27344.60543
       220.0004         74.0004
                    -19981.50549     -5804.80443
       216.0004         74.0004
 07  2 18  1  4  5.0000000  0  7G 1G14G22G19G18G 3G31
                    -66827.21149    -43657.44543
       231.0004         74.0004
                      8448.94249      5200.40443
       236.0004         74.0004
                     25067.71049     14373.57247                  19070342.6354
       244.0004        191.0004
                     20657.55649     11589.76246                  20487747.9854
       229.0004        170.0004
                     56120.54849     31320.46345                  20910863.8424
       224.0004        154.0004
                     64645.92649     36908.39543
       219.0004         74.0004
                    -36269.37749    -18496.57243
       215.0004         74.0004
 07  2 18  1  4 10.0000000  0  7G 1G14G22G19G18G 3G31
                    -77887.44849    -52234.49343
       233.0004         74.0004
                     10115.65249      6592.59543
       237.0004         74.0004
                     29853.18149     18102.50947                  19071253.3794
       245.0004        195.0004
                     24543.88349     14618.07146                  20488487.4864
       230.0004        175.0004
                     66535.18549     39435.76745                  20912845.2984
       224.0004        158.0004
                     76925.25449     46476.43643
       219.0004         74.0004
                    -52556.32449    -31187.69643
       216.0004         74.0004
 07  2 18  1  4 15.0000000  0  7G 1G14G22G19G18G 3G31
                    -88935.74149    -60801.97743
       231.0004         74.0004
                     11797.09749      7998.42743
       237.0004         74.0004
  19072163.7124      34644.89249     21836.30947  19072163.5264   19072165.3554
       244.0004        198.0004
  20489227.5804      28446.47149     17659.03746  20489226.8634   20489230.3624
       229.0004        178.0004
  20914825.3024      76954.88449     47555.00345  20914825.0084   20914829.0674
       224.0004        161.0004
                     89213.10049     56051.40444                  21218301.7194
       218.0004        114.0004
                    -68839.51849    -43875.89743
       215.0004         74.0004
 07  2 18  1  4 20.0000000  0  8G 1G14G22G19G18G 3G31G 9
                    -99972.42749    -69360.06043
       232.0004         74.0004
                     13492.92249      9416.76943
       237.0004         74.0004
  19073076.3394      39442.50449     25574.70347  19073076.5444   19073078.3174
       243.0004        200.0004
  20489972.7794      32364.97849     20712.41146  20489972.1174   20489975.6484
       229.0004        180.0004
  20916808.9534      87379.27549     55677.90446  20916808.4054   20916812.4994
       223.0004        164.0004
                    101509.20649     65632.78645                  21220641.4264
       219.0004        137.0004
                    -85119.27749    -56561.43543
       216.0004         74.0004
                     16465.90419   1890382.363 1
       210.000
 07  2 18  1  4 25.0000000  0  8G 1G14G22G19G18G 3G31G 9
                   -110995.10249    -77906.58343
       234.0004         74.0004
                     15205.50949     10852.51243
       237.0004         74.0004
  19073991.1844      44248.40649     29319.56147  19073990.7014   19073992.6694
       245.0004        202.0004
  20490722.3594      36301.79049     23780.05746  20490721.0594   20490724.5734
       231.0004        181.0004
  20918795.4274      97810.77949     63806.34046  20918792.9714   20918797.1094
       226.0004        165.0004
                    113815.88549     75222.39845                  21222983.2924
       220.0004        146.0004
                   -101393.21349    -69242.41443
       215.0004         74.0004
                     30001.16549      6943.58543
       211.0004         74.0004
 07  2 18  1  4 30.0000000  0  8G 1G14G22G19G18G 3G31G 9
                   -122007.71149    -86444.53643
       234.0004         74.0004
                     16930.94649     12300.52343
       238.0004         74.0004
  19074906.6934      49058.68649     33067.83047  19074906.2674   19074908.4454
       246.0004        203.0004
  20491473.6134      40253.02649     26858.94246  20491473.2384   20491476.6204
       230.0004        182.0004
  20920779.2574     108245.42949     71937.23946  20920778.7364   20920782.4254
       224.0004        166.0004
                    126129.18049     84817.16945                  21225325.9784
       221.0004        151.0004
                   -117665.23249    -81921.89843
       217.0004         74.0004
                     43549.80849     17500.96443
       204.0004         74.0004
 07  2 18  1  4 35.0000000  0  8G 1G14G22G19G18G 3G31G 9
                   -132994.97049    -94962.75843
       233.0004         74.0004
                     18666.65849     13757.21043
       236.0004         74.0004
  21174368.8384      53866.46349     36814.15647  21174368.2004   21174370.1754
       244.0004        204.0004
  22590774.9254      44212.97049     29944.60746  22590773.7034   22590777.4454
       229.0004        183.0004
  23021310.2934     118668.48849     80059.10946  23021309.9094   23021313.0364
       223.0004        166.0004
                    138431.77349     94403.60445                  23326214.3054
       219.0004        155.0004
                   -133912.63949    -94582.20643
       216.0004         74.0004
                     57092.72249     28053.88643
       207.0004         74.0004
 07  2 18  1  4 40.0000000  0  8G 1G14G22G19G18G 3G31G 9
                   -143978.79749   -103477.59943
       234.0004         74.0004
                     20426.36749     15233.19843
       237.0004         74.0004
  21175286.9794      58694.09849     40575.94847  21175286.6744   21175288.8774
       244.0004        204.0004
  22591533.5474      48201.59449     33052.62646  22591533.1074   22591536.5744
       230.0004        184.0004
  23023298.0994     129118.03349     88201.60746  23023297.2034   23023302.9464
       223.0004        167.0004
  23328556.1194     150766.99449    104015.46545  23328555.6274   23328561.6224
       221.0004        157.0004
                   -150172.18449   -107251.98043
       219.0004         74.0004
                     70676.71549     38638.81743
       208.0004         74.0004
 07  2 18  1  4 45.0000000  0  7G 1G14G22G19G18G 3G31
                   -154954.06149   -111985.26843
       233.0004         74.0004
                     22197.37849     16718.04843
       238.0004         74.0004
  21176205.5954      63524.56549     44339.94847  21176206.0184   21176208.3724
       244.0004        205.0004
  22592296.3424      52203.03649     36170.63246  22592294.4904   22592297.9644
       229.0004        184.0004
  23025289.3644     139569.15649     96345.32646  23025287.0154   23025289.7984
       225.0004        167.0004
  23330905.3124     163107.21349    113631.21245  23330904.2914   23330909.8954
       220.0004        159.0004
                   -166431.30049   -119921.41543
       218.0004         74.0004
 07  2 18  1  4 50.0000000  0  7G 1G14G22G19G18G 3G31
                   -165914.35849   -120481.10643
       234.0004         74.0004
                     23986.07549     18217.36643
       238.0004         74.0004
  21177127.7164      68364.28549     48111.16347  21177127.1604   21177128.8164
       245.0004        205.0004
  22593060.6804      56223.73449     39303.64446  22593059.2614   22593062.9874
       230.0004        184.0004
  23027277.0174     150028.36649    104495.36546  23027276.4084   23027279.9734
       223.0004        167.0004
  23333254.4114     175458.82949    123255.85345  23333254.4844   23333260.6194
       220.0004        160.0004
                   -182683.60349   -132585.53843
       218.0004         74.0004
 07  2 18  1  4 55.0000000  0  8G 1G14G22G19G18G 3G31G 9
                   -176871.96649   -128974.81443
       232.0004         74.0004
                     25780.18849     19721.58743
       236.0004         74.0004
  21178048.1094      73200.99549     51880.02747  21178047.4934   21178049.2514
       244.0004        206.0004
  22593827.0864      60251.42949     42442.11346  22593826.0704   22593829.7764
       229.0004        185.0004
  23029268.4274     160483.35249    112642.11446  23029267.4804   23029270.2934
       225.0004        168.0004
  23335604.5884     187809.61149    132879.83145  23335604.4674   23335611.0014
       218.0004        162.0004
                   -198941.35449   -145253.90543
       215.0004         74.0004
                    111506.55949     70454.18643
       204.0004         74.0004
 07  2 18  1  5  0.0000000  0  8G 1G14G22G19G18G 3G31G 9
                   -187826.41649   -137466.63543
       233.0004         74.0004
                     27580.16249     21231.73243
       237.0004         74.0004
  21178967.5024      78035.13049     55646.88447  21178967.3764   21178969.1994
       243.0004        206.0004
  22594595.1464      64286.56949     45586.36746  22594593.9584   22594597.2594
       229.0004        185.0004
  23031255.1764     170934.61949    120785.95546  23031255.0144   23031258.4444
       224.0004        168.0004
  23337955.5244     200159.95349    142503.46145  23337955.5904   23337961.6704
       219.0004        162.0004
                   -215204.04849   -157926.12443
       217.0004         74.0004
                    125132.89049     81072.09843
       204.0004         74.0004
 07  2 18  1  5  5.0000000  0  7G 1G14G22G19G18G 3G31
                   -198769.29949   -145948.96943
       233.0004         74.0004
                     29394.39249     22753.87343
       238.0004         74.0004
  21179888.6794      82875.07049     59418.26747  21179888.4284   21179890.3634
       245.0004        206.0004
  22595366.5024      68337.46249     48742.91246  22595365.0844   22595368.0844
       231.0004        185.0004
  23033247.4064     181390.49349    128933.38446  23033244.9464   23033248.5024
       226.0004        168.0004
  23340307.2814     212518.24749    152133.29746  23340306.7724   23340314.1434
       220.0004        163.0004
                   -231463.31549   -170595.66544                  23639550.9064
       218.0004        109.0004
 07  2 18  1  5 10.0000000  0  8G 1G14G22G19G18G 3G31G 9
                   -209703.866 9    145948.970 1
       232.000
                     31219.64349     24285.49543
       237.0004         74.0004
  21180810.3064      87717.58649     63191.65847  21180810.0504   21180812.1464
       244.0004        206.0004
  22596139.6514      72400.93249     51909.24746  22596138.1294   22596141.5154
       230.0004        185.0004
  23035235.1404     191847.73849    137081.88846  23035234.8194   23035239.6514
       223.0004        168.0004
  23342660.2184     224881.28449    161766.81546  23342659.7234   23342666.1624
       218.0004        163.0004
                   -247722.33749   -183265.01745                  23636457.1484
       217.0004        134.0004
                    152426.58349    102339.91744                  24146916.8914
       205.0004        116.0004
 07  2 18  1  5 15.0000000  0  8G 1G14G22G19G18G 3G31G 9
                   -220630.18849     -5582.62743                  22041477.5924
       232.0004         74.0004
                     33055.79549     25825.96443
       237.0004         74.0004
  21181732.2724      92562.60849     66967.00247  21181731.8824   21181733.7404
       243.0004        206.0004
  22596915.4214      76476.86449     55085.29246  22596913.9024   22596916.4474
       230.0004        186.0004
  23037226.1384     202306.29649    145231.41846  23037226.2204   23037228.7004
       223.0004        168.0004
  23345013.5734     237248.94049    171403.94946  23345013.4534   23345019.2294
       218.0004        164.0004
                   -263981.20649   -195934.24945                  23633363.3414
       218.0004        145.0004
                    166090.57149    112987.20144                  24149515.8924
       203.0004        125.0004
 07  2 18  1  5 20.0000000  0  8G 1G14G22G19G18G 3G31G 9
                   -231546.32349    -14088.76545                  22039398.6724
       234.0004        150.0004
                     34904.80149       660.30743
       237.0004         74.0004
  21182655.0894      97412.08049     70745.81247  21182654.6734   21182656.6104
       244.0004        206.0004
  22597694.2504      80567.18849     58272.56146  22597692.1034   22597695.2004
       231.0004        186.0004
  23039216.8414     212768.10949    153383.47946  23039216.5424   23039220.0364
       224.0004        168.0004
  23347368.9504     249623.17649    181046.20946  23347368.0234   23347373.9794
       219.0004        164.0004
                   -280237.95849   -208601.82745                  23630269.9714
       218.0004        151.0004
                    179767.89649    123644.87544                  24152118.5044
       198.0004        130.0004
 07  2 18  1  5 25.0000000  0  8G 1G14G22G19G18G 3G31G 9
                   -242448.24449    -22583.74946                  22037324.2634
       233.0004        165.0004
                     36770.67549      2114.16146                  20357642.0094
       237.0004        169.0004
  21183579.5164     102270.01549     74531.21947  21183579.2634   21183581.1074
       244.0004        206.0004
  22598476.1644      84675.92749     61474.17546  22598474.1124   22598477.4234
       229.0004        186.0004
  23041209.3144     223237.21049    161541.21846  23041208.6634   23041211.9634
       224.0004        168.0004
  23349725.8224     262007.95849    190696.67846  23349724.7224   23349731.6354
       218.0004        164.0004
                   -296488.56049   -221264.61545                  23627177.3964
       217.0004        154.0004
                    193462.61949    134316.09445                  24154724.9994
       199.0004        133.0004
 07  2 18  1  5 30.0000000  0  8G 1G14G22G19G18G 3G31G 9
                   -253337.34649    -31068.75446                  22035252.1404
       233.0004        172.0004
                     38651.99149      3580.12646                  20358000.0934
       237.0004        186.0004
  21184505.3234     107135.03449     78322.14347  21184504.9324   21184506.9644
       244.0004        206.0004
  22599261.1734      88801.67049     64689.04046  22599258.7594   22599262.0564
       228.0004        186.0004
  23043202.7814     233712.19649    169703.54846  23043201.4144   23043205.1164
       222.0004        168.0004
  23352084.2894     274401.88549    200354.28446  23352083.0694   23352088.6214
       219.0004        164.0004
  23624080.7584    -312734.43049   -233923.71545  23624081.0494   23624085.6174
       215.0004        156.0004
  24157330.4984     207173.22649    144999.67545  24157329.2694   24157334.7374
       204.0004        136.0004
 07  2 18  1  5 35.0000000  0  8G 1G14G22G19G18G 3G31G 9
                   -264223.24649    -39551.27446                  22033180.9264
       234.0004        177.0004
                     40539.18249      5050.66847                  20358359.2544
       239.0004        195.0004
  21185430.6604     111997.50449     82111.08647  21185430.3024   21185432.3194
       245.0004        206.0004
  22600047.4804      92934.77449     67909.64146  22600045.0244   22600048.9694
       230.0004        186.0004
  23045195.3574     244183.42649    177862.94746  23045193.5944   23045197.8124
       225.0004        168.0004
  23354442.6254     286795.29549    210011.49246  23354441.0874   23354446.6614
       219.0004        164.0004
  23620987.9154    -328985.16049   -246586.60645  23620988.6004   23620993.4004
       217.0004        157.0004
  24159939.4504     220890.12749    155688.17045  24159938.8424   24159944.9524
       205.0004        137.0004
 07  2 18  1  5 40.0000000  0  8G 1G14G22G19G18G 3G31G 9
  22031105.7274    -275100.31549    -48026.90146  22031105.2534   22031110.9174
       233.0004        180.0004
                     42437.84749      6530.14847                  20358720.5964
       236.0004        200.0004
  21186356.5354     116863.08449     85902.44547  21186355.9414   21186358.3414
       244.0004        207.0004
  22600836.2654      97080.88949     71140.37246  22600834.7984   22600838.1024
       228.0004        186.0004
  23047188.3164     254656.54149    186023.80546  23047186.7954   23047191.1794
       221.0004        168.0004
  23356801.8894     299193.85549    219672.70046  23356800.2444   23356807.0134
       218.0004        164.0004
  23617895.3754    -345235.09749   -259248.88045  23617896.2714   23617901.1674
       216.0004        159.0004
  24162550.1094     234618.96649    166385.96945  24162551.3544   24162557.2504
       201.0004        139.0004
 07  2 18  1  5 45.0000000  0  8G 1G14G22G19G18G 3G31G 9
  21969959.0494    -596428.61649   -298412.58246  21969958.2044   21969964.3494
       234.0004        182.0004
                   -266111.62449   -233898.00647                  20300005.5254
       238.0004        203.0004
  21128204.5284    -188727.69949   -152220.24147  21128204.3294   21128206.0474
       245.0004        207.0004
  22542549.1254    -209219.47149   -167535.22746  22542547.7994   22542550.6474
       231.0004        186.0004
  22990103.1194     -45327.68749    -47730.13946  22990102.8334   22990106.1134
       226.0004        168.0004
  23300083.7354       1138.41149    -12578.29346  23300082.7184   23300088.9534
       221.0004        164.0004
  23555724.5014    -671944.50249   -513827.62445  23555725.7904   23555730.2974
       217.0004        160.0004
  24106087.7064     -62099.38149    -64823.13945  24106088.2324   24106093.6664
       204.0004        140.0004
 07  2 18  1  5 50.0000000  0  8G 1G14G22G19G18G 3G31G 9
  21967749.6044    -608039.66949   -307460.14446  21967748.7044   21967754.9894
       234.0004        184.0004
  20300224.9994    -264941.75849   -232986.42147  20300224.8074   20300228.3114
       238.0004        205.0004
  21128988.5384    -184607.61549   -149009.78747  21128988.4064   21128990.1024
       245.0004        207.0004
  22543199.9194    -205799.00849   -164869.93646  22543198.9784   22543201.8014
       230.0004        186.0004
  22991953.7484     -35602.46449    -40152.03846  22991952.0134   22991956.8024
       222.0004        167.0004
  23302301.9894      12795.65449     -3494.72746  23302301.1234   23302307.0254
       219.0004        164.0004
  23552489.4294    -688944.45949   -527074.32945  23552490.7904   23552495.3834
       217.0004        160.0004
  24108562.9544     -49098.42649    -54692.52745  24108562.3604   24108567.4024
       206.0004        141.0004
 07  2 18  1  5 55.0000000  0  8G 1G14G22G19G18G 3G31G 9
  21965541.9594    -619640.82949   -316500.00746  21965541.9324   21965547.2074
       232.0004        185.0004
  20300449.9954    -263759.41349   -232065.11547  20300449.5014   20300453.1234
       237.0004        207.0004
  21129773.3654    -180483.42349   -145796.13147  21129773.1124   21129775.0604
       243.0004        207.0004
  22543853.4544    -202364.50549   -162193.70046  22543852.2264   22543855.1644
       229.0004        186.0004
  22993804.8424     -25874.30449    -32571.66146  22993804.6104   22993808.3224
       223.0004        168.0004
  23304521.4654      24459.02449      5593.60646  23304520.7564   23304526.9124
       219.0004        164.0004
  23549254.8444    -705942.49249   -540319.53945  23549256.0294   23549260.7914
       216.0004        160.0004
  24111039.0254     -36084.52449    -44551.82145  24111038.1364   24111043.4844
       203.0004        142.0004
 07  2 18  1  6  0.0000000  0  8G 1G14G22G19G18G 3G31G 9
  21963336.0754    -631232.81049   -325532.71446  21963335.8194   21963341.0884
       234.0004        186.0004
  20300677.2604    -262565.32549   -231134.65547  20300676.8944   20300680.5404
       238.0004        208.0004
  21130558.8034    -176355.82249   -142579.82247  21130558.6594   21130560.4814
       245.0004        207.0004
  22544509.5404    -198916.68349   -159507.08546  22544508.0524   22544511.2424
       230.0004        186.0004
  22995656.4204     -16143.94949    -24989.56746  22995655.5894   22995659.0494
       223.0004        167.0004
  23306741.9164      36127.77749     14686.14146  23306740.9594   23306746.5754
       218.0004        164.0004
  23546020.5144    -722939.33149   -553563.81845  23546021.5384   23546026.1144
       217.0004        161.0004
  24113517.2894     -23058.37849    -34401.56745  24113516.3404   24113522.2774
       206.0004        142.0004
 07  2 18  1  6  5.0000000  0  8G 1G14G22G19G18G 3G31G 9
  21961132.1134    -642814.74049   -334557.58946  21961131.5654   21961136.6204
       234.0004        187.0004
  20300906.9104    -261358.63249   -230194.37047  20300906.4454   20300910.1254
       237.0004        209.0004
  21131345.0704    -172223.96949   -139360.19147  21131344.7444   21131346.8434
       244.0004        207.0004
  22545168.3064    -195454.70449   -156809.44046  22545166.7864   22545169.6214
       229.0004        186.0004
  22997508.6294      -6410.47049    -17405.03446  22997507.3174   22997512.5724
       223.0004        168.0004
  23308963.5714      47802.74149     23783.50146  23308962.3914   23308968.6784
       218.0004        164.0004
  23542786.6214    -739934.13149   -566806.50945  23542787.8574   23542791.8494
       216.0004        161.0004
  24115998.3994     -10019.20949    -24241.17045  24115998.2024   24116003.4864
       204.0004        142.0004
 07  2 18  1  6 10.0000000  0  8G 1G14G22G19G18G 3G31G 9
  21958929.9654    -654387.15849   -343575.04446  21958929.3504   21958935.1724
       232.0004        187.0004
  20301138.8494    -260139.84949   -229244.66447  20301138.4244   20301141.9534
       236.0004        210.0004
  21132132.0364    -168088.39549   -136137.66447  21132131.7004   21132133.6324
       243.0004        207.0004
  22545829.6524    -191979.12849   -154101.19746  22545828.4584   22545831.3864
       228.0004        186.0004
  22999361.3224       3325.54049     -9818.53746  22999360.4244   22999363.7714
       224.0004        168.0004
  23311186.2774      59483.38849     32885.30646  23311185.8924   23311191.1094
       217.0004        164.0004
  23539552.9614    -756927.39449   -580048.00045  23539553.9664   23539558.3904
       215.0004        161.0004
  24118482.2594       3032.44149    -14071.04845  24118482.6124   24118487.2954
       202.0004        142.0004
 07  2 18  1  6 15.0000000  0  8G 1G14G22G19G18G 3G31G 9
  21956729.7754    -665949.34049   -352584.53546  21956728.8134   21956734.6444
       233.0004        187.0004
  20301373.2164    -258908.28749   -228285.00647  20301372.7124   20301376.6014
       237.0004        211.0004
  21132919.8714    -163948.34449   -132911.65547  21132919.7644   21132921.7224
       244.0004        207.0004
  22546493.7284    -188489.23549   -151381.80546  22546492.5284   22546495.8244
       229.0004        186.0004
  23001214.6584      13064.83449     -2229.47246  23001214.6104   23001217.6914
       222.0004        168.0004
  23313410.2264      71170.46549     41992.10946  23313409.5724   23313415.9794
       218.0004        164.0004
  23536319.7514    -773918.38349   -593287.71645  23536320.4344   23536325.1594
       215.0004        161.0004
  24120968.5944      16097.35149     -3890.59445  24120968.2514   24120973.1904
       200.0004        142.0004
 07  2 18  1  6 20.0000000  0  9G 1G14G22G21G19G18G 3G31G 9
  21954531.4784    -677501.35349   -361586.08847  21954530.6154   21954536.3604
       233.0004        188.0004
  20301609.9874    -257664.00349   -227315.43047  20301609.3984   20301613.0914
       237.0004        211.0004
  21133708.5124    -159803.89149   -129682.20447  21133708.2184   21133710.1264
       244.0004        207.0004
                   -305658.27719    151381.805 1
       207.000
  22547160.5174    -184985.11549   -148651.31446  22547159.5964   22547162.2214
       229.0004        186.0004
  23003068.5694      22807.27949      5362.04046  23003067.8674   23003071.7994
       225.0004        168.0004
  23315635.3214      82863.93449     51103.90946  23315634.6924   23315641.0204
       218.0004        164.0004
  23533086.9324    -790907.18649   -606525.72445  23533087.6224   23533092.2074
       215.0004        161.0004
  24123457.2824      29175.44149      6300.12745  24123456.9784   24123461.7924
       200.0004        141.0004
 07  2 18  1  6 25.0000000  0  9G 1G14G22G21G19G18G 3G31G 9
  21952334.9054    -689044.22449   -370580.52347  21952334.0654   21952339.9084
       233.0004        188.0004
  20301848.9804    -256408.04349   -226336.75347  20301848.3634   20301851.9024
       237.0004        211.0004
  21134497.8104    -155656.09249   -126450.14847  21134497.5124   21134499.3364
       244.0004        206.0004
                   -287914.78249   -237220.18843
       208.0004         74.0004
  22547829.8304    -181467.73949   -145910.49546  22547828.4034   22547831.5114
       229.0004        186.0004
  23004922.8994      32551.86349     12955.22346  23004922.1444   23004926.6104
       222.0004        168.0004
  23317861.4214      94562.66249     60219.80146  23317860.3214   23317866.4684
       217.0004        164.0004
  23529854.3204    -807894.78549   -619762.79645  23529854.9904   23529859.4524
       218.0004        161.0004
  24125948.3044      42265.55549     16500.21245  24125948.7334   24125952.9474
       197.0004        140.0004
 07  2 18  1  6 30.0000000  0  9G 1G14G22G21G19G18G 3G31G 9
  21950140.4844    -700575.84349   -379566.19547  21950140.1844   21950145.6224
       232.0004        188.0004
  20302090.5974    -255138.33049   -225347.36947  20302090.1454   20302093.8424
       236.0004        211.0004
  21135288.1534    -151502.83149   -123213.84547  21135287.7954   21135289.8884
       243.0004        206.0004
                   -270164.83949   -223389.09943
       206.0004         74.0004
  22548502.0894    -177935.05449   -143157.76346  22548500.1784   22548503.7064
       228.0004        185.0004
  23006778.0364      42300.70749     20551.72146  23006777.6794   23006781.9844
       223.0004        168.0004
  23320088.9284     106268.70049     69341.38246  23320088.2294   23320093.9184
       218.0004        164.0004
  23526622.3444    -824879.08249   -632997.29445  23526623.0184   23526627.4304
       217.0004        161.0004
  24128441.9834      55369.84049     26711.33845  24128441.6574   24128446.5624
       200.0004        140.0004
 07  2 18  1  6 35.0000000  0  9G 1G14G22G21G19G18G 3G31G 9
  21947947.7804    -712098.47549   -388544.86947  21947947.2024   21947952.7864
       233.0004        188.0004
  20302334.3924    -253857.14849   -224349.04047  20302333.8174   20302337.4064
       237.0004        212.0004
  21136079.0894    -147346.37449   -119975.04247  21136078.7974   21136080.8264
       243.0004        206.0004
                   -252410.75749   -209554.74943
       205.0004         74.0004
  22549176.8014    -174389.31349   -140394.84446  22549175.4314   22549178.0814
       228.0004        185.0004
  23008633.5624      52051.53649     28149.77346  23008632.9754   23008636.4424
       222.0004        168.0004
  23322317.4454     117979.94749     78467.02146  23322316.4064   23322322.7684
       217.0004        164.0004
  23523390.6104    -841862.34449   -646230.99045  23523391.7354   23523395.8364
       218.0004        161.0004
  24130937.8934      68486.00749     36931.72145  24130937.4904   24130943.0504
       202.0004        140.0004
 07  2 18  1  6 40.0000000  0  8G 1G14G22G19G18G 3G31G 9
  21945756.9954    -723611.03449   -397515.68247  21945756.3794   21945761.9324
       233.0004        189.0004
  20302580.6094    -252563.37649   -223340.90447  20302580.0364   20302583.5954
       237.0004        212.0004
  21136870.8604    -143185.62449   -116732.90047  21136870.5494   21136872.4964
       244.0004        206.0004
  22549854.1814    -170829.43049   -137620.91946  22549852.6024   22549855.9344
       228.0004        185.0004
  23010489.6384      61805.43249     35750.20846  23010489.1404   23010492.5044
       224.0004        168.0004
  23324547.1734     129697.33849     87597.44946  23324546.7424   23324552.4494
       218.0004        163.0004
  23520159.3054    -858843.44449   -659463.00145  23520160.5724   23520164.1454
       217.0004        161.0004
  24133436.2564      81615.10849     47162.18245  24133435.9604   24133441.1914
       200.0004        140.0004
 07  2 18  1  6 45.0000000  0  8G 1G14G22G19G18G 3G31G 9
  21943568.2724    -735112.84049   -406478.13147  21943567.8644   21943573.0734
       232.0004        189.0004
  20302829.3354    -251256.35249   -222322.44547  20302828.9244   20302832.4414
       237.0004        212.0004
  21137663.5554    -139019.91449   -113486.89147  21137663.3504   21137665.5284
       243.0004        206.0004
  22550534.3754    -167254.80549   -134835.49646  22550533.1614   22550535.8794
       229.0004        185.0004
  23012346.4674      71563.07749     43353.57146  23012346.4144   23012349.9304
       224.0004        168.0004
  23326778.1664     141421.48749     96733.14646  23326777.8284   23326784.2484
       217.0004        163.0004
  23516928.5104    -875821.69849   -672692.79345  23516929.3494   23516932.9114
       215.0004        162.0004
  24135937.2014      94757.88949     57403.31245  24135935.6594   24135941.4344
       201.0004        140.0004
 07  2 18  1  6 50.0000000  0  9G 1G14G22G21G19G18G 3G31G 9
  21941381.3174    -746605.40049   -415433.35647  21941380.9984   21941386.2444
       233.0004        189.0004
  20303080.3164    -249937.57449   -221294.81647  20303079.6704   20303083.3024
       237.0004        212.0004
  21138456.9104    -134850.75549   -110238.18647  21138456.1814   21138458.5544
       243.0004        206.0004
                   -199116.72549   -168027.21343
       204.0004         74.0004
  22551217.0824    -163666.89749   -132039.72046  22551215.6684   22551219.1864
       228.0004        185.0004
  23014203.7334      81322.99549     50958.69846  23014202.3694   23014206.4464
       221.0004        168.0004
  23329010.1884     153150.92349    105872.96646  23329010.2024   23329015.5994
       218.0004        163.0004
  23513697.9334    -892798.62649   -685921.54745  23513698.2154   23513702.5004
       215.0004        161.0004
  24138440.3924     107912.81149     67653.89945  24138438.3574   24138445.6944
       199.0004        140.0004
 07  2 18  1  6 55.0000000  0  9G 1G14G22G21G19G18G 3G31G 9
  21939196.2814    -758087.87549   -424380.73847  21939195.3314   21939200.8154
       234.0004        189.0004
  20303333.6614    -248606.21649   -220257.39647  20303333.0554   20303336.5844
       238.0004        212.0004
  21139251.0804    -130677.29849   -106986.14547  21139250.6314   21139252.5854
       244.0004        206.0004
                   -181342.00749   -154176.95343
       205.0004         74.0004
  22551902.5254    -160064.85149   -129232.93546  22551901.6834   22551904.3664
       229.0004        185.0004
  23016061.5684      91086.03049     58566.25146  23016061.6224   23016064.9964
       224.0004        167.0004
  23331243.4164     164886.54649    115017.59546  23331243.2064   23331248.9284
       221.0004        163.0004
  23510467.7624    -909773.35149   -699148.58645  23510467.7424   23510472.6084
       217.0004        161.0004
  24140946.0584     121080.64949     77914.55745  24140945.0714   24140950.8774
       200.0004        139.0004
 07  2 18  1  7  0.0000000  0  9G 1G14G22G21G19G18G 3G31G 9
  21937013.3114    -769559.46249   -433319.62947  21937012.8724   21937017.9024
       233.0004        189.0004
  20303589.5514    -247261.50349   -219209.56847  20303589.1684   20303592.5974
       236.0004        212.0004
  21140046.2344    -126498.75349   -103730.13947  21140045.9814   21140048.1464
       243.0004        206.0004
                   -163561.31549   -140321.94643
       206.0004         74.0004
  22552590.7874    -156447.93149   -126414.55546  22552590.1574   22552593.2274
       228.0004        185.0004
  23017920.1674     100852.96949     66176.85546  23017919.2264   23017923.0984
       222.0004        167.0004
  23333477.9744     176628.99749    124167.55446  23333478.0994   23333483.8944
       218.0004        163.0004
  23507238.1564    -926745.03949   -712373.26045  23507238.1984   23507243.2164
       217.0004        161.0004
  24143454.3654     134262.15749     88185.86945  24143454.3944   24143459.5334
       199.0004        139.0004
 07  2 18  1  7  5.0000000  0  9G 1G14G22G21G19G18G 3G31G 9
  21934831.9534    -781022.56249   -442251.90247  21934830.8334   21934836.8514
       235.0004        189.0004
  20303847.5194    -245905.84549   -218153.20547  20303846.9294   20303850.6014
       239.0004        212.0004
  21140841.8934    -122317.51549   -100472.02547  21140841.4804   21140843.4474
       245.0004        206.0004
                   -145777.05649   -126464.11743
       206.0004         74.0004
  22553281.4094    -152818.53749   -123586.45446  22553279.9794   22553283.1344
       229.0004        185.0004
  23019779.0584     110621.39949     73788.61346  23019779.2884   23019782.2414
       224.0004        167.0004
  23335713.3514     188375.94149    133321.02446  23335713.1424   23335719.2594
       220.0004        163.0004
  23504008.6554    -943716.13549   -725597.47045  23504009.0734   23504013.5454
       218.0004        161.0004
  24145964.9154     147455.02049     98466.03045  24145964.5274   24145969.4294
       196.0004        138.0004
 07  2 18  1  7 10.0000000  0  9G 1G14G22G21G19G18G 3G31G 9
  21932652.7284    -792474.62949   -451175.58647  21932652.2714   21932657.8404
       233.0004        189.0004
  20304108.0614    -244536.66049   -217086.30847  20304107.6594   20304111.1034
       237.0004        212.0004
  21141638.5204    -118131.05949    -97209.85447  21141638.3584   21141640.3414
       243.0004        206.0004
                   -127986.73049   -112601.53643                  24029361.0184
       206.0004         90.0004
  22553974.9114    -149174.10749   -120746.63246  22553973.6394   22553977.3834
       229.0004        185.0004
  23021638.6904     120393.84249     81403.52346  23021637.7924   23021641.7214
       221.0004        167.0004
  23337950.0894     200129.92849    142479.97346  23337949.9234   23337955.2144
       219.0004        163.0004
  23500779.7974    -960684.06649   -738819.21945  23500780.0694   23500784.8114
       217.0004        162.0004
  24148478.0344     160661.70449    108756.94745  24148478.3464   24148482.4244
       196.0004        137.0004
 07  2 18  1  7 15.0000000  0  9G 1G14G22G21G19G18G 3G31G 9
  21930475.3544    -803916.78549   -460091.54547  21930475.0284   21930479.9314
       234.0004        189.0004
  20304370.9604    -243155.14449   -216009.79947  20304370.5774   20304374.0314
       238.0004        212.0004
  21142435.9484    -113940.51749    -93944.49247  21142435.7764   21142437.8764
       244.0004        206.0004
                   -110191.43549    -98735.04944                  24032747.5234
       207.0004         98.0004
  22554671.0554    -145515.78449   -117895.99946  22554670.0274   22554673.4304
       228.0004        185.0004
  23023498.8514     130169.20749     89020.68346  23023497.7644   23023502.1244
       222.0004        167.0004
  23340187.9594     211889.81949    151643.52146  23340187.8144   23340192.8584
       221.0004        163.0004
  23497551.3364    -977649.93249   -752039.35645  23497551.7234   23497556.3534
       217.0004        162.0004
  24150993.6034     173881.08249    119057.74645  24150994.3844   24150999.6954
       200.0004        136.0004
 07  2 18  1  7 20.0000000  0  9G 1G14G22G21G19G18G 3G31G 9
  21928299.7954    -815349.40149   -469000.06947  21928299.0444   21928304.3584
       233.0004        189.0004
  20304636.1424    -241761.68049   -214923.97847  20304635.6234   20304639.1924
       238.0004        212.0004
  21143234.0844    -109746.24249    -90676.22647  21143233.7944   21143235.8264
       244.0004        206.0004
                    -92391.57849    -84864.98444                  24036135.8974
       206.0004        105.0004
  22555369.7644    -141843.94849   -115034.82646  22555368.5434   22555372.1084
       228.0004        185.0004
  23025359.5034     139947.07449     96639.79846  23025358.3964   23025362.2534
       223.0004        167.0004
  23342426.8904     223655.22749    160811.36846  23342426.1854   23342432.6854
       220.0004        163.0004
  23494323.1714    -994614.13349   -765258.19645  23494323.1984   23494328.3294
       216.0004        162.0004
  24153511.5774     187112.84349    129368.20345  24153512.1314   24153516.8574
       198.0004        136.0004
 07  2 18  1  7 25.0000000  0  9G 1G14G22G21G19G18G 3G31G 9
  21926126.3134    -826771.17449   -477900.14247  21926125.6094   21926130.6084
       234.0004        189.0004
  20304903.8514    -240354.95649   -213827.82747  20304903.3084   20304906.7654
       237.0004        212.0004
  21144033.1934    -105546.94249    -87404.04147  21144032.7414   21144035.0404
       244.0004        206.0004
                    -74585.85549    -70990.34944                  24039527.6064
       204.0004        113.0004
  22556071.2914    -138157.33049   -112162.13646  22556069.9384   22556073.7034
       228.0004        185.0004
  23027220.8884     149728.77549    104261.90346  23027220.4674   23027224.2204
       223.0004        167.0004
  23344667.0714     235427.33849    169984.44046  23344667.0734   23344672.6124
       220.0004        163.0004
  23491095.6044   -1011575.32249   -778474.68545  23491095.4834   23491100.4414
       216.0004        162.0004
  24156032.0964     200358.19649    139689.24845  24156033.3864   24156037.0814
       201.0004        135.0004
 07  2 18  1  7 30.0000000  0  9G 1G14G22G21G19G18G 3G31G 9
  21923954.6614    -838183.20749   -486792.63547  21923954.6324   21923959.0724
       232.0004        189.0004
  20305173.8474    -238936.07549   -212722.20747  20305173.2114   20305176.9054
       237.0004        212.0004
  21144833.0314    -101343.73949    -84128.81847  21144832.9474   21144834.9174
       243.0004        206.0004
                    -56775.35249    -57112.00544                  24042918.4714
       203.0004        119.0004
  22556775.4204    -134457.03449   -109278.78746  22556774.3304   22556777.8484
       228.0004        185.0004
  23029082.8004     159513.22949    111886.15046  23029082.4784   23029086.4194
       221.0004        167.0004
  23346908.3324     247205.13349    179161.94446  23346907.7524   23346913.9914
       219.0004        163.0004
  23487868.3704   -1028534.57549   -791689.66845  23487868.5474   23487873.0424
       215.0004        162.0004
  24158555.0174     213616.05749    150020.05245  24158556.0204   24158559.1094
       197.0004        135.0004
 07  2 18  1  7 35.0000000  0  9G 1G14G22G21G19G18G 3G31G 9
  21921784.8244    -849585.61649   -495677.61947  21921784.2254   21921789.6034
       233.0004        189.0004
  20305446.1574    -237505.18549   -211607.22747  20305445.5434   20305449.1844
       236.0004        212.0004
  21145633.5944     -97136.70049    -80850.60547  21145633.2434   21145635.4874
       243.0004        206.0004
                    -38960.25049    -43230.08944                  24046310.0444
       205.0004        124.0004
  22557482.1454    -130743.13949   -106384.84746  22557480.4914   22557484.1794
       227.0004        185.0004
  23030945.2024     169300.30249    119512.43946  23030944.5194   23030949.2094
       222.0004        167.0004
  23349150.6294     258988.52649    188343.80646  23349150.6794   23349155.8454
       218.0004        163.0004
  23484641.4994   -1045492.01349   -804903.23945  23484641.7914   23484645.6864
       216.0004        162.0004
  24161080.3014     226886.25249    160360.46045  24161080.7524   24161084.2154
       202.0004        134.0004
 07  2 18  1  7 40.0000000  0  9G 1G14G22G21G19G18G 3G31G 9
  21919617.0424    -860977.35849   -504554.29847  21919616.4854   21919621.8254
       233.0004        189.0004
  20305720.9194    -236061.22349   -210482.05947  20305720.2424   20305723.9624
       236.0004        212.0004
  21146435.1034     -92924.78849    -77568.59847  21146435.0684   21146437.0074
       243.0004        206.0004
  24049697.6424     -21139.49449    -29343.78544  24049695.8024   24049702.7314
       206.0004        128.0004
  22558191.6574    -127014.68549   -103479.56046  22558190.1904   22558193.7804
       227.0004        185.0004
  23032808.2914     179090.99849    127141.55746  23032807.0394   23032811.9044
       221.0004        167.0004
  23351394.1674     270778.44049    197530.74845  23351393.3374   23351399.1294
       217.0004        162.0004
  23481415.1754   -1062446.57849   -818114.57145  23481415.4544   23481419.3744
       216.0004        162.0004
  24163608.1544     240169.80549    170711.28645  24163607.8824   24163610.9234
       200.0004        135.0004
 07  2 18  1  7 45.0000000  0  9G 1G14G22G21G19G18G 3G31G 9
  21917451.0744    -872359.52949   -513423.51747  21917450.5154   21917456.4164
       233.0004        189.0004
  20305997.9674    -234605.32949   -209347.59747  20305997.4904   20306001.0904
       237.0004        212.0004
  21147237.3054     -88709.17749    -74283.70747  21147237.1924   21147239.1754
       244.0004        206.0004
  24053089.4784      -3314.19149    -15453.94344  24053088.1944   24053094.8434
       207.0004        131.0004
  22558903.7064    -123272.76949   -100563.78546  22558903.0964   22558906.0224
       229.0004        185.0004
  23034671.8714     188884.24049    134772.65146  23034671.8984   23034675.4134
       222.0004        167.0004
  23353638.7334     282573.81349    206721.94745  23353637.5834   23353642.9814
       217.0004        162.0004
  23478189.1494   -1079399.37149   -831324.52545  23478189.1184   23478193.2894
       216.0004        162.0004
  24166138.2964     253465.60449    181071.65245  24166138.0414   24166142.4354
       201.0004        136.0004
 07  2 18  1  7 50.0000000  0  9G 1G14G22G21G19G18G 3G31G 9
  21915287.0814    -883731.46649   -522284.75647  21915286.0734   21915292.0814
       234.0004        189.0004
  20306277.4194    -233136.83349   -208203.30747  20306276.8074   20306280.4004
       237.0004        212.0004
  21148040.3354     -84489.15749    -70995.37347  21148039.9774   21148042.0684
       243.0004        206.0004
  24056481.9974      14516.27249     -1560.08445  24056481.5144   24056487.5794
       209.0004        133.0004
  22559618.4584    -119516.72549    -97636.99746  22559617.5324   22559620.5414
       227.0004        185.0004
  23036536.0654     198680.67849    142406.24246  23036534.2094   23036538.9444
       222.0004        167.0004
  23355884.4244     294375.26749    215917.88645  23355883.2094   23355889.5374
       216.0004        162.0004
  23474963.5874   -1096349.72949   -844532.58445  23474963.5614   23474968.1554
       216.0004        161.0004
  24168670.8424     266774.30149    191442.07945  24168671.4074   24168675.1524
       199.0004        136.0004
 07  2 18  1  7 55.0000000  0  9G 1G14G22G21G19G18G 3G31G 9
  21913125.0204    -895093.22049   -531138.05947  21913124.2704   21913130.1354
       235.0004        189.0004
  20306559.2604    -231655.74149   -207049.21147  20306558.7024   20306562.3874
       237.0004        212.0004
  21148844.2304     -80264.80649    -67703.67347  21148844.2904   21148846.1154
       243.0004        206.0004
  24059876.0474      32351.88349     12337.78545  24059875.4654   24059881.4444
       208.0004        134.0004
  22560335.8834    -115746.59549    -94699.23846  22560335.1754   22560337.7524
       228.0004        185.0004
  23038400.8354     208480.29949    150042.29646  23038399.9384   23038403.7764
       223.0004        166.0004
  23358131.2574     306182.75749    225118.52045  23358130.5434   23358136.3094
       219.0004        162.0004
  23471738.4904   -1113297.66749   -857738.75445  23471738.8134   23471743.0444
       217.0004        161.0004
  24171205.8084     280095.84349    201822.51145  24171205.9124   24171210.2384
       198.0004        135.0004
 07  2 18  1  8  0.0000000  0  9G 1G14G22G21G19G18G 3G31G 9
  21910964.7944    -906445.20249   -539983.76047  21910964.2054   21910969.4634
       233.0004        189.0004
  20306843.3894    -230162.54049   -205885.67747  20306842.8454   20306846.3784
       237.0004        212.0004
  21149648.8394     -76036.52549    -64408.90847  21149648.4234   21149650.6144
       244.0004        206.0004
  24063271.0414      50192.18949     26239.32045  24063270.7644   24063275.7234
       207.0004        134.0004
  22561055.9164    -111962.83849    -91750.85546  22561054.9474   22561058.1114
       227.0004        185.0004
  23040266.1564     218282.61049    157680.47446  23040264.7674   23040270.2374
       221.0004        166.0004
  23360379.1704     317995.70849    234323.40945  23360378.2074   23360385.3004
       219.0004        162.0004
  23468513.7724   -1130243.58749   -870943.35645  23468514.1264   23468518.5404
       217.0004        162.0004
  24173743.1504     293429.86149    212212.66745  24173742.9664   24173747.9344
       195.0004        135.0004
 07  2 18  1  8  5.0000000  0  9G 1G14G22G21G19G18G 3G31G 9
  21908806.3954    -917787.84749   -548822.16947  21908805.9094   21908810.9984
       235.0004        189.0004
  20307129.7654    -228657.66649   -204713.04147  20307129.0574   20307132.7584
       238.0004        212.0004
  21150454.1134     -71804.76249    -61111.42247  21150453.6964   21150455.8424
       244.0004        206.0004
  24066666.7864      68036.76849     40144.19045  24066666.6334   24066670.4624
       208.0004        134.0004
  22561778.4294    -108165.87749    -88792.18246  22561777.2074   22561780.4864
       229.0004        185.0004
  23042131.9134     228087.27849    165320.46446  23042130.9454   23042135.8274
       224.0004        166.0004
  23362628.0754     329813.81949    243532.32445  23362627.7894   23362633.9724
       221.0004        162.0004
  23465289.3804   -1147187.91549   -884146.71345  23465289.6484   23465294.2524
       218.0004        162.0004
  24176282.7764     306775.85549    222612.14645  24176281.6684   24176288.4564
       195.0004        135.0004
 07  2 18  1  8 10.0000000  0  8G 1G14G22G21G19G18G 3G31
  21906650.2944    -929118.17949   -557651.00147  21906649.7124   21906654.6694
       235.0004        189.0004
  20307418.9244    -227138.17349   -203529.02247  20307418.1774   20307421.8834
       238.0004        212.0004
  21151260.6524     -67566.52549    -57808.90447  21151260.2274   21151262.5554
       245.0004        206.0004
  24070063.9874      85888.59449     54054.71345  24070064.3614   24070066.7674
       207.0004        133.0004
  22562504.0474    -104352.72449    -85820.89646  22562502.1654   22562505.7424
       228.0004        184.0004
  23043998.6994     237897.19649    172964.55646  23043998.7124   23044001.9614
       223.0004        166.0004
  23364878.5684     341640.04649    252747.56645  23364878.6614   23364884.6464
       222.0004        162.0004
  23462065.8884   -1164127.67049   -897346.50645  23462065.8904   23462070.6064
       219.0004        162.0004
 07  2 18  1  8 15.0000000  0  8G 1G14G22G21G19G18G 3G31
  21904496.1524    -940438.21949   -566471.81147  21904495.7334   21904501.3464
       233.0004        189.0004
  20307710.4634    -225606.07849   -202335.18447  20307709.9354   20307713.5714
       237.0004        212.0004
  21152067.9934     -63323.84549    -54502.92047  21152067.6884   21152069.8554
       243.0004        206.0004
  24073462.1464     103745.59249     67969.26845  24073463.1384   24073464.6894
       204.0004        132.0004
  22563232.3414    -100525.43549    -82838.59646  22563231.5604   22563234.8224
       227.0004        184.0004
  23045866.0954     247710.38149    180611.18746  23045865.4894   23045869.6214
       221.0004        166.0004
  23367130.2304     353472.34149    261967.52646  23367130.1624   23367136.1284
       220.0004        163.0004
  23458842.8514   -1181064.86049   -910544.29945  23458842.9114   23458847.5394
       217.0004        162.0004
 07  2 18  1  8 20.0000000  0  8G 1G14G22G21G19G18G 3G31
  21902343.8214    -951748.78549   -575285.22647  21902342.8944   21902348.3104
       232.0004        189.0004
  20308004.2644    -224062.20649   -201132.16547  20308003.9714   20308007.3554
       237.0004        212.0004
  21152876.0564     -59077.53949    -51194.10947  21152875.8994   21152877.7174
       243.0004        206.0004
  24076861.0954     121606.93849     81887.21045  24076859.9074   24076862.6984
       204.0004        132.0004
  22563963.1774     -96684.81649    -79845.90446  22563962.4244   22563964.8284
       228.0004        184.0004
  23047733.9634     257525.96149    188259.69746  23047733.4364   23047737.5074
       221.0004        165.0004
  23369382.8964     365309.95249    271191.63946  23369383.0134   23369388.8044
       220.0004        163.0004
  23455620.1404   -1198000.31649   -923740.73946  23455620.2324   23455624.8444
       217.0004        163.0004
 07  2 18  1  8 25.0000000  0  8G 1G14G22G21G19G18G 3G31
  21900193.4494    -963048.84849   -584090.46647  21900192.6624   21900198.4174
       233.0004        189.0004
  20308300.4814    -222505.53249   -199919.16647  20308299.8674   20308303.3834
       237.0004        212.0004
  21153684.9734     -54826.58549    -47881.67547  21153684.6194   21153686.7794
       243.0004        206.0004
  24080261.0334     139473.65749     95809.33044  24080259.4334   24080264.8694
       206.0004        131.0004
  22564696.7224     -92829.89249    -76842.06646  22564695.6564   22564698.5474
       227.0004        184.0004
  23049602.4704     267344.99949    195910.89246  23049602.2824   23049605.6854
       222.0004        165.0004
  23371636.7744     377153.86549    280420.65346  23371636.7334   23371642.2944
       219.0004        163.0004
  23452397.9604   -1214933.00549   -936935.02246  23452397.8234   23452402.7154
       218.0004        163.0004
 07  2 18  1  8 30.0000000  0  8G 1G14G22G21G19G18G 3G31
  21898044.9534    -974339.15849   -592888.10347  21898044.2894   21898049.5854
       234.0004        189.0004
  20308599.0114    -220936.77249   -198696.75947  20308598.7904   20308602.1144
       237.0004        212.0004
  21154494.6434     -50571.77049    -44566.23647  21154494.5984   21154496.2474
       244.0004        206.0004
  24083661.7914     157344.94149    109734.99645  24083660.7294   24083666.7774
       209.0004        132.0004
  22565432.8694     -88961.39249    -73827.65946  22565431.8574   22565434.9514
       228.0004        184.0004
  23051471.5004     277166.73749    203564.19346  23051471.1594   23051474.0654
       221.0004        165.0004
  23373891.6774     389003.21849    289653.92146  23373891.0824   23373897.1104
       219.0004        163.0004
  23449176.1724   -1231863.66449   -950127.72846  23449176.1634   23449180.6474
       219.0004        163.0004
 07  2 18  1  8 35.0000000  0  8G 1G14G22G21G19G18G 3G31
  21895898.2884    -985619.89149   -601678.27847  21895898.1354   21895903.3174
       235.0004        189.0004
  20308899.7934    -219356.16649   -197465.11547  20308899.5114   20308902.9254
       238.0004        212.0004
  21155305.0244     -46313.23549    -41247.89647  21155305.0274   21155307.0694
       244.0004        206.0004
  24087063.4214     175220.64649    123664.10845  24087062.6544   24087068.6524
       210.0004        133.0004
  22566171.5534     -85079.52849    -70802.82346  22566170.4254   22566173.8634
       230.0004        184.0004
  23053341.0034     286990.99449    211219.46146  23053340.4544   23053344.0834
       225.0004        165.0004
  23376147.5434     400857.77549    298891.23845  23376147.7704   23376153.4374
       220.0004        162.0004
  23445954.7394   -1248792.42949   -963318.96446  23445955.0734   23445959.6894
       219.0004        164.0004
 07  2 18  1  8 40.0000000  0  8G 1G14G22G21G19G18G 3G31
  21893753.4954    -996890.71149   -610460.72947  21893753.0004   21893758.3374
       235.0004        190.0004
  20309202.8844    -217763.38649   -196223.98147  20309202.2424   20309206.0354
       237.0004        212.0004
  21156116.1654     -42050.63849    -37926.38947  21156115.9364   21156118.0014
       244.0004        206.0004
  24090466.0044     193101.11649    137596.93145  24090465.3884   24090470.5824
       210.0004        134.0004
  22566912.8664     -81183.94249    -67767.29446  22566911.3324   22566915.0174
       228.0004        184.0004
  23055211.0714     296818.10449    218876.95346  23055210.5304   23055213.2454
       223.0004        165.0004
  23378404.4584     412717.90449    308132.89045  23378403.6784   23378409.5974
       219.0004        162.0004
  23442733.7004   -1265718.99149   -976508.47846  23442733.6534   23442738.4994
       217.0004        164.0004
 07  2 18  1  8 45.0000000  0  8G 1G14G22G21G19G18G 3G31
  21891610.7824   -1008150.83649   -619234.84847  21891610.1144   21891615.5824
       235.0004        190.0004
  20309508.4414    -216157.64349   -194972.75347  20309507.7604   20309511.5954
       238.0004        212.0004
  21156928.2584     -37783.19149    -34601.10647  21156927.9244   21156929.8614
       245.0004        206.0004
  24093869.6134     210987.08849    151534.04945  24093870.0414   24093874.0374
       210.0004        135.0004
  22567656.9054     -77273.87549    -64720.49346  22567655.5374   22567659.8884
       228.0004        184.0004
  23057081.8224     306648.92349    226537.32946  23057081.6844   23057084.7734
       224.0004        165.0004
  23380662.5914     424584.50549    317379.59545  23380661.2954   23380667.5844
       219.0004        161.0004
  23439513.2404   -1282642.51049   -989695.62046  23439512.9534   23439518.2924
       218.0004        164.0004
 07  2 18  1  8 50.0000000  0  8G 1G14G22G21G19G18G 3G31
  21889469.9064   -1019401.44849   -628001.55247  21889469.2364   21889474.2734
       235.0004        190.0004
  20309816.2334    -214540.14249   -193712.36147  20309815.7374   20309819.1794
       238.0004        212.0004
  21157741.0124     -33512.09449    -31272.97847  21157740.5414   21157742.7114
       245.0004        206.0004
  24097274.0684     228877.39249    165474.54745  24097273.9744   24097278.6664
       210.0004        135.0004
  22568403.4714     -73350.50249    -61663.31746  22568402.4404   22568405.7784
       228.0004        184.0004
  23058953.0364     316482.19649    234199.62846  23058951.9704   23058955.9714
       223.0004        165.0004
  23382921.7164     436456.25249    326630.30645  23382920.9514   23382926.5254
       219.0004        161.0004
  23436293.1144   -1299564.25849  -1002881.37646  23436292.8224   23436298.0244
       218.0004        165.0004
 07  2 18  1  8 55.0000000  0  8G 1G14G22G21G19G18G 3G31
  21887330.9824   -1030641.57049   -636760.07847  21887330.3374   21887335.7274
       233.0004        190.0004
  20310126.4714    -212909.91649   -192442.04747  20310125.6934   20310129.4054
       237.0004        212.0004
  21158554.6884     -29236.33849    -27941.21547  21158554.3884   21158556.3274
       243.0004        206.0004
  24100679.5244     246772.99249    179419.16545  24100679.0174   24100683.7124
       207.0004        134.0004
  22569152.7734     -69412.82549    -58594.99646  22569150.8724   22569155.3494
       227.0004        184.0004
  23060824.9394     326318.96049    241864.64046  23060824.4734   23060828.0334
       222.0004        165.0004
  23385181.9954     448334.11549    335885.78545  23385181.0264   23385187.0234
       217.0004        160.0004
  23433073.5204   -1316483.16149  -1016064.91346  23433073.2914   23433078.5804
       217.0004        165.0004
 07  2 18  1  9  0.0000000  0  8G 1G14G22G21G19G18G 3G31
  21885193.9934   -1041871.50649   -645510.67447  21885193.1164   21885198.8424
       234.0004        190.0004
  20310439.0704    -211267.25049   -191162.05247  20310438.3464   20310442.0644
       236.0004        212.0004
  21159369.1524     -24956.28949    -24606.11647  21159368.8644   21159370.7934
       244.0004        206.0004
  24104085.9124     264673.58549    193367.67645  24104084.4804   24104090.9944
       207.0004        133.0004
  22569904.7014     -65461.20849    -55515.81446  22569903.8014   22569907.8224
       228.0004        184.0004
  23062697.4194     336158.87549    249532.09246  23062697.2174   23062699.8074
       222.0004        165.0004
  23387443.3494     460217.77049    345145.76045  23387443.2304   23387447.9554
       217.0004        160.0004
  23429854.4154   -1333399.48049  -1029246.44546  23429854.4794   23429859.3474
       217.0004        165.0004
 07  2 18  1  9  5.0000000  0  8G 1G14G22G21G19G18G 3G31
  21883058.8034   -1053091.82749   -654253.77347  21883058.5644   21883063.8164
       235.0004        190.0004
  20310753.9114    -209612.77849   -189872.85447  20310753.4884   20310757.2434
       238.0004        212.0004
  21160184.3214     -20672.53049    -21268.12347  21160184.4794   21160186.1304
       245.0004        206.0004
  24107493.1374     282578.53549    207319.58445  24107493.0004   24107496.7964
       209.0004        133.0004
  22570659.1954     -61496.25949    -52426.24646  22570658.5284   22570662.1254
       229.0004        184.0004
  23064570.3764     346001.30749    257201.53046  23064569.7514   23064574.8544
       223.0004        165.0004
  23389705.7084     472106.55949    354409.75645  23389705.9444   23389711.1054
       219.0004        160.0004
  23426635.6954   -1350313.82249  -1042426.43546  23426635.9074   23426640.4634
       220.0004        165.0004
 07  2 18  1  9 10.0000000  0  8G 1G14G22G21G19G18G 3G31
  21880925.5654   -1064302.09049   -662989.04447  21880925.3014   21880930.2574
       234.0004        190.0004
  20311071.0564    -207946.06249   -188574.11447  20311070.5784   20311074.0414
       237.0004        212.0004
  21161000.2984     -16384.58749    -17926.86947  21161000.3944   21161002.1864
       243.0004        206.0004
  24110901.2724     300488.30949    221275.25945  24110900.1714   24110902.9854
       208.0004        133.0004
  22571416.3284     -57517.50049    -49325.91946  22571415.4444   22571419.5214
       228.0004        184.0004
  23066443.9114     355846.70549    264873.24646  23066442.6444   23066447.6204
       220.0004        165.0004
  23391969.1774     484001.09249    363678.22845  23391969.2874   23391974.6044
       218.0004        160.0004
  23423417.4484   -1367225.70349  -1055604.50946  23423417.3364   23423422.1604
       218.0004        165.0004
 07  2 18  1  9 15.0000000  0  8G 1G14G22G21G19G18G 3G31
  21878794.2374   -1075502.26649   -671716.44447  21878793.9264   21878799.5264
       233.0004        190.0004
  20311390.5674    -206267.03049   -187265.77347  20311390.0074   20311393.8544
       236.0004        212.0004
  21161817.0814     -12092.43949    -14582.33747  21161816.9694   21161819.0474
       243.0004        206.0004
  24114310.3414     318402.94149    235234.72045  24114309.1714   24114313.2934
       210.0004        132.0004
  22572176.0684     -53524.96149    -46214.85146  22572175.0884   22572178.5674
       228.0004        184.0004
  23068317.9934     365695.15349    272547.36446  23068317.9664   23068321.1394
       221.0004        165.0004
  23394233.7124     495901.28749    372951.09845  23394234.0094   23394239.5024
       220.0004        160.0004
  23420199.7004   -1384135.09749  -1068780.64446  23420199.1544   23420203.7814
       218.0004        165.0004
 07  2 18  1  9 20.0000000  0  8G 1G14G22G21G19G18G 3G31
  21876664.8364   -1086692.22949   -680435.89147  21876664.5904   21876669.9344
       234.0004        190.0004
  20311712.4454    -204575.59949   -185947.77447  20311712.0444   20311715.5974
       237.0004        212.0004
  21162634.6754      -7795.96849    -11234.43647  21162634.5334   21162636.6304
       243.0004        206.0004
  24117720.3464     336322.50449    249198.01945  24117717.7514   24117724.0654
       211.0004        133.0004
  22572938.4784     -49518.50649    -43092.93346  22572937.8504   22572941.0994
       228.0004        184.0004
  23070192.6834     375546.69849    280223.89846  23070192.1184   23070195.7024
       220.0004        165.0004
  23396499.3374     507807.23849    382228.47245  23396498.7914   23396504.4034
       219.0004        160.0004
  23416982.4734   -1401041.87349  -1081954.74146  23416982.2614   23416986.9794
       219.0004        165.0004
 07  2 18  1  9 25.0000000  0  8G 1G14G22G21G19G18G 3G31
  21874537.3624   -1097872.32249   -689147.63947  21874536.8434   21874542.1474
       234.0004        190.0004
  20312036.6054    -202872.12149   -184620.38447  20312035.9704   20312039.7624
       237.0004        212.0004
  21163453.0314      -3495.48849     -7883.40747  21163452.7574   21163454.9094
       244.0004        206.0004
  24121131.2314     354246.66249    263164.89445  24121130.1394   24121134.6954
       212.0004        133.0004
  22573703.4954     -45498.48449    -39960.45046  22573702.8014   22573705.8954
       228.0004        184.0004
  23072067.9074     385401.07549    287902.62946  23072067.3204   23072071.5634
       221.0004        164.0004
  23398766.0014     519718.54649    391510.00345  23398765.8814   23398770.6994
       220.0004        160.0004
  23413765.6414   -1417946.33049  -1095127.02846  23413765.7574   23413770.3044
       219.0004        165.0004
 07  2 18  1  9 30.0000000  0  8G 1G14G22G21G19G18G 3G31
  21872411.8084   -1109042.12849   -697851.38447  21872411.4954   21872416.5574
       234.0004        190.0004
  20312363.1354    -201156.17949   -183283.28747  20312362.7144   20312366.4214
       237.0004        212.0004
  21164272.2254        809.36549     -4528.98147  21164272.3594   21164274.4224
       243.0004        206.0004
  24124543.0684     372175.80649    277135.65245  24124542.4374   24124546.2994
       213.0004        135.0004
  22574471.1444     -41464.47549    -36817.06546  22574470.1504   22574473.4564
       228.0004        184.0004
  23073943.7454     395258.65949    295583.85846  23073943.2714   23073946.3734
       220.0004        164.0004
  23401033.7644     531635.63949    400796.04645  23401033.6624   23401038.9574
       219.0004        161.0004
  23410549.3284   -1434848.06749  -1108297.19946  23410549.2844   23410553.8054
       218.0004        165.0004
 07  2 18  1  9 35.0000000  0  8G 1G14G22G21G19G18G 3G31
  21870288.0344   -1120202.70649   -706547.92547  21870287.4654   21870292.9194
       235.0004        191.0004
  20312691.8264    -199428.84749   -181937.31147  20312691.2264   20312694.8884
       238.0004        212.0004
  21165092.0474       5117.54349     -1171.95447  21165091.7224   21165093.9664
       245.0004        206.0004
  24127955.6634     390108.89349    291109.48545  24127955.6344   24127959.4554
       214.0004        136.0004
  22575241.2764     -37417.54149    -33663.60946  22575240.3464   22575243.7874
       229.0004        184.0004
  23075819.9694     405118.35549    303266.74146  23075818.9534   23075823.1234
       222.0004        164.0004
  23403302.4514     543557.55949    410085.85045  23403302.1614   23403308.5214
       220.0004        161.0004
  23407333.3234   -1451748.15749  -1121466.08446  23407332.7814   23407338.1544
       219.0004        166.0004
 07  2 18  1  9 40.0000000  0  8G 1G14G22G21G19G18G 3G31
  21868166.5274   -1131351.43749   -715235.24047  21868166.0444   21868171.7424
       234.0004        191.0004
  20313023.1844    -197687.52449   -180580.43547  20313022.8574   20313026.2124
       237.0004        212.0004
  21165912.9884       9431.67949      2189.70647  21165913.0334   21165914.9084
       243.0004        206.0004
  24131369.5044     408048.54649    305088.43945  24131368.7414   24131373.0044
       212.0004        137.0004
  22576014.3324     -33355.10449    -30498.07946  22576013.2414   22576016.7164
       227.0004        184.0004
  23077697.0984     414982.80149    310953.32546  23077697.9624   23077700.6304
       222.0004        164.0004
  23405572.5644     555486.78449    419381.34145  23405571.4404   23405577.3124
       219.0004        160.0004
  23404118.1424   -1468643.98049  -1134631.64446  23404118.0464   23404122.9124
       217.0004        166.0004
 07  2 18  1  9 45.0000000  0  8G 1G14G22G21G19G18G 3G31
  21866046.6924   -1142491.25849   -723915.61447  21866046.1214   21866051.4084
       234.0004        191.0004
  20313356.6674    -195935.14649   -179214.93647  20313355.9564   20313359.7324
       237.0004        212.0004
  21166734.5314      13748.83849      5553.73647  21166734.2854   21166736.0494
       243.0004        206.0004
  24134784.0244     425991.77749    319070.17645  24134783.4374   24134787.8004
       212.0004        137.0004
  22576789.7874     -29280.11649    -27322.75946  22576788.7144   22576791.6464
       228.0004        184.0004
  23079574.5984     424849.12149    318641.36746  23079573.3444   23079577.6264
       220.0004        163.0004
  23407843.4534     567420.39649    428680.26445  23407842.4884   23407848.4904
       217.0004        160.0004
  23400903.2084   -1485538.42849  -1147796.13046  23400903.1024   23400908.0524
       218.0004        166.0004
 07  2 18  1  9 50.0000000  0  8G 1G14G22G21G19G18G 3G31
  21863928.8924   -1153620.45049   -732587.70847  21863928.3874   21863933.6014
       234.0004        191.0004
  20313692.5564    -194170.01949   -177839.51847  20313692.1744   20313695.6294
       237.0004        212.0004
  21167556.9484      18070.74049      8921.44647  21167556.9154   21167558.7334
       243.0004        206.0004
  24138199.5524     443940.27149    333056.01045  24138199.9324   24138203.2904
       210.0004        137.0004
  22577567.9394     -25190.87249    -24136.34446  22577567.1564   22577570.4714
       228.0004        184.0004
  23081452.7484     434718.95649    326332.13346  23081452.5334   23081455.2154
       220.0004        163.0004
  23410115.5004     579360.04849    437983.87245  23410114.1954   23410119.8754
       217.0004        160.0004
  23397688.8414   -1502429.78449  -1160958.21346  23397689.1774   23397694.2524
       219.0004        166.0004
 07  2 18  1  9 55.0000000  0  8G 1G14G22G21G19G18G 3G31
  21861812.8354   -1164740.32449   -741252.54247  21861812.1224   21861817.9884
       234.0004        191.0004
  20314030.6254    -192393.46549   -176455.19047  20314030.2494   20314033.9344
       237.0004        212.0004
  21168380.0454      22396.06749     12291.83147  21168380.0254   21168381.9324
       244.0004        206.0004
  24141615.8424     461892.71549    347044.92445  24141615.1684   24141619.5014
       210.0004        136.0004
  22578348.5534     -21088.67549    -20939.82446  22578347.8754   22578351.0284
       229.0004        184.0004
  23083331.3144     444590.98749    334024.64146  23083331.0624   23083334.0144
       220.0004        163.0004
  23412388.4204     591304.45549    447291.20045  23412387.4614   23412393.2994
       217.0004        159.0004
  23394474.8484   -1519319.34049  -1174118.88546  23394474.6524   23394479.9354
       219.0004        167.0004
 07  2 18  1 10  0.0000000  0  8G 1G14G22G21G19G18G 3G31
  21859698.8974   -1175849.11049   -749908.73247  21859698.4064   21859704.1224
       234.0004        191.0004
  20314371.2124    -190603.71249   -175060.57647  20314370.6344   20314374.3324
       237.0004        212.0004
  21169204.1114      26726.57449     15666.25347  21169203.9454   21169205.6594
       244.0004        206.0004
  24145033.2004     479850.88749    361038.29245  24145031.3934   24145036.7174
       209.0004        134.0004
  22579131.9764     -16971.79749    -17731.86846  22579131.5034   22579134.2824
       228.0004        184.0004
  23085210.6674     454467.05149    341720.25746  23085210.1024   23085213.3664
       222.0004        163.0004
  23414662.5854     603255.33949    456603.57445  23414661.0274   23414667.2774
       219.0004        159.0004
  23391261.5614   -1536205.32449  -1187276.77946  23391261.8364   23391266.9004
       219.0004        167.0004
 07  2 18  1 10  5.0000000  0  8G 1G14G22G21G19G18G 3G31
  21857586.8094   -1186948.21549   -758557.37147  21857586.0384   21857591.6054
       234.0004        191.0004
  20314714.0154    -188802.16149   -173656.76547  20314713.5064   20314717.2414
       237.0004        212.0004
  21170028.8814      31060.87049     19043.63247  21170028.7344   21170030.8424
       244.0004        206.0004
  24148451.3294     497813.35449    375035.02345  24148448.6974   24148454.5144
       210.0004        133.0004
  22579917.9134     -12841.60249    -14513.52946  22579917.1094   22579920.3114
       228.0004        184.0004
  23087090.4984     464345.71449    349417.93846  23087090.1304   23087093.5654
       221.0004        163.0004
  23416937.6924     615211.26449    465919.88045  23416937.1124   23416941.9024
       218.0004        159.0004
  23388048.6574   -1553089.15849  -1200432.98446  23388048.4214   23388053.0544
       219.0004        167.0004
 07  2 18  1 10 10.0000000  0  8G 1G14G22G21G19G18G 3G31
  21855476.4964   -1198037.75149   -767198.56147  21855475.8894   21855481.4814
       235.0004        191.0004
  20315059.0694    -186988.96549   -172243.87947  20315058.4784   20315062.0784
       237.0004        212.0004
  21170854.3724      35398.78649     22423.82947  21170854.1534   21170856.0224
       244.0004        206.0004
  24151870.2394     515780.01549    389035.02445  24151869.3594   24151872.4444
       210.0004        132.0004
  22580706.3874      -8698.23649    -11284.92846  22580705.5634   22580709.1784
       228.0004        184.0004
  23088970.8344     474226.86849    357117.53246  23088970.1594   23088974.8564
       223.0004        164.0004
  23419213.7614     627172.15349    475240.05345  23419212.4474   23419217.9014
       218.0004        158.0004
  23384836.1484   -1569970.93949  -1213587.59646  23384835.6654   23384840.8834
       219.0004        167.0004
 07  2 18  1 10 15.0000000  0  8G 1G14G22G21G19G18G 3G31
  21853368.3244   -1209116.30549   -775831.20247  21853367.8384   21853372.8334
       235.0004        191.0004
  20315406.5854    -185162.68549   -170820.80647  20315406.1774   20315409.5644
       238.0004        212.0004
  21171680.8224      39741.77149     25807.97047  21171680.7104   21171682.5984
       244.0004        206.0004
  24155290.1954     533752.24849    403039.36944  24155286.9934   24155291.2114
       210.0004        131.0004
  22581497.6214      -4540.26149     -8044.95746  22581496.4754   22581499.7694
       229.0004        184.0004
  23090851.8784     484111.86449    364820.12546  23090851.5664   23090854.2594
       222.0004        164.0004
  23421491.0574     639139.38749    484565.16745  23421491.0194   23421496.4504
       219.0004        158.0004
  23381624.3254   -1586849.23649  -1226739.50246  23381624.2584   23381628.8154
       219.0004        167.0004
 07  2 18  1 10 20.0000000  0  8G 1G14G22G21G19G18G 3G31
  21851262.0714   -1220184.67049   -784455.89347  21851261.6464   21851267.3844
       233.0004        191.0004
  20315756.4624    -183324.12849   -169388.16647  20315756.0054   20315759.5094
       237.0004        212.0004
  21172508.1114      44089.05349     29195.46347  21172507.5984   21172509.8544
       242.0004        206.0004
  24158711.0544     551729.27049    417047.44644  24158708.0744   24158713.7934
       209.0004        131.0004
  22582291.4844       -368.47749     -4794.21146  22582290.8354   22582293.9804
       228.0004        184.0004
  23092733.5354     493999.93249    372525.12046  23092731.7444   23092736.4284
       222.0004        164.0004
  23423769.3974     651112.15449    493894.59745  23423768.5724   23423773.3734
       219.0004        158.0004
  23378412.9994   -1603724.79549  -1239889.27346  23378413.3014   23378417.3174
       220.0004        167.0004
 07  2 18  1 10 25.0000000  0  8G 1G14G22G21G19G18G 3G31
  21849157.6194   -1231243.50949   -793073.16847  21849157.0734   21849162.6134
       233.0004        191.0004
  20316108.5334    -181474.01249   -167946.51647  20316108.1414   20316111.6174
       236.0004        212.0004
  21173336.0544      48439.97149     32585.78747  21173335.8054   21173337.9064
       243.0004        206.0004
  24162132.6734     569710.41849    431058.74444  24162129.8464   24162135.3624
       209.0004        130.0004
  22583087.8674       3816.40649     -1533.26846  22583087.5944   22583090.6074
       228.0004        184.0004
  23094615.6474     503890.42849    380231.99646  23094615.5204   23094619.2464
       221.0004        164.0004
  23426048.6954     663089.78649    503227.81145  23426049.1244   23426053.5524
       218.0004        158.0004
  23375202.0984   -1620598.32149  -1253037.46146  23375202.4944   23375206.5514
       220.0004        167.0004
 07  2 18  1 10 30.0000000  0  8G 1G14G22G21G19G18G 3G31
  21847055.1684   -1242291.89449   -801682.28747  21847054.5994   21847060.0674
       234.0004        191.0004
  20316462.9794    -179611.40149   -166495.12947  20316462.5264   20316466.0094
       238.0004        212.0004
  21174164.8764      52795.41849     35979.64547  21174164.4314   21174166.6224
       244.0004        206.0004
  24165555.2704     587696.60249    445073.96844  24165553.4454   24165558.3364
       209.0004        129.0004
  22583886.9044       8015.31149      1738.60946  22583886.6314   22583889.4654
       229.0004        184.0004
  23096498.3924     513784.28249    387941.49246  23096497.7374   23096501.4894
       223.0004        164.0004
  23428329.0584     675073.20549    512565.54245  23428328.3564   23428334.6924
       221.0004        158.0004
  23371991.7374   -1637468.82549  -1266183.28746  23371991.7774   23371996.2904
       221.0004        168.0004
 07  2 18  1 10 35.0000000  0  8G 1G14G22G21G19G18G 3G31
  21844954.6644   -1253330.15249   -810283.52347  21844954.5534   21844959.4204
       233.0004        191.0004
  20316819.7324    -177736.59849   -165034.24347  20316819.2794   20316822.9454
       237.0004        212.0004
  21174994.4904      57155.11649     39376.81347  21174993.9574   21174996.3904
       243.0004        206.0004
  24168978.7664     605687.42849    459092.80544  24168977.1654   24168982.0494
       209.0004        129.0004
  22584688.5644      12227.88049      5021.12646  22584687.7664   22584691.6244
       229.0004        184.0004
  23098381.7074     523681.13949    395653.33046  23098380.4644   23098385.1914
       220.0004        164.0004
  23430610.4844     687062.05549    521907.50945  23430610.1364   23430615.5724
       219.0004        159.0004
  23368781.9164   -1654336.65849  -1279327.03946  23368781.3894   23368786.5794
       219.0004        168.0004
 07  2 18  1 10 40.0000000  0  8G 1G14G22G21G19G18G 3G31
  21842855.9384   -1264358.89149   -818877.33647  21842855.4064   21842861.0854
       236.0004        191.0004
  20317178.6854    -175850.22449   -163564.33247  20317178.2204   20317181.8764
       238.0004        212.0004
  21175824.7924      61518.40549     42776.78847  21175824.3524   21175826.4674
       244.0004        206.0004
  24172403.0274     623682.26749    473114.77144  24172402.1444   24172407.2824
       210.0004        129.0004
  22585492.6714      16453.49949      8313.82646  22585491.5104   22585494.7704
       229.0004        184.0004
  23100265.4564     533580.41049    403367.04846  23100264.7794   23100269.2334
       223.0004        164.0004
  23432892.8244     699055.76649    531253.25645  23432893.4454   23432897.8644
       221.0004        159.0004
  23365572.4864   -1671202.38749  -1292469.14146  23365572.3514   23365576.6684
       220.0004        168.0004
 07  2 18  1 10 45.0000000  0  8G 1G14G22G21G19G18G 3G31
  21840759.3664   -1275376.45549   -827462.45547  21840759.1674   21840764.2804
       235.0004        191.0004
  20317540.1744    -173950.64249   -162084.14547  20317539.8904   20317543.5234
       236.0004        212.0004
  21176656.0874      65886.93449     46180.82747  21176655.7064   21176657.8144
       243.0004        206.0004
  24175828.4064     641682.80649    487141.17244  24175827.6934   24175832.9774
       209.0004        129.0004
  22586299.5954      20693.81749     11617.95546  22586299.1204   22586302.1964
       228.0004        184.0004
  23102149.9734     543483.74349    411083.92746  23102149.2154   23102153.5544
       223.0004        164.0004
  23435176.3694     711055.85949    540603.97545  23435176.3954   23435181.7604
       219.0004        160.0004
  23362363.7544   -1688064.33549  -1305608.30446  23362363.4324   23362367.7244
       220.0004        168.0004
 07  2 18  1 10 50.0000000  0  8G 1G14G22G21G19G18G 3G31
  21838664.6974   -1286384.17749   -836039.88247  21838664.1874   21838669.1354
       235.0004        191.0004
  20317903.8884    -172039.18449   -160594.69147  20317903.2384   20317906.9254
       237.0004        212.0004
  21177488.1174      70259.36649     49587.92447  21177487.6904   21177490.0024
       243.0004        206.0004
  24179254.6514     659687.75249    501170.99944  24179253.2114   24179257.3174
       209.0004        129.0004
  22587109.0484      24947.52549     14932.54246  22587107.9014   22587111.5464
       229.0004        184.0004
  23104035.0294     553389.80449    418802.94546  23104034.8204   23104037.7244
       222.0004        164.0004
  23437460.9454     723061.15249    549958.74645  23437459.9744   23437466.4544
       219.0004        160.0004
  23359155.4864   -1704923.88249  -1318745.59946  23359155.8634   23359159.5304
       220.0004        168.0004
 07  2 18  1 10 55.0000000  0  8G 1G14G22G21G19G18G 3G31
  21836571.9514   -1297381.67149   -844609.35947  21836571.7564   21836577.0264
       233.0004        191.0004
  20318269.9474    -170115.49849   -159095.71747  20318269.4654   20318272.9814
       237.0004        212.0004
  21178320.9914      74636.09349     52998.36047  21178320.6044   21178322.7224
       243.0004        206.0004
  24182681.7624     677697.41949    515204.50044  24182681.4284   24182685.1204
       211.0004        130.0004
  22587921.1294      29214.98849     18257.83846  22587920.2184   22587923.8394
       228.0004        184.0004
  23105920.6924     563299.02949    426524.41546  23105920.1844   23105925.0824
       222.0004        165.0004
  23439746.5294     735072.01949    559317.85945  23439745.9224   23439752.4864
       219.0004        160.0004
  23355947.7744   -1721780.58149  -1331880.67946  23355948.4134   23355951.6174
       220.0004        168.0004
 07  2 18  1 11  0.0000000  0  8G 1G14G22G21G19G18G 3G31
  21834481.0954   -1308369.30249   -853171.13647  21834480.6144   21834486.2644
       236.0004        191.0004
  20318638.2914    -168179.95449   -157587.49647  20318637.9404   20318641.5714
       238.0004        212.0004
  21179154.5844      79016.76349     56411.87447  21179154.2674   21179156.3584
       244.0004        206.0004
  24186109.7184     695711.46949    529241.41844  24186109.6454   24186114.0164
       212.0004        130.0004
  22588735.7424      33495.83649     21593.57146  22588734.4854   22588738.3004
       229.0004        184.0004
  23107806.8984     573211.03649    434248.06146  23107805.9994   23107810.7954
       223.0004        165.0004
  23442033.0824     747087.91449    568680.89445  23442032.0194   23442039.2374
       218.0004        160.0004
  23352740.5284   -1738634.80549  -1345013.81846  23352740.8744   23352744.9764
       221.0004        168.0004
 07  2 18  1 11  5.0000000  0  8G 1G14G22G21G19G18G 3G31
  21832392.1664   -1319346.78249   -861725.00547  21832391.4804   21832397.1694
       237.0004        192.0004
  20319008.9334    -166232.28549   -156069.82647  20319008.5434   20319011.9494
       239.0004        212.0004
  21179989.0094      83401.63649     59828.66547  21179988.5594   21179990.7674
       244.0004        206.0004
  24189538.5554     713730.16449    543281.96144  24189538.3114   24189542.6994
       213.0004        131.0004
  22589552.9464      37790.31749     24939.91546  22589552.4084   22589555.1214
       230.0004        184.0004
  23109693.6424     583126.07549    441974.06046  23109692.2934   23109697.1244
       223.0004        165.0004
  23444320.6174     759109.08849    578048.04945  23444319.5854   23444326.4114
       220.0004        160.0004
  23349533.8024   -1755486.26949  -1358144.81046  23349533.9044   23349538.0014
       221.0004        168.0004
 07  2 18  1 11 10.0000000  0  8G 1G14G22G21G19G18G 3G31
  21830305.1524   -1330314.11449   -870270.97647  21830304.5954   21830310.1304
       235.0004        192.0004
  20319381.8564    -164272.50249   -154542.72947  20319381.4254   20319385.0574
       237.0004        212.0004
  21180824.2174      87790.72749     63248.72847  21180824.0814   21180826.1374
       243.0004        206.0004
  24192968.2354     731753.44549    557326.08345  24192968.3274   24192973.9274
       213.0004        132.0004
  22590372.7584      42098.41349     28296.86146  22590371.9814   22590375.2154
       228.0004        184.0004
  23111580.9794     593044.11249    449702.39946  23111581.3754   23111584.1514
       221.0004        165.0004
  23446609.1654     771135.57549    587419.33345  23446609.0104   23446614.8514
       218.0004        160.0004
  23346327.5894   -1772334.96249  -1371273.64846  23346327.5344   23346332.4374
       220.0004        168.0004
 07  2 18  1 11 15.0000000  0  8G 1G14G22G21G19G18G 3G31
  21828220.1944   -1341270.74749   -878808.60947  21828219.8684   21828225.3344
       236.0004        192.0004
  20319757.2134    -162300.07549   -153005.77047  20319756.5854   20319760.2864
       238.0004        212.0004
  21181660.3364      92184.58149     66672.51147  21181659.8424   21181662.3304
       243.0004        206.0004
  24196398.9424     749781.89249    571374.23345  24196399.9014   24196402.9884
       214.0004        132.0004
  22591195.2644      46420.65649     31664.85246  22591194.4624   22591197.9684
       229.0004        184.0004
  23113469.0234     602965.73549    457433.52646  23113467.8494   23113471.7794
       223.0004        165.0004
  23448898.7864     783167.84049    596795.11945  23448898.6754   23448903.6804
       220.0004        160.0004
  23343122.0024   -1789180.34449  -1384399.90046  23343122.5434   23343126.3804
       220.0004        168.0004
 07  2 18  1 11 20.0000000  0  8G 1G14G22G21G19G18G 3G31
  21826137.0724   -1352217.67049   -887338.66847  21826137.1504   21826141.7484
       236.0004        192.0004
  20320134.7724    -160315.97149   -151459.70847  20320134.2644   20320137.6764
       238.0004        212.0004
  21182497.1684      96582.17049     70099.21247  21182496.8034   21182498.9684
       243.0004        205.0004
  24199830.4254     767814.48749    585425.62245  24199830.1564   24199832.9084
       213.0004        133.0004
  22592020.2764      50756.07449     35043.10446  22592019.5504   22592022.5944
       228.0004        184.0004
  23115357.5204     612889.94349    465166.68446  23115357.5014   23115360.5804
       224.0004        165.0004
  23451189.3554     795204.95849    606174.68145  23451188.5204   23451195.6014
       220.0004        160.0004
  23339916.8824   -1806023.36549  -1397524.32046  23339916.8324   23339921.1554
       221.0004        168.0004
 07  2 18  1 11 25.0000000  0  8G 1G14G22G21G19G18G 3G31
  21824055.9244   -1363154.24549   -895860.67347  21824055.5114   21824060.7224
       235.0004        192.0004
  20320514.6654    -158319.57649   -149904.07947  20320514.1614   20320517.9724
       237.0004        212.0004
  21183334.8184     100984.16449     73529.33347  21183334.4234   21183336.6224
       243.0004        205.0004
  24203262.8074     785851.88249    599480.74845  24203262.0904   24203265.0424
       213.0004        134.0004
  22592847.9084      55105.28149     38432.09346  22592846.4984   22592850.8954
       229.0004        184.0004
  23117246.6964     622817.41349    472902.37246  23117245.9844   23117249.3544
       222.0004        165.0004
  23453481.0064     807247.60449    615558.56545  23453480.8534   23453486.9514
       219.0004        160.0004
  23336712.3204   -1822863.37549  -1410646.38746  23336712.2604   23336716.5144
       219.0004        168.0004
 07  2 18  1 11 30.0000000  0  8G 1G14G22G21G19G18G 3G31
  21821976.6704   -1374080.80549   -904374.86447  21821976.0604   21821981.2784
       235.0004        192.0004
  20320896.8474    -156311.23849   -148339.13347  20320896.3964   20320899.9204
       238.0004        212.0004
  21184173.2574     105390.25449     76962.65147  21184173.0624   21184175.1594
       244.0004        205.0004
  24206696.0494     803893.68649    613539.30845  24206695.1344   24206699.2014
       214.0004        134.0004
  22593678.1024      59467.94249     41831.57246  22593677.1934   22593680.9374
       229.0004        184.0004
  23119136.3644     632747.77449    480640.32546  23119135.6354   23119140.0134
       223.0004        165.0004
  23455773.6384     819295.43549    624946.47445  23455773.5164   23455780.5714
       220.0004        160.0004
  23333508.2754   -1839700.74149  -1423766.39846  23333508.3784   23333512.7654
       220.0004        168.0004
 07  2 18  1 11 35.0000000  0  9G 1G14G22G21G19G18G 3G31G11
  21819899.2194   -1384997.87949   -912881.68047  21819898.6194   21819903.8894
       235.0004        192.0004
  20321281.2024    -154291.48049   -146765.30247  20321280.6704   20321284.2204
       237.0004        212.0004
  21185012.3824     109799.87449     80398.71847  21185012.1814   21185014.3404
       244.0004        205.0004
  24210129.9974     821939.34749    627600.86845  24210128.8974   24210133.1834
       214.0004        135.0004
  22594510.7304      63843.50849     45241.10446  22594509.8664   22594513.4174
       228.0004        184.0004
  23121026.5014     642680.42049    488380.04046  23121026.5164   23121030.0704
       221.0004        164.0004
  23458067.1694     831347.86049    634337.96945  23458066.1494   23458071.8854
       219.0004        160.0004
  23330304.6274   -1856535.91649  -1436884.69446  23330304.7064   23330308.8074
       220.0004        169.0004
  24587376.1884   -1290925.88859   -982695.63145  24587375.1344   24587380.9224
       206.0004        134.0004
 07  2 18  1 11 40.0000000  0  9G 1G14G22G21G19G18G 3G31G11
  21817823.3834   -1395906.33849   -921381.76147  21817822.4964   21817828.5654
       234.0004        192.0004
  20321667.5434    -152261.19149   -145183.25047  20321666.9534   20321670.4694
       236.0004        212.0004
  21185851.9854     114212.15249     83836.86147  21185851.6004   21185853.7194
       243.0004        205.0004
  24213564.4964     839987.99949    641664.75745  24213563.6494   24213569.0494
       213.0004        136.0004
  22595345.6814      68231.08849     48660.00046  22595344.3694   22595348.2954
       228.0004        184.0004
  23122916.8764     652614.46749    496120.86846  23122915.5694   23122919.8984
       222.0004        164.0004
  23460361.3964     843404.01649    643732.37945  23460361.1204   23460366.3174
       220.0004        160.0004
  23327101.2384   -1873369.76749  -1450001.95746  23327101.6644   23327105.8554
       220.0004        169.0004
  24584300.4494   -1307088.95549   -995290.21345  24584300.1034   24584305.1064
       205.0004        135.0004
 07  2 18  1 11 45.0000000  0  9G 1G14G22G21G19G18G 3G31G11
  21815749.7214   -1406803.38849   -929872.97147  21815749.1614   21815754.6884
       235.0004        192.0004
  20322056.4424    -150217.56449   -143590.81647  20322055.9334   20322059.5894
       237.0004        212.0004
  21186692.6654     118629.90549     87279.26347  21186692.4584   21186694.6074
       243.0004        206.0004
  24217000.1584     858042.44349    655733.15745  24216999.2404   24217004.3314
       213.0004        137.0004
  22596183.4104      72633.47649     52090.42146  22596182.1994   22596185.9174
       228.0004        184.0004
  23124808.0824     662552.80449    503865.01346  23124807.4394   23124811.0534
       221.0004        164.0004
  23462656.8454     855466.61249    653131.79345  23462656.8114   23462663.2834
       220.0004        160.0004
  23323898.6664   -1890199.49749  -1463116.02046  23323899.1014   23323902.7464
       222.0004        169.0004
  24581225.7304   -1323246.73949  -1007880.68745  24581225.6124   24581231.0374
       205.0004        136.0004
 07  2 18  1 11 50.0000000  0  9G 1G14G22G21G19G18G 3G31G11
  21813677.9524   -1417690.65849   -938356.54047  21813677.0264   21813682.8864
       234.0004        192.0004
  20322447.5204    -148162.25749   -141989.27447  20322446.8634   20322450.5894
       236.0004        212.0004
  21187534.0724     123051.53649     90724.69647  21187533.6464   21187535.9444
       243.0004        206.0004
  24220436.5784     876101.05549    669804.79845  24220435.1924   24220441.2354
       211.0004        138.0004
  22597023.6784      77049.05649     55531.14746  22597022.9674   22597026.3064
       228.0004        184.0004
  23126699.8064     672493.83549    511611.28046  23126699.2794   23126703.3404
       223.0004        164.0004
  23464953.2344     867534.01649    662534.97345  23464952.3814   23464958.4304
       218.0004        160.0004
  23320696.5594   -1907026.72949  -1476228.13746  23320697.6174   23320701.0604
       221.0004        169.0004
  24578151.7094   -1339400.86249  -1020468.29345  24578151.8404   24578157.5364
       206.0004        136.0004
 07  2 18  1 11 55.0000000  0  9G 1G14G22G21G19G18G 3G31G11
  21811608.1624   -1428567.40849   -946831.93147  21811607.3484   21811613.1984
       235.0004        192.0004
  20322841.0064    -146094.53449   -140378.06147  20322840.4604   20322844.1754
       237.0004        212.0004
  21188376.3664     127477.70049     94173.65147  21188376.2424   21188377.9574
       243.0004        206.0004
  24223873.9604     894164.55349    683880.24345  24223873.3314   24223878.1354
       212.0004        138.0004
  22597866.5634      81478.53849     58982.67746  22597865.0844   22597868.6974
       228.0004        184.0004
  23128592.1934     682438.29049    519360.19746  23128591.5394   23128595.3094
       222.0004        164.0004
  23467250.6534     879606.97149    671942.47645  23467250.8604   23467255.3784
       218.0004        160.0004
  23317495.0534   -1923850.71949  -1489337.71946  23317495.6844   23317499.2694
       221.0004        169.0004
  24575078.5084   -1355550.56949  -1033052.46645  24575079.3574   24575083.0394
       204.0004        136.0004
 07  2 18  1 12  0.0000000  0  9G 1G14G22G21G19G18G 3G31G11
  21809540.2524   -1439434.24849   -955299.59547  21809540.1304   21809544.7764
       236.0004        192.0004
  20323236.7244    -144015.02949   -138757.67047  20323236.2764   20323239.9144
       238.0004        212.0004
  21189219.3804     131907.79149     97625.67047  21189219.2594   21189221.2384
       244.0004        206.0004
  24227312.1524     912232.32249    697959.01545  24227310.9324   24227316.6524
       211.0004        138.0004
  22598711.9984      85921.32749     62444.59746  22598710.9784   22598713.5194
       229.0004        184.0004
  23130485.1324     692385.53449    527111.29346  23130485.5684   23130487.8864
       223.0004        164.0004
  23469548.9874     891684.79549    681353.75945  23469548.7104   23469554.8934
       221.0004        160.0004
  23314294.0704   -1940672.07549  -1502445.25746  23314294.1104   23314297.8104
       220.0004        170.0004
  24572006.0324   -1371696.44649  -1045633.65345  24572007.5934   24572010.0744
       205.0004        136.0004
 07  2 18  1 12  5.0000000  0  9G 1G14G22G21G19G18G 3G31G11
  21807474.4884   -1450289.96149   -963758.58547  21807474.2604   21807478.7294
       235.0004        192.0004
  20323634.9044    -141922.49949   -137127.12047  20323634.4914   20323638.0274
       238.0004        212.0004
  21190063.3804     136343.06449    101081.73147  21190062.9654   21190065.0904
       243.0004        206.0004
  24230751.3724     930305.53149    712042.03745  24230750.2114   24230756.5904
       212.0004        139.0004
  22599560.1694      90378.60749     65917.80746  22599559.3614   22599562.3114
       228.0004        184.0004
  23132378.7874     702336.76949    534865.51946  23132378.8474   23132381.1124
       223.0004        164.0004
  23471848.4504     903768.71249    690769.81345  23471847.4284   23471853.7014
       222.0004        161.0004
  23311093.8314   -1957489.53849  -1515549.75246  23311093.9154   23311097.8014
       220.0004        170.0004
  24568934.5454   -1387837.29149  -1058210.92145  24568935.5904   24568938.7364
       204.0004        137.0004
 07  2 18  1 12 10.0000000  0  9G 1G14G22G21G19G18G 3G31G11
  21805410.5814   -1461135.78049   -972209.86747  21805410.2794   21805415.1984
       235.0004        192.0004
  20324035.3294    -139818.23049   -135487.42747  20324034.8934   20324038.3764
       238.0004        212.0004
  21190908.1154     140782.26249    104540.84847  21190907.6904   21190910.0524
       244.0004        206.0004
  24234191.3894     948382.94549    726128.32845  24234191.0194   24234195.9744
       211.0004        139.0004
  22600410.8694      94849.15049     69401.34146  22600410.0224   22600413.1194
       229.0004        183.0004
  23134273.0084     712290.76349    542621.86046  23134272.6664   23134276.4254
       222.0004        164.0004
  23474148.8694     915857.51449    700189.66245  23474148.3354   23474154.8434
       221.0004        161.0004
  23307894.0594   -1974304.33449  -1528652.17246  23307893.6914   23307898.4324
       220.0004        170.0004
  24565863.7514   -1403974.36249  -1070785.24545  24565863.7064   24565867.8954
       205.0004        137.0004
 07  2 18  1 12 15.0000000  0  9G 1G14G22G21G19G18G 3G31G11
  21803348.6674   -1471971.15049   -980653.01247  21803348.3364   21803353.8064
       234.0004        192.0004
  20324438.1074    -137701.65649   -133838.15147  20324437.6654   20324441.2144
       237.0004        212.0004
  21191753.7254     145225.96549    108003.47247  21191753.5244   21191755.5514
       242.0004        206.0004
  24237632.3234     966465.15949    740218.36845  24237632.1864   24237636.9874
       210.0004        139.0004
  22601264.2104      99333.48249     72895.62246  22601263.3514   22601266.4484
       227.0004        183.0004
  23136167.8094     722248.06649    550380.80146  23136167.5054   23136171.1954
       222.0004        165.0004
  23476450.3174     927951.81549    709613.79345  23476449.8724   23476456.0464
       221.0004        161.0004
  23304694.9144   -1991115.91849  -1541752.08646  23304695.1754   23304699.8074
       220.0004        170.0004
  24562793.8274   -1420107.05649  -1083356.16545  24562793.2924   24562798.6614
       206.0004        136.0004
 07  2 18  1 12 20.0000000  0  9G 1G14G22G21G19G18G 3G31G11
  21801288.5614   -1482796.94949   -989088.68347  21801288.1024   21801293.8734
       235.0004        192.0004
  20324843.0484    -135573.68549   -132179.98447  20324842.5944   20324846.0434
       238.0004        212.0004
  21192600.0114     149673.24449    111468.89247  21192599.6294   21192601.8624
       243.0004        205.0004
  24241074.0074     984551.22549    754311.40445  24241074.3134   24241078.0294
       210.0004        139.0004
  22602119.9904     103830.70249     76399.96046  22602118.9294   22602122.6714
       228.0004        183.0004
  23138063.0704     732207.82249    558141.65246  23138061.5334   23138066.6994
       221.0004        164.0004
  23478752.6084     940050.56849    719041.39245  23478752.0084   23478758.5524
       222.0004        162.0004
  23301496.2244   -2007925.15649  -1554850.17746  23301496.0604   23301500.6524
       222.0004        170.0004
  24559724.5724   -1436236.24549  -1095924.34045  24559724.4374   24559729.3424
       205.0004        136.0004
 07  2 18  1 12 25.0000000  0  9G 1G14G22G21G19G18G 3G31G11
  21799230.6134   -1493611.51649   -997515.62047  21799230.3874   21799235.6274
       236.0004        192.0004
  20325250.4974    -133432.63349   -130511.63447  20325250.0424   20325253.5754
       238.0004        212.0004
  21193447.2814     154125.79549    114938.40847  21193447.0824   21193449.1044
       243.0004        205.0004
  24244516.7244    1002642.81649    768408.75045  24244516.6204   24244520.4004
       210.0004        139.0004
  22602978.5584     108342.48049     79915.62146  22602977.5044   22602980.9044
       227.0004        183.0004
  23139959.1024     742171.62149    565905.64746  23139958.4404   23139962.6744
       222.0004        164.0004
  23481056.1164     952155.50749    728473.80645  23481055.3744   23481062.1904
       221.0004        161.0004
  23298298.2974   -2024730.37249  -1567945.13946  23298298.9234   23298302.3304
       222.0004        170.0004
  24556656.3054   -1452360.32449  -1108488.54045  24556655.1314   24556661.4704
       206.0004        136.0004
 07  2 18  1 12 30.0000000  0  9G 1G14G22G21G19G18G 3G31G11
  21797174.6294   -1504415.75049  -1005934.49247  21797174.5004   21797179.4094
       234.0004        192.0004
  20325660.2344    -131279.40849   -128833.79847  20325659.9784   20325663.3244
       237.0004        212.0004
  21194295.4194     158582.72649    118411.34147  21194295.2854   21194297.1804
       242.0004        205.0004
  24247960.3114    1020739.04449    782509.70845  24247959.0474   24247965.3404
       209.0004        138.0004
  22603839.6924     112867.86149     83441.89046  22603838.9284   22603842.4774
       228.0004        183.0004
  23141855.7384     752138.60249    573672.12946  23141854.6274   23141859.0644
       221.0004        164.0004
  23483360.6454     964265.67049    737910.29045  23483360.3584   23483365.7384
       219.0004        162.0004
  23295101.0044   -2041532.42049  -1581037.63646  23295101.0974   23295105.1504
       221.0004        170.0004
  24553588.8244   -1468480.14149  -1121049.42045  24553588.0754   24553592.8834
       205.0004        136.0004
 07  2 18  1 12 35.0000000  0  9G 1G14G22G21G19G18G 3G31G11
  21795120.4404   -1515210.42749  -1014345.92447  21795120.0824   21795125.2714
       235.0004        192.0004
  20326072.1354    -129114.82749   -127147.10747  20326071.6234   20326075.2264
       237.0004        212.0004
  21195144.2044     163043.25349    121887.07947  21195144.0274   21195146.1424
       243.0004        205.0004
  24251404.6334    1038839.10749    796613.65745  24251401.9844   24251409.4534
       209.0004        138.0004
  22604703.2924     117406.09049     86978.18246  22604702.6004   22604705.1824
       227.0004        183.0004
  23143752.8244     762107.99949    581440.48546  23143752.4344   23143756.4894
       222.0004        164.0004
  23485665.9894     976380.31449    747350.26545  23485665.6124   23485671.5594
       220.0004        162.0004
  23291904.1474   -2058332.13249  -1594128.31046  23291903.8704   23291907.9874
       221.0004        170.0004
  24550522.0554   -1484596.42649  -1133607.54545  24550521.8274   24550525.4884
       205.0004        136.0004
 07  2 18  1 12 40.0000000  0  9G 1G14G22G21G19G18G 3G31G11
  21793068.3724   -1525994.16149  -1022748.83347  21793068.2434   21793073.4044
       235.0004        193.0004
  20326486.4894    -126937.49749   -125450.48847  20326486.0864   20326489.3594
       237.0004        212.0004
  21195993.9824     167508.75949    125366.69347  21195993.8194   21195995.8984
       243.0004        205.0004
  24254849.9384    1056944.34349    810721.63745  24254848.6684   24254853.9784
       209.0004        138.0004
  22605569.6134     121958.55149     90525.54646  22605568.9104   22605572.4524
       228.0004        183.0004
  23145650.6494     772081.17149    589211.79246  23145650.2404   23145653.5194
       221.0004        164.0004
  23487972.4414     988500.82149    756794.81345  23487972.1254   23487978.1454
       219.0004        161.0004
  23288707.9944   -2075128.06949  -1607216.03346  23288707.8734   23288712.0334
       221.0004        170.0004
  24547456.1904   -1500707.75749  -1146161.81545  24547455.8504   24547459.3384
       206.0004        136.0004
 07  2 18  1 12 45.0000000  0  9G 1G14G22G21G19G18G 3G31G11
  21791018.1644   -1536768.16549  -1031144.15247  21791017.5724   21791022.8674
       235.0004        193.0004
  20326903.0194    -124748.64849   -123744.88947  20326902.4684   20326905.9854
       237.0004        212.0004
  21196844.4354     171978.00249    128849.22247  21196844.4504   21196846.3374
       242.0004        205.0004
  24258296.0074    1075053.52749    824832.69345  24258295.2324   24258299.5024
       208.0004        138.0004
  22606438.4074     126523.97749     94083.02346  22606437.3794   22606440.9474
       227.0004        183.0004
  23147548.9584     782056.96349    596985.13246  23147548.3164   23147553.1924
       221.0004        164.0004
  23490279.8004    1000625.92449    766242.93645  23490279.5684   23490285.7354
       218.0004        161.0004
  23285512.2974   -2091921.46849  -1620301.78046  23285512.2354   23285516.5494
       221.0004        170.0004
  24544391.0264   -1516815.39449  -1158713.21245  24544390.9824   24544394.2014
       206.0004        136.0004
 07  2 18  1 12 50.0000000  0  9G 1G14G22G21G19G18G 3G31G11
  21788969.9904   -1547531.42949  -1039531.09947  21788969.3304   21788974.8094
       235.0004        193.0004
  20327321.9284    -122547.29249   -122029.54247  20327321.4884   20327324.8224
       238.0004        212.0004
  21197695.8124     176451.98649    132335.44947  21197695.5914   21197697.7294
       244.0004        205.0004
  24261742.9934    1093167.63949    838947.58845  24261741.4364   24261747.1294
       210.0004        138.0004
  22607309.8364     131103.41549     97651.41846  22607308.4264   22607312.1464
       227.0004        183.0004
  23149447.9794     792036.32849    604761.26646  23149448.7004   23149452.1654
       222.0004        164.0004
  23492588.1944    1012756.58749    775695.40145  23492587.7004   23492593.9764
       221.0004        161.0004
  23282317.3054   -2108711.33449  -1633384.76646  23282317.5274   23282321.6664
       221.0004        170.0004
  24541326.7204   -1532918.36949  -1171260.96745  24541326.9234   24541329.4084
       206.0004        136.0004
 07  2 18  1 12 55.0000000  0  9G 1G14G22G21G19G18G 3G31G11
  21786923.6964   -1558284.84249  -1047910.38247  21786923.1874   21786928.5744
       234.0004        193.0004
  20327743.0314    -120334.29749   -120305.13447  20327742.5774   20327746.2204
       237.0004        212.0004
  21198547.9064     180929.86249    135824.69747  21198547.8114   21198549.9444
       243.0004        205.0004
  24265190.7634    1111285.81549    853065.63745  24265189.7694   24265195.5484
       209.0004        139.0004
  22608183.7774     135695.98649    101230.03846  22608182.7414   22608185.8924
       228.0004        183.0004
  23151347.4944     802018.34649    612539.47046  23151347.2564   23151351.6684
       221.0004        164.0004
  23494897.4704    1024892.04149    785151.59445  23494896.4924   23494903.5954
       220.0004        161.0004
  23279122.7864   -2125498.45749  -1646465.63346  23279123.0284   23279127.0364
       220.0004        171.0004
  24538263.1464   -1549017.52749  -1183805.75145  24538262.4744   24538266.8674
       207.0004        136.0004
 07  2 18  1 13  0.0000000  0  9G 1G14G22G21G19G18G 3G31G11
  21784879.5164   -1569027.15649  -1056281.00447  21784878.8124   21784884.3154
       233.0004        192.0004
  20328166.6114    -118108.45149   -118570.70047  20328166.0044   20328169.7114
       237.0004        212.0004
  21199400.9984     185412.85149    139317.94247  21199400.9004   21199402.8794
       243.0004        205.0004
  24268639.5604    1129409.29949    867187.83345  24268638.7914   24268644.0104
       210.0004        140.0004
  22609060.4474     140302.91149    104819.84946  22609059.9634   22609063.4704
       227.0004        183.0004
  23153247.7524     812004.34349    620320.75246  23153246.8314   23153251.1744
       221.0004        164.0004
  23497207.8894    1037033.45849    794612.43145  23497207.6824   23497213.7964
       221.0004        162.0004
  23275929.0434   -2142281.59849  -1659543.38446  23275928.5304   23275932.7424
       221.0004        171.0004
  24535200.5364   -1565111.63949  -1196346.61045  24535199.8554   24535204.3004
       207.0004        136.0004
 07  2 18  1 13  5.0000000  0  9G 1G14G22G21G19G18G 3G31G11
  21782837.1524   -1579759.82849  -1064644.12047  21782836.5364   21782841.7264
       234.0004        193.0004
  20328592.3184    -115871.21749   -116827.39947  20328591.7994   20328595.4534
       236.0004        212.0004
  21200254.8084     189899.48049    142814.01647  21200254.6494   21200256.8254
       243.0004        205.0004
  24272089.1014    1147536.62249    881313.02145  24272088.1734   24272093.3534
       209.0004        140.0004
  22609939.5834     144922.71549    108419.70246  22609938.8954   22609942.4834
       228.0004        183.0004
  23155148.5094     821992.77349    628103.95546  23155147.8454   23155151.8624
       222.0004        164.0004
  23499519.1664    1049179.31349    804076.73845  23499519.2014   23499524.2164
       221.0004        162.0004
  23272735.7834   -2159062.23849  -1672619.19546  23272735.7104   23272739.7904
       221.0004        171.0004
  24532138.6004   -1581202.10949  -1208884.63745  24532137.0854   24532144.0194
       208.0004        135.0004
 07  2 18  1 13 10.0000000  0  9G 1G14G22G21G19G18G 3G31G11
  21780796.7614   -1590481.97149  -1072999.03147  21780796.2984   21780801.9124
       234.0004        193.0004
  20329020.3884    -113621.67949   -115074.51447  20329019.9024   20329023.5714
       237.0004        212.0004
  21201109.4494     194390.65849    146313.63647  21201109.5074   21201111.4334
       243.0004        205.0004
  24275539.5164    1165668.65349    895441.87445  24275539.0544   24275543.8914
       209.0004        140.0004
  22610821.3324     149556.27249    112030.25946  22610820.8244   22610823.5864
       228.0004        183.0004
  23157049.8954     831984.60749    635889.80546  23157049.6984   23157053.0074
       221.0004        164.0004
  23501831.4804    1061330.43149    813545.14045  23501832.1304   23501836.4794
       221.0004        162.0004
  23269543.1724   -2175839.43149  -1685692.31646  23269542.8014   23269547.1764
       221.0004        171.0004
  24529077.5494   -1597288.02149  -1221419.11845  24529077.0734   24529082.6664
       207.0004        135.0004
 07  2 18  1 13 15.0000000  0  9G 1G14G22G21G19G18G 3G31G11
  21778758.2944   -1601194.11949  -1081346.15447  21778757.6204   21778762.9824
       235.0004        192.0004
  20329450.6824    -111360.47749   -113312.53547  20329450.2544   20329453.7564
       237.0004        212.0004
  21201964.8534     198885.81549    149816.35647  21201964.6054   21201966.6514
       243.0004        205.0004
  24278990.7484    1183804.86749    909573.98545  24278990.2054   24278994.2944
       208.0004        140.0004
  22611705.5724     154202.98849    115651.08146  22611704.7334   22611708.2464
       227.0004        183.0004
  23158951.8064     841979.23749    643677.81946  23158950.9524   23158955.6414
       221.0004        164.0004
  23504144.6614    1073486.25249    823017.19845  23504144.3694   23504150.0404
       221.0004        162.0004
  23266351.0994   -2192613.74349  -1698763.19246  23266350.9704   23266355.0604
       222.0004        171.0004
  24526017.2474   -1613369.99649  -1233950.52345  24526016.9724   24526022.5594
       208.0004        134.0004
 07  2 18  1 13 20.0000000  0  9G 1G14G22G21G19G18G 3G31G11
  21776721.8864   -1611895.54849  -1089684.92247  21776721.9094   21776726.8484
       235.0004        192.0004
  20329883.3554    -109086.84549   -111540.87047  20329882.8554   20329886.4044
       238.0004        212.0004
  21202821.1464     203385.71249    153322.77147  21202821.0524   21202822.9654
       244.0004        205.0004
  24282442.8724    1201945.94949    923709.88545  24282442.8254   24282445.7424
       208.0004        139.0004
  22612592.4564     158863.68749    119282.79946  22612591.1894   22612595.2314
       227.0004        183.0004
  23160854.4194     851977.39749    651468.59946  23160854.5444   23160857.9294
       222.0004        164.0004
  23506458.9254    1085647.60349    832493.58745  23506459.4574   23506464.8644
       221.0004        162.0004
  23263159.7434   -2209384.43449  -1711831.24446  23263159.5904   23263164.3414
       221.0004        172.0004
  24522957.8384   -1629447.23849  -1246478.24545  24522957.2604   24522962.5694
       208.0004        134.0004
 07  2 18  1 13 25.0000000  0  9G 1G14G22G21G19G18G 3G31G11
  21774687.2274   -1622587.65049  -1098016.42547  21774686.5884   21774692.2364
       235.0004        193.0004
  20330318.1164    -106802.14349   -109760.57847  20330317.6144   20330321.4084
       237.0004        212.0004
  21203678.1114     207888.93549    156831.77847  21203677.7994   21203679.8144
       243.0004        205.0004
  24285895.6644    1220090.50549    937848.49445  24285895.4144   24285897.5704
       204.0004        138.0004
  22613481.7214     163536.87049    122924.23646  22613480.3434   22613483.8964
       227.0004        183.0004
  23162757.4134     861977.71349    659261.05846  23162757.8064   23162760.5324
       220.0004        164.0004
  23508773.9464    1097812.96749    841973.08945  23508773.3754   23508779.3484
       221.0004        161.0004
  23259968.8314   -2226152.85949  -1724897.53546  23259968.9894   23259972.5524
       220.0004        172.0004
  24519899.0824   -1645521.14249  -1259003.36745  24519899.1374   24519903.4254
       207.0004        133.0004
 07  2 18  1 13 30.0000000  0  9G 1G14G22G21G19G18G 3G31G11
  21772654.8214   -1633268.06849  -1106338.82847  21772654.5654   21772659.3474
       234.0004        193.0004
  20330755.4204    -104504.05649   -107969.86647  20330755.0414   20330758.5334
       237.0004        212.0004
  21204536.1434     212397.87649    160345.23447  21204536.1354   21204537.9794
       242.0004        205.0004
  24289349.5514    1238240.87149    951991.63245  24289348.8144   24289351.7564
       204.0004        137.0004
  22614373.8404     168224.93249    126577.27246  22614372.9754   22614376.6234
       227.0004        183.0004
  23164661.2864     871982.56449    667057.03846  23164660.9194   23164664.9144
       220.0004        163.0004
  23511090.1774    1109984.68249    851457.53145  23511089.6914   23511095.1904
       219.0004        161.0004
  23256778.7404   -2242916.66649  -1737960.22646  23256778.3574   23256783.1924
       220.0004        172.0004
  24516841.4054   -1661589.32949  -1271524.04045  24516841.0444   24516844.5094
       208.0004        133.0004
 07  2 18  1 13 35.0000000  0  9G 1G14G22G21G19G18G 3G31G11
  21770624.1964   -1643939.03749  -1114653.85747  21770623.5614   21770628.7494
       235.0004        193.0004
  20331194.8694    -102194.84049   -106170.47047  20331194.2674   20331198.0744
       238.0004        212.0004
  21205394.8344     216910.29349    163861.40547  21205394.5614   21205396.6504
       243.0004        206.0004
  24292804.1374    1256394.82649    966137.56945  24292803.6824   24292806.2604
       203.0004        135.0004
  22615268.3464     172925.59349    130240.12546  22615267.3164   22615270.6734
       227.0004        183.0004
  23166565.5734     881989.71249    674854.81146  23166565.3514   23166569.1304
       221.0004        163.0004
  23513407.2164    1122160.58849    860945.25545  23513406.7274   23513412.3744
       218.0004        161.0004
  23253589.1124   -2259678.07549  -1751021.05346  23253588.6564   23253593.2014
       221.0004        172.0004
  24513784.4074   -1677654.00449  -1284041.97345  24513784.6904   24513789.4614
       207.0004        133.0004
 07  2 18  1 13 40.0000000  0  9G 1G14G22G21G19G18G 3G31G11
  21768595.5484   -1654599.54049  -1122960.73947  21768594.9854   21768600.5254
       235.0004        193.0004
  20331636.6294     -99873.45049   -104361.59147  20331636.0114   20331639.5994
       237.0004        212.0004
  21206254.3924     221427.18449    167381.06147  21206254.3664   21206256.1984
       242.0004        205.0004
  24296259.5824    1274553.32249    980287.04445  24296256.5424   24296262.7544
       201.0004        134.0004
  22616165.4364     177639.88149    133913.59946  22616164.7454   22616168.0604
       227.0004        183.0004
  23168470.4864     892000.14849    682655.16246  23168470.1124   23168473.2384
       219.0004        163.0004
  23515725.2054    1134341.71549    870437.04345  23515724.6334   23515730.1924
       217.0004        160.0004
  23250400.1454   -2276436.05149  -1764079.20146  23250400.0334   23250404.5724
       220.0004        172.0004
  24510728.2624   -1693714.15349  -1296556.38245  24510728.0964   24510732.6794
       205.0004        132.0004
 07  2 18  1 13 45.0000000  0  9G 1G14G22G21G19G18G 3G31G11
  21766568.8304   -1665249.98749  -1131259.78147  21766568.6284   21766573.2014
       235.0004        193.0004
  20332080.6064     -97540.33049   -102543.57647  20332080.0944   20332083.6654
       237.0004        212.0004
  21207114.6804     225948.12149    170903.87147  21207114.2904   21207116.2614
       243.0004        205.0004
  24299715.7974    1292715.95349    994439.74245  24299715.6074   24299715.8894
       204.0004        132.0004
  22617065.0804     182367.40049    137597.37446  22617064.2124   22617067.0394
       227.0004        183.0004
  23170375.9434     902013.43549    690457.72846  23170375.4734   23170379.1164
       221.0004        163.0004
  23518044.1044    1146527.54449    879932.48045  23518043.7074   23518049.4984
       217.0004        160.0004
  23247211.7584   -2293191.01049  -1777135.00046  23247211.4404   23247216.0034
       220.0004        172.0004
  24507672.8964   -1709770.22549  -1309067.61545  24507672.3714   24507676.2954
       206.0004        132.0004
 07  2 18  1 13 50.0000000  0  9G 1G14G22G21G19G18G 3G31G11
  21764544.2154   -1675889.57249  -1139550.36347  21764543.8004   21764549.4834
       236.0004        193.0004
  20332526.9764     -95194.70449   -100715.81747  20332526.6054   20332530.1924
       237.0004        212.0004
  21207975.9114     230473.91849    174430.46347  21207975.9544   21207977.7904
       244.0004        205.0004
  24303172.9934    1310883.51449   1008596.28644  24303172.4544   24303174.3744
       203.0004        130.0004
  22617967.3364     187108.91049    141292.05046  22617966.7974   22617969.3864
       227.0004        183.0004
  23172282.1134     912030.28049    698263.05246  23172281.7634   23172285.3944
       221.0004        163.0004
  23520364.0244    1158718.88849    889432.23045  23520363.0514   23520369.0774
       217.0004        159.0004
  23244024.0694   -2309942.17649  -1790187.84846  23244024.0774   23244028.5714
       221.0004        172.0004
  24504618.4474   -1725821.37049  -1321574.99645  24504617.7864   24504621.0874
       204.0004        132.0004
 07  2 18  1 13 55.0000000  0  9G 1G14G22G21G19G18G 3G31G11
  21762521.4194   -1686519.36949  -1147833.31247  21762521.1004   21762526.2464
       234.0004        193.0004
  20332975.4994     -92837.62749    -98879.12947  20332975.1244   20332978.6404
       236.0004        212.0004
  21208837.8914     235003.50949    177960.01947  21208837.4374   21208839.6514
       242.0004        205.0004
  24306630.8784    1329054.92649   1022755.83244  24306629.4814   24306633.9074
       204.0004        129.0004
  22618872.0774     191863.31949    144996.79346  22618870.8824   22618874.3574
       227.0004        183.0004
  23174188.7624     922049.77349    706070.44646  23174188.4434   23174192.3484
       220.0004        163.0004
  23522684.7754    1170914.65249    898935.41945  23522683.6854   23522691.1994
       216.0004        159.0004
  23240836.9624   -2326690.54449  -1803238.50446  23240837.1934   23240841.2904
       221.0004        172.0004
  24501564.7644   -1741868.68949  -1334079.39645  24501564.8804   24501568.6354
       200.0004        132.0004
 07  2 18  1 14  0.0000000  0  9G 1G14G22G21G19G18G 3G31G11
  21760500.6114   -1697138.82849  -1156108.21347  21760499.8694   21760505.2994
       235.0004        193.0004
  20333426.3214     -90468.58249    -97033.11647  20333425.6824   20333429.3274
       237.0004        212.0004
  21209700.6674     239537.42349    181492.94547  21209700.4504   21209702.3904
       243.0004        205.0004
  24310089.6514    1347230.75049   1036918.82044  24310089.6254   24310094.4014
       204.0004        128.0004
  22619779.3764     196631.19349    148712.01946  22619777.9944   22619781.7814
       227.0004        183.0004
  23176096.0484     932072.46749    713880.34446  23176096.5024   23176098.9004
       220.0004        163.0004
  23525006.4354    1183115.39449    908442.49045  23525004.3784   23525012.2704
       218.0004        159.0004
  23237650.4464   -2343435.57549  -1816286.57246  23237650.6094   23237654.9134
       221.0004        172.0004
  24498511.8954   -1757911.58949  -1346580.35545  24498511.7934   24498516.3694
       202.0004        132.0004
 07  2 18  1 14  5.0000000  0  9G 1G14G22G21G19G18G 3G31G11
  21758481.8194   -1707747.61849  -1164374.79447  21758481.4274   21758486.2074
       236.0004        193.0004
  20333879.4874     -88087.23749    -95177.51947  20333878.7894   20333882.5214
       237.0004        212.0004
  21210564.3154     244076.02749    185029.51347  21210564.0024   21210566.0744
       244.0004        205.0004
  24313549.3144    1365411.30549   1051085.48944  24313548.4814   24313554.3074
       207.0004        128.0004
  22620689.2974     201412.83449    152437.97046  22620688.1634   22620692.3354
       228.0004        183.0004
  23178003.9574     942098.64349    721692.94845  23178003.5124   23178007.6344
       221.0004        162.0004
  23527329.1414    1195321.49149    917953.72545  23527328.7594   23527334.3714
       218.0004        159.0004
  23234464.6704   -2360176.96049  -1829331.78946  23234465.2244   23234469.0714
       222.0004        172.0004
  24495459.9114   -1773949.78049  -1359077.62845  24495458.1374   24495462.6514
       199.0004        132.0004
 07  2 18  1 14 10.0000000  0  9G 1G14G22G21G19G18G 3G31G11
  21756464.9274   -1718346.47749  -1172633.64447  21756464.6034   21756469.2524
       235.0004        193.0004
  20334334.8494     -85694.29949    -93312.89647  20334334.4434   20334337.9384
       237.0004        212.0004
  21211428.7594     248618.59749    188569.17747  21211428.9634   21211430.5544
       242.0004        205.0004
  24317009.7094    1383595.87149   1065255.29244  24317009.8244   24317014.0864
       208.0004        129.0004
  22621601.6994     206207.55149    156174.11146  22621601.1514   22621604.3504
       228.0004        183.0004
  23179912.4254     952127.59349    729507.72145  23179911.9614   23179916.0874
       220.0004        162.0004
  23529652.7114    1207532.09549    927468.48045  23529651.8514   23529658.2184
       218.0004        159.0004
  23231279.4304   -2376915.39249  -1842374.71046  23231279.9604   23231283.9404
       221.0004        172.0004
  24492408.6744   -1789983.90049  -1371571.73044  24492406.8804   24492412.0444
       198.0004        131.0004
 07  2 18  1 14 15.0000000  0  9G 1G14G22G21G19G18G 3G31G11
  21754449.9824   -1728934.94449  -1180884.39047  21754449.8484   21754454.8704
       235.0004        193.0004
  20334792.4664     -83289.36349    -91438.91747  20334791.8974   20334795.4754
       237.0004        212.0004
  21212294.0054     253165.52049    192112.23647  21212294.0444   21212295.7294
       242.0004        205.0004
  24320470.9754    1401784.78649   1079428.48844  24320469.5194   24320475.0664
       207.0004        129.0004
  22622516.6724     211015.71849    159920.74046  22622515.8784   22622519.1474
       227.0004        183.0004
  23181821.4834     962159.77749    737324.99745  23181820.2004   23181824.4374
       219.0004        162.0004
  23531977.2554    1219747.67949    936987.11245  23531976.5324   23531983.2094
       217.0004        159.0004
  23228094.8534   -2393650.39849  -1855414.95746  23228094.9644   23228099.0464
       221.0004        172.0004
  24489358.3024   -1806013.55849  -1384062.35344  24489356.1624   24489362.4544
       196.0004        131.0004
 07  2 18  1 14 20.0000000  0  9G 1G14G22G21G19G18G 3G31G11
  21752437.0164   -1739513.08849  -1189127.09347  21752436.4424   21752441.8114
       236.0004        193.0004
  20335252.3814     -80872.51649    -89555.65447  20335251.8084   20335255.3544
       238.0004        212.0004
  21213160.0674     257716.74749    195658.64847  21213159.9954   21213161.9974
       243.0004        205.0004
  24323933.0534    1419978.05949   1093605.08444  24323930.9234   24323935.4174
       206.0004        130.0004
  22623434.1884     215837.25749    163677.77846  22623433.3034   22623437.1064
       229.0004        183.0004
  23183731.1294     972195.07349    745144.71345  23183731.1974   23183733.0494
       219.0004        162.0004
  23534302.7134    1231968.11449    946509.53745  23534302.3814   23534308.1964
       220.0004        160.0004
  23224910.9284   -2410382.04249  -1868452.58246  23224911.0794   23224914.9564
       222.0004        172.0004
  24486308.7444   -1822038.80749  -1396549.53944  24486307.6024   24486314.9574
       197.0004        130.0004
 07  2 18  1 14 25.0000000  0  9G 1G14G22G21G19G18G 3G31G11
  21750426.0084   -1750081.04949  -1197361.85947  21750425.3144   21750430.6204
       235.0004        193.0004
  20335714.5114     -78443.93049    -87663.24747  20335713.8484   20335717.4104
       238.0004        212.0004
  21214026.9434     262272.17149    199208.32947  21214026.5754   21214028.6014
       243.0004        205.0004
  24327395.9074    1438175.46949   1107784.89744  24327394.2154   24327398.9554
       208.0004        131.0004
  22624354.2234     220672.04649    167445.15146  22624352.9764   22624356.5954
       228.0004        183.0004
  23185641.3394     982233.37449    752966.76445  23185640.4554   23185644.9444
       220.0004        162.0004
  23536629.0924    1244193.27549    956035.63745  23536629.0714   23536635.0124
       220.0004        160.0004
  23221727.5984   -2427110.47749  -1881487.71746  23221727.4334   23221731.3814
       223.0004        172.0004
  24483260.0234   -1838059.75649  -1409033.36344  24483259.1624   24483265.4144
       195.0004        130.0004
 07  2 18  1 14 30.0000000  0  9G 1G14G22G21G19G18G 3G31G11
  21748416.9764   -1760638.68349  -1205588.58147  21748416.2554   21748421.5984
       234.0004        193.0004
  20336178.9214     -76003.41349    -85761.54347  20336178.2574   20336182.0764
       237.0004        212.0004
  21214894.6324     266831.90949    202761.37547  21214894.2644   21214896.3874
       242.0004        205.0004
  24330859.5784    1456377.22949   1121968.09144  24330858.1974   24330863.7864
       207.0004        131.0004
  22625276.8094     225520.20749    171222.93446  22625276.0674   22625279.1354
       227.0004        183.0004
  23187552.1584     992274.82849    760791.26745  23187551.9624   23187556.1624
       221.0004        162.0004
  23538956.4204    1256423.28249    965565.50245  23538956.8094   23538962.4154
       218.0004        160.0004
  23218544.9284   -2443835.55849  -1894520.23446  23218545.1664   23218549.0764
       221.0004        172.0004
  24480212.1304   -1854076.24649  -1421513.71344  24480212.1924   24480216.6664
       199.0004        130.0004
 07  2 18  1 14 35.0000000  0  9G 1G14G22G21G19G18G 3G31G11
  21746409.8614   -1771186.02149  -1213807.27547  21746409.0544   21746414.4774
       235.0004        193.0004
  20336645.5834     -73551.03849    -83850.60047  20336645.1834   20336648.6364
       237.0004        212.0004
  21215763.1514     271395.91749    206317.74347  21215763.1534   21215764.8054
       242.0004        205.0004
  24334324.0724    1474583.21849   1136154.58245  24334322.4194   24334328.5544
       206.0004        132.0004
  22626201.9264     230381.68249    175011.09646  22626201.2274   22626204.2354
       228.0004        183.0004
  23189463.5704    1002319.37249    768618.19445  23189463.5584   23189466.4324
       221.0004        162.0004
  23541284.6584    1268658.15849    975099.18145  23541284.4284   23541290.4924
       218.0004        159.0004
  23215362.8824   -2460557.26449  -1907550.12846  23215362.4794   23215367.3484
       221.0004        172.0004
  24477165.1034   -1870088.31149  -1433990.62044  24477165.2514   24477168.8554
       199.0004        131.0004
 07  2 18  1 14 40.0000000  0  9G 1G14G22G21G19G18G 3G31G11
  21744404.8034   -1781722.60749  -1222017.60447  21744404.5524   21744409.6134
       235.0004        193.0004
  20337114.6014     -71086.34749    -81930.06047  20337114.0294   20337117.5994
       237.0004        212.0004
  21216632.5334     275964.67849    209877.81747  21216632.3714   21216634.3784
       242.0004        205.0004
  24337789.4304    1492793.90949   1150344.72945  24337788.2304   24337793.8344
       206.0004        132.0004
  22627129.6924     235256.94449    178810.00346  22627129.1144   22627132.4044
       228.0004        183.0004
  23191375.6614    1012367.45349    776447.86245  23191375.5454   23191378.9614
       220.0004        162.0004
  23543613.9304    1280898.24649    984636.90145  23543613.0364   23543619.4934
       217.0004        159.0004
  23212181.5964   -2477275.11549  -1920577.01446  23212181.8314   23212185.6724
       220.0004        172.0004
  24474119.0124   -1886095.46449  -1446463.69845  24474118.7304   24474123.1324
       198.0004        132.0004
 07  2 18  1 14 45.0000000  0  9G 1G14G22G21G19G18G 3G31G11
  21742401.5974   -1792249.45749  -1230220.33547  21742401.1294   21742406.4064
       236.0004        193.0004
  20337585.7814     -68610.31449    -80000.68247  20337585.2734   20337588.9354
       237.0004        212.0004
  21217502.6504     280537.13949    213440.77147  21217502.6994   21217504.3484
       242.0004        205.0004
  24341255.4704    1511008.30049   1164537.76145  24341255.1504   24341259.3284
       207.0004        133.0004
  22628059.8624     240144.96749    182618.84846  22628059.3404   22628062.1104
       228.0004        183.0004
  23193288.2434    1022418.06849    784279.52045  23193287.6214   23193292.4164
       221.0004        162.0004
  23545943.9524    1293142.55649    994177.92545  23545943.7424   23545948.8874
       218.0004        159.0004
  23209000.8434   -2493990.12449  -1933601.68746  23209001.3334   23209004.8534
       222.0004        172.0004
  24471073.6774   -1902098.75749  -1458933.76845  24471073.5284   24471078.0284
       202.0004        133.0004
 07  2 18  1 14 50.0000000  0  9G 1G14G22G21G19G18G 3G31G11
  21740400.4464   -1802765.63949  -1238414.76147  21740400.2844   21740405.1374
       235.0004        193.0004
  20338059.2594     -66122.11649    -78061.82747  20338058.7954   20338062.3254
       237.0004        212.0004
  21218373.6554     285114.21749    217007.32947  21218373.5064   21218375.4684
       242.0004        205.0004
  24344722.4044    1529227.30549   1178734.39145  24344722.3994   24344726.4154
       206.0004        134.0004
  22628992.6564     245046.65649    186438.35046  22628992.0854   22628995.0534
       227.0004        183.0004
  23195201.4934    1032472.15849    792113.87145  23195201.2264   23195204.5134
       219.0004        162.0004
  23548274.9714    1305391.95049   1003722.89945  23548275.1084   23548280.1364
       217.0004        159.0004
  23205820.7844   -2510701.37149  -1946623.42646  23205820.5354   23205825.2454
       220.0004        172.0004
  24468029.2614   -1918097.21849  -1471400.07945  24468029.4664   24468033.0204
       203.0004        134.0004
 07  2 18  1 14 55.0000000  0  9G 1G14G22G21G19G18G 3G31G11
  21738401.1084   -1813272.15049  -1246601.64047  21738400.6984   21738405.8134
       236.0004        193.0004
  20338534.8684     -63622.72949    -76114.24547  20338534.4464   20338537.8324
       238.0004        212.0004
  21219245.3514     289694.91449    220576.71047  21219245.0324   21219247.1204
       242.0004        205.0004
  24348190.0244    1547449.92549   1192933.84345  24348188.9604   24348192.8614
       206.0004        134.0004
  22629927.8644     249961.01449    190267.72646  22629926.9884   22629930.4564
       228.0004        183.0004
  23197115.1774    1042528.69349    799950.14045  23197114.7424   23197117.8674
       220.0004        162.0004
  23550606.7184    1317645.47049   1013271.10445  23550605.9654   23550611.8474
       217.0004        158.0004
  23202641.2684   -2527409.79749  -1959642.96846  23202640.6664   23202645.5524
       220.0004        172.0004
  24464985.5814   -1934091.85349  -1483863.41445  24464985.2834   24464989.4954
       204.0004        135.0004
 07  2 18  1 15  0.0000000  0  9G 1G14G22G21G19G18G 3G31G11
  21736403.9164   -1823767.44549  -1254779.78747  21736403.6614   21736408.6434
       237.0004        193.0004
  20339012.9244     -61110.55549    -74156.71047  20339012.7344   20339016.1094
       238.0004        212.0004
  21220118.0164     294280.79749    224150.12347  21220117.6384   21220119.7844
       242.0004        205.0004
  24351658.6044    1565677.68049   1207137.29345  24351657.3484   24351661.7684
       206.0004        134.0004
  22630865.7494     254889.59849    194108.17246  22630864.3194   22630868.5334
       227.0004        183.0004
  23199029.6274    1052589.20849    807789.49645  23199029.2764   23199032.9214
       219.0004        162.0004
  23552939.5624    1329904.61649   1022823.67245  23552939.0104   23552945.5984
       217.0004        158.0004
  23199462.5704   -2544113.91149  -1972659.13646  23199462.2364   23199466.9084
       219.0004        172.0004
  24461942.9534   -1950081.12649  -1496322.57345  24461942.5104   24461946.9134
       206.0004        136.0004
 07  2 18  1 15  5.0000000  0  9G 1G14G22G21G19G18G 3G31G11
  21734408.6114   -1834252.85949  -1262950.23547  21734407.6734   21734413.3344
       235.0004        193.0004
  20339493.1734     -58586.95749    -72190.26847  20339492.8224   20339496.0874
       237.0004        212.0004
  21220991.4164     298870.51149    227726.52347  21220991.2334   21220993.2324
       241.0004        205.0004
  24355127.9214    1583909.21449   1221343.68645  24355127.2064   24355131.2424
       205.0004        134.0004
  22631806.0384     259831.02549    197958.64146  22631804.7084   22631808.0054
       228.0004        183.0004
  23200944.5874    1062652.42349    815630.96645  23200944.0814   23200947.1344
       220.0004        161.0004
  23555273.2044    1342168.04549   1032379.58545  23555272.1744   23555278.9784
       216.0004        158.0004
  23196284.4174   -2560815.01249  -1985672.97646  23196284.1074   23196288.4314
       220.0004        172.0004
  24458901.0754   -1966066.31749  -1508778.55145  24458900.7854   24458905.7214
       208.0004        138.0004
 07  2 18  1 15 10.0000000  0  8G 1G14G22G19G18G 3G31G11
  21732415.2134   -1844728.29249  -1271112.90247  21732414.4734   21732419.9874
       236.0004        194.0004
  20339975.5874     -56051.85349    -70214.85947  20339975.1884   20339978.6444
       237.0004        212.0004
  21221865.5474     303464.17249    231305.99847  21221865.0994   21221867.3004
       242.0004        205.0004
  22632748.8314     264785.40649    201819.19646  22632747.7054   22632751.6704
       228.0004        183.0004
  23202860.0864    1072718.43249    823474.60945  23202859.0354   23202863.2074
       218.0004        161.0004
  23557607.6814    1354435.82849   1041938.90245  23557607.1684   23557613.0654
       215.0004        158.0004
  23193106.8654   -2577512.94749  -1998684.33846  23193106.1574   23193111.0564
       219.0004        172.0004
  24455859.9984   -1982047.33449  -1521231.27645  24455860.6204   24455864.8444
       208.0004        138.0004
 07  2 18  1 15 15.0000000  0  8G 1G14G22G19G18G 3G31G11
  21730423.8844   -1855192.85749  -1279267.10547  21730423.3714   21730428.5114
       235.0004        194.0004
  20340460.3654     -53504.38749    -68229.81647  20340459.7734   20340463.3884
       237.0004        212.0004
  21222740.6064     308062.67349    234889.24847  21222740.4334   21222742.2804
       242.0004        205.0004
  22633694.2034     269753.56549    205690.48946  22633693.1304   22633695.9714
       227.0004        183.0004
  23204776.2564    1082788.06349    831321.06645  23204774.7094   23204780.6164
       220.0004        161.0004
  23559943.1244    1366708.94249   1051502.36745  23559941.9224   23559948.6864
       216.0004        157.0004
  23189930.0754   -2594206.87049  -2011692.57546  23189930.0354   23189934.3954
       220.0004        172.0004
  24452819.8934   -1998023.26549  -1533680.04945  24452820.5154   24452825.0464
       209.0004        139.0004
 07  2 18  1 15 20.0000000  0  8G 1G14G22G19G18G 3G31G11
  21728434.5464   -1865646.90649  -1287413.11247  21728433.6784   21728439.1084
       235.0004        194.0004
  20340947.4244     -50944.88449    -66235.39547  20340946.8164   20340950.3704
       238.0004        212.0004
  21223616.5214     312665.68149    238476.01147  21223616.2164   21223618.2894
       242.0004        205.0004
  22634642.1664     274735.19749    209572.28346  22634640.7444   22634644.8724
       226.0004        183.0004
  23206693.0694    1092860.98849    839170.09545  23206692.2414   23206696.7404
       221.0004        161.0004
  23562279.5324    1378986.94949   1061069.63745  23562278.2944   23562284.8514
       216.0004        157.0004
  23186754.0064   -2610897.10549  -2024697.93646  23186753.7644   23186758.3434
       221.0004        172.0004
  24449780.6504   -2013994.49449  -1546125.16145  24449781.5784   24449785.4454
       210.0004        140.0004
 07  2 18  1 15 25.0000000  0  8G 1G14G22G19G18G 3G31G11
  21726447.1714   -1876090.58649  -1295551.04347  21726446.4744   21726451.6604
       235.0004        194.0004
  20341436.7644     -48373.53849    -64231.75047  20341436.1974   20341439.9144
       237.0004        212.0004
  21224493.2604     317273.02849    242066.14247  21224493.2294   21224494.9794
       242.0004        205.0004
  22635592.6334     279730.10849    213464.41746  22635591.5964   22635595.4344
       226.0004        183.0004
  23208610.4824    1102937.09749    847021.61345  23208610.6734   23208612.8104
       218.0004        161.0004
  23564616.8444    1391269.68349   1070640.59745  23564616.5254   23564622.5044
       216.0004        157.0004
  23183578.6004   -2627583.77849  -2037700.53546  23183578.9324   23183582.4294
       220.0004        172.0004
  24446742.2964   -2029961.15849  -1558566.71745  24446743.2724   24446747.4224
       210.0004        140.0004
 07  2 18  1 15 30.0000000  0  8G 1G14G22G19G18G 3G31G11
  21724461.7694   -1886523.93949  -1303680.92047  21724461.1294   21724466.5774
       235.0004        194.0004
  20341928.3144     -45790.38149    -62218.90047  20341927.8564   20341931.2464
       237.0004        212.0004
  21225370.8144     321884.68649    245659.64347  21225370.5124   21225372.4774
       242.0004        205.0004
  22636545.6584     284738.28049    217366.88346  22636544.8764   22636547.8954
       227.0004        183.0004
  23210528.5014    1113016.32449    854875.56045  23210527.4264   23210532.9374
       218.0004        161.0004
  23566955.0594    1403557.11349   1080215.20745  23566954.6374   23566959.9954
       215.0004        157.0004
  23180403.8924   -2644266.93649  -2050700.39446  23180404.5504   23180407.1214
       221.0004        172.0004
  24443704.8194   -2045923.29949  -1571004.74445  24443705.4154   24443708.8604
       210.0004        141.0004
 07  2 18  1 15 35.0000000  0  8G 1G14G22G19G18G 3G31G11
  21722478.2604   -1896947.21249  -1311802.94447  21722477.5524   21722482.8444
       235.0004        194.0004
  20342422.0634     -43195.68849    -60197.05947  20342421.7044   20342425.1454
       237.0004        212.0004
  21226249.1714     326500.42449    249256.32447  21226249.1144   21226251.0204
       243.0004        205.0004
  22637501.1734     289759.45649    221279.49546  22637499.9854   22637503.2424
       226.0004        182.0004
  23212447.0424    1123098.41849    862731.74145  23212446.4584   23212449.8014
       218.0004        161.0004
  23569294.1374    1415848.95149   1089793.26545  23569293.8574   23569300.1534
       214.0004        156.0004
  23177229.7974   -2660946.83049  -2063697.71146  23177229.9284   23177233.5054
       221.0004        172.0004
  24440668.1554   -2061881.14849  -1583439.42845  24440667.1684   24440672.0494
       211.0004        142.0004
 07  2 18  1 15 40.0000000  0  8G 1G14G22G19G18G 3G31G11
  21720496.6354   -1907360.51449  -1319917.19247  21720495.5344   21720501.8194
       235.0004        194.0004
  20342917.9854     -40589.57249    -58166.31147  20342917.3214   20342920.7504
       238.0004        212.0004
  21227128.2664     331120.09549    252856.07647  21227127.9254   21227130.0304
       243.0004        205.0004
  22638459.1014     294793.49449    225202.12846  22638457.7024   22638461.3224
       228.0004        182.0004
  23214366.1224    1133183.30949    870590.09845  23214365.2794   23214369.8554
       218.0004        161.0004
  23571634.0114    1428145.05549   1099374.63945  23571633.5284   23571638.9054
       215.0004        156.0004
  23174056.3574   -2677623.51249  -2076692.51946  23174056.0854   23174060.3924
       221.0004        172.0004
  24437632.2534   -2077834.81249  -1595870.85245  24437631.6804   24437636.3714
       211.0004        142.0004
 07  2 18  1 15 45.0000000  0  8G 1G14G22G19G18G 3G31G11
  21718517.1884   -1917762.56149  -1328022.68747  21718516.9644   21718522.2034
       235.0004        194.0004
  20343416.3344     -37970.73049    -56125.65947  20343415.6664   20343419.3214
       237.0004        212.0004
  21228008.3664     335744.97649    256459.87047  21228008.4164   21228010.2094
       242.0004        205.0004
  22639419.7364     299841.66949    229135.76746  22639418.9864   22639422.1374
       227.0004        182.0004
  23216285.9534    1143272.20749    878451.57745  23216285.3604   23216289.9424
       219.0004        160.0004
  23573974.9094    1440446.66049   1108960.30845  23573974.6374   23573980.3384
       215.0004        156.0004
  23170883.7244   -2694295.75449  -2089683.86246  23170883.6514   23170888.6764
       220.0004        172.0004
  24434597.4194   -2093782.96049  -1608297.97945  24434596.8514   24434601.2304
       210.0004        141.0004
 07  2 18  1 15 50.0000000  0  8G 1G14G22G19G18G 3G31G11
  21716539.6554   -1928154.51749  -1336120.31247  21716539.2034   21716544.5044
       235.0004        194.0004
  20343916.8834     -35340.36749    -54076.02647  20343916.5004   20343919.8644
       237.0004        212.0004
  21228889.2294     340373.90049    260066.82647  21228889.2064   21228890.9944
       242.0004        205.0004
  22640382.8364     304902.82349    233079.51446  22640382.1904   22640385.2164
       227.0004        182.0004
  23218206.3434    1153363.96749    886315.27745  23218205.4414   23218209.6324
       217.0004        160.0004
  23576316.6284    1452752.61749   1118549.35845  23576316.5864   23576322.1084
       216.0004        156.0004
  23167711.7424   -2710964.73249  -2102672.66546  23167711.7874   23167715.9874
       220.0004        172.0004
  24431563.3954   -2109726.79549  -1620721.75145  24431563.1314   24431566.1604
       208.0004        141.0004
 07  2 18  1 15 55.0000000  0  8G 1G14G22G19G18G 3G31G11
  21714563.9634   -1938536.76049  -1344210.36347  21714563.6004   21714569.0104
       236.0004        194.0004
  20344419.5284     -32698.91849    -52017.75247  20344418.9824   20344422.6644
       238.0004        212.0004
  21229770.7944     345006.49849    263676.64447  21229770.6264   21229772.5934
       243.0004        205.0004
  22641348.3484     309976.54849    237033.06846  22641347.3714   22641350.8874
       229.0004        182.0004
  23220127.2044    1163458.24349    894180.93945  23220126.2414   23220130.7274
       220.0004        160.0004
  23578659.1034    1465062.52149   1128141.48945  23578658.3254   23578664.6784
       217.0004        157.0004
  23164540.2834   -2727630.71249  -2115659.13046  23164540.7324   23164544.5744
       221.0004        172.0004
  24428530.1544   -2125666.66949  -1633142.42745  24428530.0714   24428532.6544
       207.0004        140.0004
 07  2 18  1 16  0.0000000  0  8G 1G14G22G19G18G 3G31G11
  21712590.3414   -1948908.23949  -1352292.02847  21712589.7074   21712595.2064
       234.0004        194.0004
  20344924.4914     -30045.27849    -49949.97847  20344923.9824   20344927.5224
       237.0004        212.0004
  21230653.2364     349643.83349    267290.15447  21230653.2454   21230654.7594
       242.0004        205.0004
  22642316.4664     315063.92249    240997.24946  22642315.7014   22642318.9394
       227.0004        182.0004
  23222048.7504    1173556.10349    902049.41645  23222047.7914   23222051.5974
       218.0004        160.0004
  23581002.5764    1477377.42149   1137737.51745  23581002.7914   23581008.3354
       217.0004        157.0004
  23161369.5944   -2744292.62149  -2128642.43046  23161369.4984   23161373.6474
       221.0004        172.0004
  24425497.8344   -2141601.48849  -1645559.16845  24425498.0904   24425500.9964
       208.0004        139.0004
 07  2 18  1 16  5.0000000  0  8G 1G14G22G19G18G 3G31G11
  21710618.6844   -1959269.33049  -1360365.59847  21710617.7024   21710623.6214
       235.0004        194.0004
  20345431.7014     -27379.84649    -47873.01347  20345431.1114   20345434.6804
       237.0004        212.0004
  21231536.5134     354285.48949    270907.02847  21231536.1034   21231538.2994
       242.0004        205.0004
  22643287.0894     320164.49749    244971.72446  22643286.4894   22643289.5934
       228.0004        182.0004
  23223970.9164    1183657.09149    909920.30645  23223971.0794   23223974.6904
       216.0004        160.0004
  23583346.9344    1489696.94149   1147337.13445  23583347.2284   23583352.4484
       217.0004        157.0004
  23158199.6224   -2760950.87349  -2141622.87946  23158200.0924   23158203.7534
       221.0004        172.0004
  24422466.3874   -2157531.64249  -1657972.26845  24422466.1684   24422469.6754
       206.0004        139.0004
 07  2 18  1 16 10.0000000  0  8G 1G14G22G19G18G 3G31G11
  21708648.9744   -1969620.19349  -1368431.19547  21708648.3064   21708653.9234
       236.0004        194.0004
  20345941.1204     -24702.80549    -45787.00647  20345940.4884   20345944.1244
       238.0004        212.0004
  21232420.5984     358931.36049    274527.18747  21232420.2214   21232422.3934
       242.0004        205.0004
  22644260.2214     325278.14049    248956.38646  22644259.4054   22644262.8264
       227.0004        182.0004
  23225893.6314    1193761.07549    917793.53545  23225892.4194   23225897.4394
       219.0004        160.0004
  23585692.1434    1502020.92849   1156940.23645  23585692.0554   23585697.7864
       218.0004        158.0004
  23155030.3244   -2777605.58449  -2154600.56546  23155030.7164   23155034.8864
       220.0004        172.0004
  24419435.8024   -2173457.31849  -1670381.87945  24419435.7464   24419439.2284
       206.0004        139.0004
 07  2 18  1 16 15.0000000  0  8G 1G14G22G19G18G 3G31G11
  21706681.2224   -1979960.80549  -1376488.81047  21706680.5884   21706686.0054
       235.0004        194.0004
  20346452.7684     -22014.13549    -43691.93847  20346452.2044   20346455.7654
       238.0004        212.0004
  21233305.4794     363581.41349    278150.60547  21233305.2994   21233307.0304
       241.0004        205.0004
  22645235.8144     330404.87849    252951.23946  22645234.8404   22645238.5534
       227.0004        183.0004
  23227816.9074    1203868.10249    925669.12845  23227815.7084   23227820.1784
       217.0004        160.0004
  23588038.2054    1514349.29949   1166546.76545  23588038.1114   23588044.5544
       217.0004        158.0004
  23151861.7254   -2794256.75249  -2167575.49146  23151862.1494   23151866.1644
       221.0004        172.0004
  24416406.0594   -2189378.44149  -1682787.93645  24416405.4444   24416408.9434
       208.0004        139.0004
 07  2 18  1 16 20.0000000  0  8G 1G14G22G19G18G 3G31G11
  21704715.4814   -1990290.85449  -1384538.19447  21704714.9984   21704720.7284
       236.0004        194.0004
  20346966.6774     -19313.53049    -41587.57047  20346966.0194   20346969.8214
       237.0004        212.0004
  21234191.1824     368235.97449    281777.53347  21234191.0654   21234193.0314
       242.0004        205.0004
  22646213.9504     335544.95649    256956.49246  22646213.2734   22646216.8904
       227.0004        182.0004
  23229740.8374    1213978.43849    933547.32145  23229740.3154   23229744.3914
       218.0004        160.0004
  23590385.1434    1526682.42249   1176156.98445  23590385.5164   23590391.1504
       215.0004        158.0004
  23148693.8454   -2810904.05349  -2180547.40946  23148693.9734   23148698.4244
       221.0004        172.0004
  24413377.2894   -2205294.71749  -1695190.22345  24413376.1314   24413380.7704
       208.0004        139.0004
 07  2 18  1 16 25.0000000  0  8G 1G14G22G19G18G 3G31G11
  21702751.6594   -2000610.76349  -1392579.67647  21702751.3284   21702756.6034
       235.0004        194.0004
  20347482.7784     -16601.42349    -39474.24047  20347482.2614   20347485.8774
       237.0004        212.0004
  21235077.7144     372894.65449    285407.67347  21235077.5824   21235079.5234
       241.0004        205.0004
  22647194.5194     340697.97849    260971.82946  22647193.7444   22647197.4494
       227.0004        182.0004
  23231665.3344    1224091.73149    941427.80145  23231664.7734   23231669.1104
       218.0004        160.0004
  23592732.8914    1539019.81749   1185770.52845  23592732.1714   23592738.5144
       214.0004        158.0004
  23145526.6164   -2827547.85349  -2193516.58746  23145526.5754   23145531.2384
       220.0004        173.0004
  24410349.3484   -2221206.55049  -1707589.04445  24410348.2884   24410353.4094
       207.0004        139.0004
 07  2 18  1 16 30.0000000  0  8G 1G14G22G19G18G 3G31G11
  21700789.8504   -2010920.18649  -1400612.98547  21700789.5164   21700794.5714
       237.0004        194.0004
  20348001.0984     -13877.49949    -37351.69947  20348000.6324   20348003.9804
       238.0004        212.0004
  21235965.0504     377557.76749    289041.26947  21235964.7874   21235966.8094
       243.0004        205.0004
  22648177.6244     345864.27749    264997.51946  22648176.6144   22648179.9444
       228.0004        183.0004
  23233590.4584    1234208.24749    949310.80345  23233589.9504   23233594.0084
       218.0004        160.0004
  23595081.5094    1551361.84049   1195387.69245  23595080.5364   23595086.4314
       215.0004        157.0004
  23142360.1224   -2844187.85449  -2206482.81246  23142360.6174   23142364.3264
       221.0004        173.0004
  24407322.3164   -2237113.62449  -1719984.15245  24407321.5234   24407326.6044
       209.0004        139.0004
 07  2 18  1 16 35.0000000  0  8G 1G14G22G19G18G 3G31G11
  21698829.9884   -2021219.35149  -1408638.30347  21698829.7734   21698834.5924
       236.0004        194.0004
  20348521.6614     -11141.95749    -35220.10448  20348521.0724   20348524.5984
       238.0004        213.0004
  21236853.2284     382225.09249    292678.14847  21236853.1624   21236855.2434
       242.0004        205.0004
  22649163.2544     351043.65049    269033.39646  22649162.5414   22649166.1074
       227.0004        183.0004
  23235516.1164    1244327.81249    957196.17145  23235516.1174   23235519.4934
       219.0004        160.0004
  23597430.9244    1563708.27549   1205008.28745  23597429.5294   23597435.9204
       214.0004        157.0004
  23139194.3004   -2860824.23549  -2219446.21746  23139194.1494   23139198.7334
       221.0004        173.0004
  24404296.1824   -2253016.08749  -1732375.66945  24404295.5384   24404299.6864
       209.0004        140.0004
 07  2 18  1 16 40.0000000  0  8G 1G14G22G19G18G 3G31G11
  21696872.0604   -2031508.28249  -1416655.65247  21696871.5584   21696876.8854
       236.0004        194.0004
  20349044.4214      -8394.87449    -33079.51447  20349043.8804   20349047.4234
       238.0004        212.0004
  21237742.1914     386896.59749    296318.28247  21237741.9874   21237743.9684
       242.0004        205.0004
  22650151.3204     356236.00249    273079.38646  22650150.3874   22650153.8504
       227.0004        183.0004
  23237442.3864    1254450.38349    965083.90045  23237441.9544   23237444.9974
       220.0004        160.0004
  23599781.1714    1576059.05549   1214632.26745  23599779.3934   23599787.6074
       213.0004        156.0004
  23136029.2024   -2877457.01349  -2232406.81146  23136028.8804   23136032.9174
       220.0004        173.0004
  24401270.9264   -2268913.99349  -1744763.63345  24401269.9424   24401274.6364
       212.0004        141.0004
 07  2 18  1 16 45.0000000  0  8G 1G14G22G19G18G 3G31G11
  21694916.1314   -2041786.79249  -1424664.87247  21694915.5334   21694920.9574
       236.0004        194.0004
  20349569.4294      -5636.02449    -30929.76147  20349568.9074   20349572.5254
       238.0004        212.0004
  21238631.9744     391572.48149    299961.82847  21238631.6514   21238633.7104
       242.0004        205.0004
  22651141.9064     361441.54249    277135.65046  22651140.9014   22651144.4444
       227.0004        182.0004
  23239369.2784    1264576.15449    972974.11545  23239368.4204   23239373.0554
       219.0004        160.0004
  23602132.2654    1588414.43049   1224259.82545  23602130.9654   23602137.3034
       212.0004        156.0004
  23132864.7864   -2894086.01749  -2245364.47346  23132864.9014   23132868.6854
       221.0004        173.0004
  24398246.6074   -2284807.15649  -1757147.90645  24398246.5354   24398250.4294
       212.0004        142.0004
 07  2 18  1 16 50.0000000  0  8G 1G14G22G19G18G 3G31G11
  21692962.2724   -2052054.46649  -1432665.65747  21692961.9054   21692967.1814
       235.0004        194.0004
  20350096.7254      -2865.00949    -28770.53047  20350096.3314   20350099.7004
       237.0004        212.0004
  21239522.6774     396253.11049    303609.07347  21239522.5744   21239524.5084
       242.0004        205.0004
  22652135.0464     366660.63549    281202.48146  22652134.3544   22652137.7394
       226.0004        182.0004
  23241296.8634    1274705.51349    980867.12545  23241296.5354   23241299.9294
       219.0004        161.0004
  23604484.2824    1600774.73949   1233891.23245  23604481.6974   23604490.0944
       213.0004        155.0004
  23129701.1614   -2910710.79749  -2258318.84046  23129700.9214   23129705.2454
       221.0004        172.0004
  24395223.2524   -2300695.15449  -1769528.15245  24395223.3684   24395226.7314
       213.0004        143.0004
 07  2 18  1 16 55.0000000  0  8G 1G14G22G19G18G 3G31G11
  21691010.2504   -2062312.37249  -1440658.82447  21691009.8964   21691015.1524
       236.0004        195.0004
  20350626.1544        -82.91349    -26602.66247  20350625.7654   20350629.2614
       237.0004        212.0004
  21240414.0884     400937.47149    307259.22047  21240413.7984   21240415.8664
       241.0004        205.0004
  22653130.5574     371892.23649    285279.05046  22653129.0354   22653133.1104
       227.0004        182.0004
  23243224.8794    1284837.39849    988762.10245  23243224.3814   23243228.3304
       220.0004        161.0004
  23606837.0574    1613138.87749   1243525.61245  23606836.5074   23606841.9304
       212.0004        155.0004
  23126538.1654   -2927332.42249  -2271270.75046  23126538.1114   23126542.4504
       219.0004        172.0004
  24392200.6564   -2316579.02049  -1781905.17745  24392200.6514   24392204.6314
       213.0004        144.0004
 07  2 18  1 17  0.0000000  0  8G 1G14G22G19G18G 3G31G11
  21689060.2044   -2072559.90849  -1448643.91247  21689059.5374   21689064.7744
       237.0004        195.0004
  20351157.7804       2710.84649    -24425.70447  20351157.2074   20351160.7664
       238.0004        212.0004
  21241306.3214     405626.16449    310912.74847  21241306.0704   21241308.2354
       242.0004        205.0004
  22654128.5534     377136.92849    289365.81646  22654127.4944   22654130.9124
       227.0004        182.0004
  23245153.5234    1294972.42049    996659.52045  23245152.7664   23245157.3134
       220.0004        161.0004
  23609190.6484    1625507.41049   1253163.42045  23609190.4484   23609195.9844
       213.0004        155.0004
  23123375.8554   -2943950.31549  -2284219.74646  23123375.0314   23123379.9274
       219.0004        172.0004
  24389179.0044   -2332458.15449  -1794278.51845  24389179.0134   24389182.8434
       214.0004        145.0004
 07  2 18  1 17  5.0000000  0  8G 1G14G22G19G18G 3G31G11
  21687112.1754   -2082796.86149  -1456620.74647  21687111.5754   21687116.6124
       235.0004        195.0004
  20351691.6674       5516.49849    -22239.47547  20351691.0474   20351694.4224
       237.0004        212.0004
  21242199.3844     410319.35849    314569.78947  21242198.8224   21242201.2784
       242.0004        205.0004
  22655129.1004     382394.92549    293462.96146  22655128.2014   22655131.3834
       227.0004        182.0004
  23247082.7954    1305110.81349   1004559.56545  23247083.1294   23247086.6634
       221.0004        161.0004
  23611545.1484    1637880.49449   1262804.79645  23611544.4784   23611550.5554
       213.0004        155.0004
  23120214.3184   -2960564.19949  -2297165.60846  23120213.8094   23120218.6444
       219.0004        172.0004
  24386158.2484   -2348332.33649  -1806647.99845  24386157.9144   24386162.5974
       213.0004        146.0004
 07  2 18  1 17 10.0000000  0  8G 1G14G22G19G18G 3G31G11
  21685166.1244   -2093023.33049  -1464589.42347  21685165.7424   21685170.8734
       237.0004        195.0004
  20352227.8114       8333.91049    -20044.09147  20352227.2564   20352230.7594
       238.0004        212.0004
  21243093.3144     415016.96549    318230.25747  21243093.0434   21243095.3294
       242.0004        205.0004
  22656132.1514     387666.12749    297570.38946  22656131.3974   22656134.5264
       227.0004        182.0004
  23249012.7224    1315252.43749   1012462.13745  23249012.3544   23249015.6284
       220.0004        161.0004
  23613900.4904    1650258.05549   1272449.65045  23613898.7484   23613906.9884
       214.0004        155.0004
  23117053.5014   -2977174.16549  -2310108.43546  23117053.5174   23117057.9594
       220.0004        172.0004
  24383138.4074   -2364201.65949  -1819013.69545  24383137.9554   24383142.5794
       212.0004        147.0004
 07  2 18  1 17 15.0000000  0  8G 1G14G22G19G18G 3G31G11
  21683222.0144   -2103239.79849  -1472550.30547  21683221.8884   21683226.9504
       237.0004        195.0004
  20352766.0894      11162.59749    -17839.91747  20352765.5044   20352769.2014
       238.0004        212.0004
  21243987.9844     419718.51049    321893.79547  21243988.1034   21243989.9254
       242.0004        205.0004
  22657137.6254     392950.01249    301687.70246  22657136.5114   22657139.9314
       227.0004        182.0004
  23250943.1304    1325396.82249   1020366.85045  23250941.5784   23250946.8724
       217.0004        161.0004
  23616256.5844    1662639.66549   1282097.66445  23616256.0164   23616262.7384
       214.0004        155.0004
  23113893.3904   -2993780.70649  -2323048.58346  23113893.4054   23113897.3804
       220.0004        172.0004
  24380119.3774   -2380066.61349  -1831375.98745  24380118.4754   24380123.3704
       212.0004        147.0004
 07  2 18  1 17 20.0000000  0  8G 1G14G22G19G18G 3G31G11
  21681279.9004   -2113445.67949  -1480502.92547  21681279.3534   21681284.4244
       236.0004        195.0004
  20353306.6314      14003.16449    -15626.48547  20353306.0894   20353309.6594
       237.0004        212.0004
  21244883.5324     424424.59549    325560.87947  21244883.2234   21244885.2124
       241.0004        205.0004
  22658145.6704     398247.20149    305815.38546  22658144.7434   22658148.3704
       227.0004        182.0004
  23252874.1834    1335544.58649   1028274.19145  23252873.6514   23252878.1284
       220.0004        161.0004
  23618613.6064    1675025.94549   1291749.30345  23618613.9444   23618619.2844
       213.0004        155.0004
  23110734.0264   -3010383.18149  -2335985.57646  23110734.4614   23110738.7974
       220.0004        172.0004
  24377101.2764   -2395926.55749  -1843734.37645  24377100.6444   24377105.8244
       212.0004        147.0004
 07  2 18  1 17 25.0000000  0  8G 1G14G22G19G18G 3G31G11
  21679339.7234   -2123641.36849  -1488447.61147  21679338.9464   21679344.6074
       236.0004        195.0004
  20353849.3464      16855.15449    -13404.15547  20353848.7744   20353852.2734
       237.0004        212.0004
  21245779.8394     429134.80349    329231.17247  21245779.4834   21245781.7624
       241.0004        205.0004
  22659156.1374     403557.24949    309953.08746  22659155.6134   22659158.7094
       227.0004        182.0004
  23254805.7954    1345695.29849   1036183.85145  23254805.6634   23254809.1544
       219.0004        161.0004
  23620971.3894    1687416.35549   1301404.17045  23620970.6124   23620976.2224
       214.0004        155.0004
  23107575.3624   -3026982.02049  -2348919.72046  23107575.1894   23107579.7254
       219.0004        172.0004
  24374084.0934   -2411781.89849  -1856089.17745  24374083.8634   24374088.2594
       212.0004        148.0004
 07  2 18  1 17 30.0000000  0  8G 1G14G22G19G18G 3G31G11
  21677401.5684   -2133826.57249  -1496384.13547  21677400.9084   21677406.3694
       236.0004        195.0004
  20354394.2714      19718.87549    -11172.68547  20354393.7364   20354397.3624
       238.0004        212.0004
  21246677.0004     433849.43549    332904.90847  21246676.8224   21246679.1664
       242.0004        205.0004
  22660169.1354     408880.42849    314101.01046  22660168.5524   22660171.5694
       228.0004        182.0004
  23256738.0374    1355849.25549   1044096.01545  23256736.2964   23256742.9104
       218.0004        161.0004
  23623330.0574    1699811.19249   1311062.48545  23623330.1594   23623336.3534
       215.0004        155.0004
  23104417.4324   -3043576.90049  -2361850.79546  23104417.5654   23104421.2334
       219.0004        172.0004
  24371067.8164   -2427632.33549  -1868440.16045  24371067.0814   24371071.9534
       212.0004        148.0004
 07  2 18  1 17 35.0000000  0  8G 1G14G22G19G18G 3G31G11
  21675465.4384   -2144000.84149  -1504312.12847  21675464.6984   21675470.5664
       235.0004        195.0004
  20354941.5424      22594.76249     -8931.73247  20354941.0384   20354944.5354
       237.0004        212.0004
  21247575.0994     438568.96049    336582.45647  21247575.0004   21247577.1164
       241.0004        205.0004
  22661184.7204     414217.18849    318259.52746  22661184.4584   22661187.0284
       227.0004        182.0004
  23258670.9624    1366006.91349   1052011.06045  23258671.7874   23258674.6274
       222.0004        161.0004
  23625689.6484    1712210.88249   1320724.56945  23625690.0054   23625695.2574
       215.0004        156.0004
  23101260.3404   -3060167.24249  -2374778.31946  23101259.9414   23101264.2814
       219.0004        172.0004
  24368052.5794   -2443477.40849  -1880786.96145  24368051.8294   24368056.2924
       211.0004        148.0004
 07  2 18  1 17 40.0000000  0  8G 1G14G22G19G18G 3G31G11
  21673531.1514   -2154165.55949  -1512232.68547  21673530.9474   21673536.0534
       236.0004        195.0004
  20355490.8354      25481.40849     -6682.39447  20355490.2274   20355493.9044
       237.0004        212.0004
  21248473.8724     443291.94849    340262.71047  21248473.7184   21248475.7984
       241.0004        205.0004
  22662202.6104     419566.13449    322427.53246  22662202.2244   22662204.9514
       227.0004        182.0004
  23260604.3604    1376166.87149   1059927.92845  23260603.0804   23260606.6514
       218.0004        161.0004
  23628049.9304    1724614.04849   1330389.36745  23628049.9714   23628056.9474
       215.0004        156.0004
  23098103.8084   -3076754.61149  -2387703.53246  23098103.6364   23098108.5064
       219.0004        171.0004
  24365038.0854   -2459318.51049  -1893130.67045  24365037.0864   24365041.9654
       211.0004        148.0004
 07  2 18  1 17 45.0000000  0  8G 1G14G22G19G18G 3G31G11
  21671598.9164   -2164319.49949  -1520144.84147  21671598.3054   21671603.2474
       237.0004        195.0004
  20356042.4264      28380.03749     -4423.71847  20356041.7564   20356045.4294
       237.0004        212.0004
  21249373.5034     448019.61849    343946.61447  21249373.2754   21249375.5224
       242.0004        205.0004
  22663223.0534     424928.49449    326605.99546  22663222.2984   22663225.4924
       227.0004        182.0004
  23262538.4044    1386330.33649   1067847.50145  23262537.8504   23262542.2424
       219.0004        161.0004
  23630411.1164    1737021.90649   1340057.82345  23630410.8974   23630417.8774
       215.0004        156.0004
  23094948.1154   -3093337.74049  -2400625.44646  23094948.3204   23094952.7724
       220.0004        171.0004
  24362024.5724   -2475154.41549  -1905470.32345  24362023.9024   24362027.9934
       211.0004        148.0004
 07  2 18  1 17 50.0000000  0  8G 1G14G22G19G18G 3G31G11
  21669668.6404   -2174463.15149  -1528048.98047  21669668.2414   21669673.2914
       236.0004        195.0004
  20356596.2254      31290.15949     -2156.09147  20356595.5924   20356599.2754
       237.0004        212.0004
  21250273.9684     452751.53149    347633.81547  21250273.7924   21250276.0664
       242.0004        205.0004
  22664245.9624     430303.72749    330794.49346  22664244.9504   22664248.5814
       227.0004        182.0004
  23264473.0344    1396496.83149   1075769.44545  23264472.3214   23264476.8304
       219.0004        161.0004
  23632773.0874    1749433.87049   1349729.47645  23632773.3214   23632779.4184
       214.0004        156.0004
  23091793.1144   -3109917.07249  -2413544.39346  23091793.4244   23091798.2864
       222.0004        172.0004
  24359011.9564   -2490985.60449  -1917806.30245  24359011.1974   24359015.3804
       212.0004        148.0004
 07  2 18  1 17 55.0000000  0  8G 1G14G22G19G18G 3G31G11
  21667740.4124   -2184596.04549  -1535944.74147  21667740.0964   21667745.0004
       237.0004        195.0004
  20357152.2634      34212.24149       120.85847  20357151.8574   20357155.2184
       238.0004        212.0004
  21251175.3174     457488.15649    351324.69447  21251175.0884   21251177.1274
       242.0004        205.0004
  22665271.4004     435692.32749    334993.39946  22665270.7204   22665274.1944
       228.0004        182.0004
  23266408.3374    1406666.83949   1083694.12145  23266407.2714   23266410.4664
       219.0004        161.0004
  23635135.9084    1761850.52749   1359404.79045  23635135.5364   23635142.0704
       215.0004        156.0004
  23088638.9944   -3126492.11649  -2426460.00446  23088639.4284   23088643.4234
       221.0004        172.0004
  24356000.3414   -2506811.55549  -1930138.20445  24355999.6924   24356004.2944
       211.0004        147.0004
 07  2 18  1 18  0.0000000  0  8G 1G14G22G19G18G 3G31G11
  21665814.0484   -2194719.08249  -1543832.81147  21665813.3004   21665818.6524
       236.0004        195.0004
  20357710.4264      37145.35149      2406.40447  20357709.8014   20357713.4044
       237.0004        212.0004
  21252077.3964     462228.55749    355018.51347  21252077.0434   21252079.3204
       241.0004        205.0004
  22666299.2144     441093.34649    339201.98846  22666297.5094   22666301.9814
       226.0004        182.0004
  23268344.1144    1416839.42349   1091620.81845  23268343.7814   23268347.6044
       220.0004        161.0004
  23637499.4734    1774270.96849   1369083.05245  23637499.0704   23637505.4854
       213.0004        157.0004
  23085485.5494   -3143063.77449  -2439372.98246  23085486.0014   23085490.1144
       221.0004        172.0004
  24352989.5764   -2522633.18549  -1942466.73445  24352989.2664   24352993.7364
       211.0004        148.0004
 07  2 18  1 18  5.0000000  0  8G 1G14G22G19G18G 3G31G11
  21663889.7394   -2204831.32649  -1551712.47847  21663889.2624   21663894.5044
       237.0004        195.0004
  20358270.8454      40090.43549      4701.27347  20358270.3234   20358273.8374
       237.0004        212.0004
  21252980.3434     466973.65949    358715.99447  21252979.9584   21252982.3094
       241.0004        205.0004
  22667329.5334     446507.76249    343421.01246  22667328.5554   22667331.9024
       226.0004        182.0004
  23270280.5904    1427015.54849   1099550.26945  23270279.6014   23270284.2464
       219.0004        161.0004
  23639863.8854    1786695.96749   1378764.86845  23639863.3534   23639869.6604
       214.0004        157.0004
  23082332.9034   -3159631.10849  -2452282.58346  23082333.3534   23082336.7254
       220.0004        172.0004
  24349979.8044   -2538449.56849  -1954791.17545  24349979.2904   24349983.8714
       211.0004        148.0004
 07  2 18  1 18 10.0000000  0  8G 1G14G22G19G18G 3G31G11
  21661967.4084   -2214933.32249  -1559584.16147  21661967.2324   21661971.9334
       236.0004        195.0004
  20358833.4524      43046.93549      7005.04047  20358833.0634   20358836.4164
       237.0004        212.0004
  21253884.1174     471722.95649    362416.74447  21253883.9224   21253886.0844
       241.0004        205.0004
  22668362.3254     451935.03349    347650.05946  22668360.9204   22668364.4544
       226.0004        182.0004
  23272217.6294    1437194.70149   1107482.05845  23272216.8004   23272220.2954
       221.0004        161.0004
  23642229.0334    1799125.06549   1388449.88145  23642228.0864   23642235.3364
       214.0004        157.0004
  23079181.0064   -3176194.63149  -2465189.21146  23079180.7664   23079185.7164
       220.0004        172.0004
  24346970.9384   -2554261.21249  -1967111.92945  24346970.9334   24346975.0664
       212.0004        148.0004
 07  2 18  1 18 15.0000000  0  8G 1G14G22G19G18G 3G31G11
  21660046.9604   -2225025.31749  -1567448.04747  21660046.7924   21660051.4854
       237.0004        195.0004
  20359398.1504      46014.56249      9317.47647  20359397.7224   20359401.1334
       238.0004        212.0004
  21254788.6024     476476.16849    366120.54547  21254788.3664   21254790.6704
       241.0004        205.0004
  22669397.4704     457374.84249    351888.87046  22669396.2844   22669400.3864
       228.0004        182.0004
  23274155.1924    1447376.59249   1115416.00645  23274154.7484   23274158.4894
       221.0004        161.0004
  23644594.9254    1811557.94549   1398137.83645  23644594.4684   23644601.1534
       214.0004        157.0004
  23076029.7734   -3192754.57849  -2478093.05346  23076029.7674   23076034.0234
       221.0004        172.0004
  24343962.9164   -2570068.39149  -1979429.20045  24343962.9354   24343966.9934
       213.0004        149.0004
 07  2 18  1 18 20.0000000  0  8G 1G14G22G19G18G 3G31G11
  21658128.5944   -2235106.43549  -1575303.45747  21658128.0004   21658133.2424
       236.0004        195.0004
  20359965.1514      48994.21149     11639.28447  20359964.6604   20359968.1744
       238.0004        212.0004
  21255694.0344     481234.18349    369828.09147  21255693.8294   21255695.8204
       241.0004        205.0004
  22670435.1884     462828.09349    356138.15146  22670434.4654   22670437.6084
       227.0004        182.0004
  23276093.4224    1457562.11449   1123352.77945  23276092.5764   23276096.9024
       219.0004        161.0004
  23646961.6864    1823995.51049   1407829.43545  23646961.2394   23646967.4704
       216.0004        157.0004
  23072879.3894   -3209310.06349  -2490993.42446  23072878.8584   23072884.2394
       221.0004        172.0004
  24340955.9424   -2585870.18749  -1991742.28145  24340956.2574   24340959.6744
       215.0004        149.0004
 07  2 18  1 18 25.0000000  0  8G 1G14G22G19G18G 3G31G11
  21656212.2194   -2245177.16549  -1583150.77747  21656211.5474   21656216.7764
       235.0004        195.0004
  20360534.3764      51985.39949     13970.08047  20360533.9364   20360537.3164
       237.0004        212.0004
  21256600.2684     485996.50849    373538.99147  21256600.0124   21256602.2814
       241.0004        205.0004
  22671475.3514     468294.24449    360397.48946  22671474.4754   22671477.7414
       227.0004        182.0004
  23278032.2734    1467750.76349   1131291.98245  23278031.5444   23278034.6784
       220.0004        161.0004
  23649329.2894    1836437.29349   1417524.32645  23649328.7004   23649334.6974
       214.0004        157.0004
  23069729.7414   -3225861.57049  -2503890.69546  23069729.9884   23069733.7954
       221.0004        172.0004
  24337949.8814   -2601667.11849  -2004051.56945  24337950.4484   24337954.1134
       215.0004        150.0004
 07  2 18  1 18 30.0000000  0  8G 1G14G22G19G18G 3G31G11
  21654297.7944   -2255237.52049  -1590990.00747  21654297.1324   21654302.3514
       236.0004        195.0004
  20361105.7704      54988.07749     16309.83147  20361105.4004   20361108.8394
       238.0004        212.0004
  21257507.3284     490763.15249    377253.26247  21257507.2744   21257509.0934
       241.0004        205.0004
  22672517.9814     473773.30049    364666.88346  22672517.3034   22672520.8574
       227.0004        182.0004
  23279971.6914    1477942.49649   1139233.60245  23279971.7114   23279975.8704
       220.0004        161.0004
  23651697.6814    1848883.15049   1427222.39645  23651697.0914   23651703.5024
       214.0004        157.0004
  23066580.8414   -3242409.10749  -2516784.87446  23066581.2984   23066584.8244
       222.0004        172.0004
  24334944.7694   -2617459.15849  -2016357.04845  24334945.3884   24334949.1324
       215.0004        150.0004
 07  2 18  1 18 35.0000000  0  8G 1G14G22G19G18G 3G31G11
  21652385.3294   -2265287.52349  -1598821.17247  21652384.9364   21652389.9234
       236.0004        195.0004
  20361679.3344      58002.20049     18658.50147  20361678.7534   20361682.4424
       238.0004        212.0004
  21258415.2074     495534.05949    380970.85547  21258415.0164   21258417.0814
       242.0004        205.0004
  22673563.0634     479265.22649    368946.30246  22673562.3794   22673565.6504
       227.0004        182.0004
  23281911.7224    1488137.34349   1147177.64045  23281910.5594   23281915.4514
       218.0004        161.0004
  23654066.8494    1861333.09649   1436923.64545  23654066.3514   23654072.4214
       213.0004        156.0004
  23063432.7454   -3258952.66449  -2529675.95146  23063433.1174   23063436.9814
       222.0004        172.0004
  24331940.6044   -2633246.32749  -2028658.73245  24331941.1084   24331945.0334
       215.0004        151.0004
 07  2 18  1 18 40.0000000  0  8G 1G14G22G19G18G 3G31G11
  21650474.8514   -2275327.27549  -1606644.35047  21650474.4784   21650479.6224
       236.0004        195.0004
  20362255.0494      61027.69149     21016.02747  20362254.6244   20362257.9984
       238.0004        212.0004
  21259323.8964     500309.13649    384691.69547  21259323.6564   21259325.5664
       242.0004        205.0004
  22674610.5674     484769.88849    373235.65646  22674609.3754   22674612.5224
       227.0004        182.0004
  23283852.3074    1498335.15049   1155123.97245  23283851.9554   23283855.1084
       220.0004        161.0004
  23656436.7424    1873786.99049   1446627.97345  23656436.7204   23656442.2964
       213.0004        156.0004
  23060285.3314   -3275492.34549  -2542564.00546  23060284.9074   23060289.1414
       221.0004        172.0004
  24328937.3324   -2649028.73249  -2040956.70445  24328937.8474   24328941.6914
       214.0004        151.0004
 07  2 18  1 18 45.0000000  0  8G 1G14G22G19G18G 3G31G11
  21648566.3744   -2285356.42849  -1614459.27347  21648565.9104   21648570.9674
       236.0004        195.0004
  20362833.0144      64064.87249     23382.66247  20362832.5944   20362836.1754
       237.0004        212.0004
  21260233.4044     505088.74049    388416.05947  21260233.4674   21260235.4394
       241.0004        205.0004
  22675660.5844     490287.64549    377535.20646  22675659.2784   22675663.4424
       226.0004        181.0004
  23285793.5124    1508536.30649   1163072.93645  23285792.5414   23285796.8794
       219.0004        161.0004
  23658807.4754    1886245.19949   1456335.67745  23658806.8194   23658812.8124
       215.0004        156.0004
  23057138.7554   -3292027.78049  -2555448.74946  23057138.1654   23057143.7984
       221.0004        172.0004
  24325935.0714   -2664806.00349  -2053250.67945  24325935.6054   24325938.9884
       214.0004        151.0004
 07  2 18  1 18 50.0000000  0  8G 1G14G22G19G18G 3G31G11
  21646659.8834   -2295375.06049  -1622265.99247  21646659.4104   21646664.5064
       237.0004        195.0004
  20363413.1884      67113.67449     25758.35947  20363412.5434   20363416.1614
       239.0004        212.0004
  21261143.7834     509872.79549    392143.90147  21261143.6374   21261145.4634
       243.0004        205.0004
  22676713.0474     495818.42249    381844.90746  22676711.6094   22676715.5744
       227.0004        181.0004
  23287735.3544    1518740.75549   1171024.45845  23287734.8074   23287738.4424
       219.0004        160.0004
  23661178.9914    1898707.64849   1466046.66545  23661178.4474   23661185.1284
       216.0004        155.0004
  23053992.9144   -3308559.02349  -2568330.21546  23053992.9234   23053997.7734
       223.0004        172.0004
  24322933.8004   -2680578.22149  -2065540.71145  24322934.6234   24322937.3074
       214.0004        150.0004
 07  2 18  1 18 55.0000000  0  8G 1G14G22G19G18G 3G31G11
  21644755.4014   -2305383.16049  -1630064.50647  21644754.7384   21644760.1004
       236.0004        195.0004
  20363995.5774      70174.10549     28143.10747  20363995.1604   20363998.5954
       238.0004        212.0004
  21262055.0324     514661.27049    395875.18047  21262054.7064   21262056.8184
       242.0004        205.0004
  22677767.9544     501362.17449    386164.70646  22677766.9094   22677770.4894
       226.0004        181.0004
  23289677.8084    1528948.46049   1178978.51145  23289677.1624   23289681.4064
       219.0004        160.0004
  23663551.3234    1911174.28249   1475760.92745  23663550.4654   23663557.2664
       214.0004        156.0004
  23050847.9034   -3325086.08549  -2581208.43946  23050848.1604   23050852.0564
       222.0004        173.0004
  24319933.4574   -2696345.38249  -2077826.80245  24319934.0604   24319936.7754
       214.0004        150.0004
 07  2 18  1 19  0.0000000  0  8G 1G14G22G19G18G 3G31G11
  21642852.8544   -2315381.21949  -1637855.19947  21642852.2854   21642857.3204
       236.0004        195.0004
  20364580.0714      73245.60749     30536.48647  20364579.4254   20364583.0954
       238.0004        212.0004
  21262966.9984     519453.70649    399609.54747  21262966.7344   21262968.9644
       242.0004        205.0004
  22678825.2724     506918.43049    390494.25446  22678824.2474   22678827.6514
       227.0004        181.0004
  23291620.8004    1539158.94449   1186934.74145  23291620.2074   23291623.9764
       218.0004        160.0004
  23665924.3544    1923644.68849   1485478.12345  23665924.0424   23665929.7224
       215.0004        156.0004
  23047703.6044   -3341609.42549  -2594083.77246  23047703.9374   23047707.6614
       222.0004        173.0004
  24316933.9444   -2712107.97749  -2090109.33245  24316934.3074   24316936.9634
       212.0004        150.0004
 07  2 18  1 19  5.0000000  0  8G 1G14G22G19G18G 3G31G11
  21640952.2634   -2325368.84049  -1645637.75247  21640951.9014   21640957.0494
       237.0004        195.0004
  20365166.7634      76328.60049     32938.82447  20365166.1494   20365169.7034
       239.0004        212.0004
  21263879.8194     524250.50949    403347.31447  21263879.4834   21263881.7494
       243.0004        205.0004
  22679885.0394     512487.56449    394833.84646  22679884.4334   22679886.9624
       229.0004        181.0004
  23293564.3974    1549372.60049   1194893.43045  23293564.5414   23293567.4904
       218.0004        160.0004
  23668298.1804    1936119.18049   1495198.51245  23668297.8284   23668304.1664
       216.0004        156.0004
  23044560.0784   -3358128.63449  -2606955.87846  23044560.4334   23044563.2064
       223.0004        173.0004
  24313935.4114   -2727865.57349  -2102387.96545  24313935.6334   24313938.7734
       212.0004        150.0004
 07  2 18  1 19 10.0000000  0  8G 1G14G22G19G18G 3G31G11
  21639053.6454   -2335346.06049  -1653412.20847  21639053.4654   21639058.0294
       236.0004        195.0004
  20365755.6164      79423.04749     35350.08247  20365755.0614   20365758.4724
       237.0004        212.0004
  21264793.4614     529051.62449    407088.44347  21264793.3404   21264795.3384
       241.0004        205.0004
  22680947.2644     518069.53549    399183.43446  22680946.5974   22680949.4274
       227.0004        181.0004
  23295508.5414    1559589.39049   1202854.56345  23295508.1254   23295511.5384
       217.0004        160.0004
  23670672.7714    1948597.70149   1504922.03045  23670673.1444   23670678.5684
       215.0004        156.0004
  23041417.3524   -3374643.75249  -2619824.79146  23041417.2294   23041422.0184
       221.0004        172.0004
  24310937.8034   -2743618.19549  -2114662.72645  24310937.8284   24310941.0084
       210.0004        149.0004
 07  2 18  1 19 15.0000000  0  8G 1G14G22G19G18G 3G31G11
  21637157.0884   -2345312.53149  -1661178.28447  21637156.4684   21637162.0384
       237.0004        195.0004
  20366346.7074      82529.29349     37770.53447  20366346.2824   20366349.7704
       238.0004        212.0004
  21265707.9564     533857.40149    410833.20647  21265707.7074   21265709.7334
       242.0004        204.0004
  22682012.0454     523664.69449    403543.29046  22682011.3404   22682014.1324
       227.0004        181.0004
  23297453.3724    1569809.65949   1210818.41045  23297452.0404   23297457.8224
       219.0004        159.0004
  23673048.2164    1961080.67549   1514649.02245  23673047.8604   23673054.0014
       215.0004        156.0004
  23038275.4484   -3391154.39249  -2632690.21446  23038275.9734   23038280.3444
       223.0004        173.0004
  24307941.1874   -2759365.45349  -2126933.30845  24307940.9534   24307944.6974
       212.0004        149.0004
 07  2 18  1 19 20.0000000  0  8G 1G14G22G19G18G 3G31G11
  21635262.4574   -2355268.81849  -1668936.42547  21635261.5104   21635267.2694
       237.0004        196.0004
  20366939.9314      85646.76449     40199.73347  20366939.3014   20366942.7954
       239.0004        212.0004
  21266623.2454     538667.29249    414581.17047  21266622.9434   21266625.1054
       242.0004        204.0004
  22683079.1784     529272.46849    407912.99146  22683078.3624   22683081.2034
       226.0004        181.0004
  23299398.7704    1580032.85149   1218784.52845  23299398.3824   23299402.7824
       218.0004        159.0004
  23675424.3744    1973567.44149   1524378.97345  23675423.4754   23675430.5054
       217.0004        156.0004
  23035134.3214   -3407661.11049  -2645552.58946  23035134.8984   23035138.0934
       224.0004        173.0004
  24304945.5064   -2775107.94149  -2139200.17245  24304945.2774   24304949.6914
       212.0004        149.0004
 07  2 18  1 19 25.0000000  0  8G 1G14G22G19G18G 3G31G11
  21633369.7984   -2365214.75049  -1676686.49847  21633369.1904   21633374.7564
       236.0004        196.0004
  20367535.3474      88775.64349     42637.82247  20367534.7794   20367538.1894
       238.0004        212.0004
  21267539.3344     543481.44649    418332.46547  21267538.8694   21267541.2264
       241.0004        204.0004
  22684148.7154     534893.01749    412292.63346  22684147.8114   22684150.8904
       226.0004        181.0004
  23301344.7624    1590259.20849   1226753.12445  23301344.0054   23301347.6904
       217.0004        159.0004
  23677801.2944    1986058.19049   1534112.02145  23677801.5794   23677807.0874
       214.0004        156.0004
  23031993.9724   -3424163.72449  -2658411.75646  23031993.6734   23031998.5524
       222.0004        173.0004
  24301950.7644   -2790845.46249  -2151463.16145  24301950.3204   24301955.4204
       210.0004        149.0004
 07  2 18  1 19 30.0000000  0  8G 1G14G22G19G18G 3G31G11
  21631479.1354   -2375150.13049  -1684428.34447  21631478.7894   21631483.4264
       235.0004        196.0004
  20368132.9314      91916.07549     45084.91547  20368132.4154   20368135.8234
       237.0004        212.0004
  21268456.2864     548300.03849    422087.21247  21268455.7844   21268458.0794
       241.0004        204.0004
  22685220.7264     540526.52349    416682.38046  22685219.6894   22685223.4864
       226.0004        181.0004
  23303291.3944    1600488.81949   1234724.24645  23303290.1084   23303294.9664
       217.0004        159.0004
  23680179.0084    1998553.06749   1543848.28545  23680178.9634   23680185.1524
       215.0004        156.0004
  23028854.4344   -3440662.07749  -2671267.59646  23028854.2164   23028858.3494
       222.0004        173.0004
  24298957.0044   -2806577.79449  -2163722.10945  24298956.9224   24298960.7104
       213.0004        149.0004
 07  2 18  1 19 35.0000000  0  8G 1G14G22G19G18G 3G31G11
  21629590.4824   -2385075.11449  -1692162.09947  21629590.2164   21629594.8634
       237.0004        196.0004
  20368732.7014      95067.91849     47540.89547  20368732.3304   20368735.8644
       238.0004        212.0004
  21269374.0244     553122.92849    425845.30247  21269373.7194   21269375.9464
       242.0004        204.0004
  22686295.1564     546172.76949    421082.05646  22686294.2654   22686298.5534
       227.0004        181.0004
  23305238.5904    1610721.55549   1242697.80745  23305238.0994   23305241.7794
       217.0004        159.0004
  23682557.4434    2011051.88349   1553587.61645  23682556.7374   23682563.5294
       215.0004        156.0004
  23025715.7014   -3457156.26149  -2684120.20046  23025715.6894   23025720.0024
       223.0004        173.0004
  24295964.2264   -2822305.10649  -2175977.14545  24295963.9144   24295968.2184
       214.0004        149.0004
 07  2 18  1 19 40.0000000  0  8G 1G14G22G19G18G 3G31G11
  21627703.8004   -2394989.60249  -1699887.67047  21627703.1434   21627708.2704
       236.0004        196.0004
  20369334.6794      98231.29849     50005.86848  20369334.3134   20369337.7244
       238.0004        213.0004
  21270292.6014     557950.24349    429606.84747  21270292.3734   21270294.6154
       241.0004        204.0004
  22687372.0254     551831.92149    425491.77846  22687370.8504   22687374.8594
       226.0004        181.0004
  23307186.4224    1620957.59249   1250673.93945  23307185.3414   23307190.1304
       218.0004        159.0004
  23684936.6974    2023554.75549   1563330.11145  23684935.6204   23684942.3034
       212.0004        156.0004
  23022577.7874   -3473646.19049  -2696969.49246  23022578.5414   23022582.2844
       224.0004        174.0004
  24292972.4204   -2838027.28749  -2188228.18645  24292972.2254   24292976.4464
       212.0004        149.0004
 07  2 18  1 19 45.0000000  0  8G 1G14G22G19G18G 3G31G11
  21625819.1304   -2404893.65149  -1707605.09747  21625818.3774   21625823.7344
       237.0004        196.0004
  20369938.8204     101406.06549     52479.71548  20369938.2154   20369941.8384
       238.0004        213.0004
  21271212.0374     562781.88949    433371.77147  21271211.8364   21271213.8394
       241.0004        204.0004
  22688451.3524     557503.86449    429911.47746  22688450.5834   22688453.7304
       226.0004        181.0004
  23309134.8464    1631196.74349   1258652.49445  23309134.8624   23309138.5614
       218.0004        159.0004
  23687316.6544    2036061.55949   1573075.66945  23687315.8224   23687321.8484
       213.0004        155.0004
  23019440.6554   -3490131.89849  -2709815.48746  23019441.0634   23019444.2664
       223.0004        174.0004
  24289981.5694   -2853744.39449  -2200475.27445  24289981.4364   24289985.3614
       211.0004        149.0004
 07  2 18  1 19 50.0000000  0  8G 1G14G22G19G18G 3G31G11
  21623936.4604   -2414787.02849  -1715314.22547  21623935.8014   21623941.0914
       236.0004        196.0004
  20370545.1774     104592.47549     54962.63347  20370544.6354   20370548.3344
       238.0004        212.0004
  21272132.3164     567618.10049    437140.24647  21272132.1994   21272134.1094
       241.0004        204.0004
  22689533.1594     563188.83249    434341.32046  22689531.6644   22689535.7944
       227.0004        181.0004
  23311083.9264    1641439.29849   1266633.71245  23311083.5434   23311087.3144
       219.0004        159.0004
  23689697.4144    2048572.52349   1582824.46545  23689696.2654   23689702.5014
       212.0004        155.0004
  23016304.3734   -3506613.11949  -2722657.98846  23016305.4134   23016308.8384
       222.0004        174.0004
  24286991.7554   -2869456.15749  -2212718.19845  24286991.9654   24286995.4314
       213.0004        149.0004
 07  2 18  1 19 55.0000000  0  8G 1G14G22G19G18G 3G31G11
  21622055.7174   -2424670.41849  -1723015.55847  21622055.0834   21622060.6354
       237.0004        196.0004
  20371153.6064     107789.85149     57454.09447  20371152.8844   20371156.5714
       238.0004        212.0004
  21273053.3434     572458.24049    440911.78447  21273053.1624   21273055.2174
       242.0004        204.0004
  22690617.3014     568886.10549    438780.75546  22690616.1934   22690620.0254
       226.0004        181.0004
  23313033.5594    1651684.58549   1274617.05445  23313032.8534   23313037.3214
       220.0004        159.0004
  23692078.8084    2061087.03149   1592576.02645  23692078.3554   23692084.2314
       211.0004        155.0004
  23013168.8174   -3523090.52849  -2735497.51746  23013168.6854   23013172.6114
       225.0004        174.0004
  24284002.8474   -2885163.27649  -2224957.50845  24284002.9154   24284006.4124
       211.0004        150.0004
 07  2 18  1 20  0.0000000  0  8G 1G14G22G19G18G 3G31G11
  21620177.0544   -2434542.80549  -1730708.32247  21620176.5234   21620181.8414
       237.0004        196.0004
  20371764.3224     110999.14749     59954.84348  20371763.8614   20371767.3254
       238.0004        213.0004
  21273975.3514     577303.26849    444687.13547  21273975.2334   21273977.2594
       241.0004        204.0004
  22691703.9834     574596.71449    443230.57846  22691702.9414   22691706.6164
       226.0004        181.0004
  23314983.8994    1661933.56249   1282603.26645  23314984.5624   23314988.3184
       219.0004        160.0004
  23694461.0534    2073605.97549   1602331.03745  23694460.2664   23694465.9834
       213.0004        155.0004
  23010034.2104   -3539563.12349  -2748333.30246  23010034.6544   23010037.9784
       224.0004        174.0004
  24281014.9594   -2900864.82649  -2237192.46945  24281015.2434   24281018.8514
       211.0004        149.0004
 07  2 18  1 20  5.0000000  0  8G 1G14G22G19G18G 3G31G11
  21618300.2884   -2444405.18949  -1738393.29347  21618299.8824   21618305.2794
       237.0004        196.0004
  20372377.0964     114219.36749     62464.10747  20372376.6374   20372380.4094
       237.0004        212.0004
  21274898.0784     582152.20149    448465.52147  21274897.9054   21274900.0784
       241.0004        204.0004
  22692793.0304     580319.62749    447689.99146  22692791.2784   22692795.4204
       225.0004        181.0004
  23316934.7774    1672185.24949   1290591.59045  23316934.6824   23316937.8574
       219.0004        160.0004
  23696843.9704    2086128.43749   1612088.79545  23696843.5574   23696850.0554
       214.0004        155.0004
  23006900.3444   -3556031.88549  -2761166.09846  23006900.9544   23006904.7574
       223.0004        175.0004
  24278028.0014   -2916561.71249  -2249423.79545  24278027.7514   24278031.6294
       208.0004        149.0004
 07  2 18  1 20 10.0000000  0  8G 1G14G22G19G18G 3G31G11
  21616425.5644   -2454257.01149  -1746070.03447  21616425.1304   21616430.4094
       236.0004        196.0004
  20372992.0534     117451.07249     64982.31947  20372991.6914   20372995.1514
       238.0004        212.0004
  21275821.6604     587005.63449    452247.41747  21275821.4154   21275823.7474
       241.0004        204.0004
  22693884.4824     586055.42549    452159.44446  22693883.5114   22693887.7604
       225.0004        181.0004
  23318886.2604    1682440.22649   1298582.49145  23318885.1024   23318889.8794
       217.0004        160.0004
  23699227.6504    2098654.92249   1621849.68845  23699227.2964   23699233.8474
       213.0004        155.0004
  23003767.3084   -3572496.25349  -2773995.46346  23003767.2234   23003771.5814
       223.0004        175.0004
  24275042.0074   -2932253.33549  -2261651.02245  24275041.5184   24275045.1564
       206.0004        148.0004
 07  2 18  1 20 15.0000000  0  8G 1G14G22G19G18G 3G31G11
  21614552.7584   -2464098.55449  -1753738.75947  21614552.2074   21614557.6824
       236.0004        196.0004
  20373609.1574     120693.99749     67509.27947  20373608.5144   20373612.1524
       237.0004        212.0004
  21276746.0494     591863.26149    456032.58447  21276745.7354   21276748.1514
       241.0004        204.0004
  22694978.3394     591803.79349    456638.69546  22694977.1544   22694980.7044
       225.0004        181.0004
  23320838.2974    1692698.19149   1306575.70845  23320838.2204   23320842.3934
       219.0004        160.0004
  23701612.0404    2111185.15449   1631613.50945  23701611.4564   23701617.9284
       214.0004        156.0004
  23000635.0234   -3588956.49049  -2786821.60346  23000635.3224   23000639.5014
       223.0004        175.0004
  24272056.9684   -2947939.98849  -2273874.37145  24272056.9354   24272060.7924
       207.0004        147.0004
 07  2 18  1 20 20.0000000  0  8G 1G14G22G19G18G 3G31G11
  21612681.9624   -2473929.58849  -1761399.30047  21612681.2924   21612686.5664
       238.0004        196.0004
  20374228.4454     123948.37449     70045.15947  20374227.8564   20374231.5584
       239.0004        212.0004
  21277671.2514     596725.29749    459821.18547  21277671.2554   21277673.1964
       243.0004        204.0004
  22696074.6314     597564.91149    461127.87946  22696073.8554   22696077.3074
       227.0004        181.0004
  23322790.9854    1702959.39749   1314571.44545  23322791.0084   23322794.6304
       221.0004        160.0004
  23703997.2244    2123719.33649   1641380.39645  23703997.2044   23704003.0024
       217.0004        156.0004
  22997503.6134   -3605412.29249  -2799644.29046  22997504.1094   22997507.5384
       225.0004        175.0004
  24269072.9294   -2963621.41149  -2286093.64045  24269072.8014   24269076.1384
       206.0004        146.0004
 07  2 18  1 20 25.0000000  0  8G 1G14G22G19G18G 3G31G11
  21610813.2134   -2483749.95549  -1769051.53147  21610812.5364   21610817.9514
       236.0004        196.0004
  20374849.9374     127214.34049     72590.06647  20374849.3854   20374853.0424
       237.0004        212.0004
  21278597.3494     601591.90249    463613.35047  21278596.9244   21278599.1424
       241.0004        204.0004
  22697173.3584     603338.94849    465627.11846  22697172.3554   22697176.3594
       225.0004        181.0004
  23324744.2824    1713224.03149   1322569.87145  23324743.8564   23324747.6604
       219.0004        161.0004
  23706383.1654    2136257.51049   1651150.40045  23706382.6834   23706389.6524
       215.0004        157.0004
  22994373.0444   -3621863.54649  -2812463.44646  22994373.1974   22994376.7194
       224.0004        175.0004
  24266089.8994   -2979297.50449  -2298308.76145  24266090.0454   24266093.5934
       203.0004        145.0004
 07  2 18  1 20 30.0000000  0  8G 1G14G22G19G18G 3G31G11
  21608946.4114   -2493559.95449  -1776695.68247  21608945.8184   21608951.2074
       236.0004        196.0004
  20375473.5604     130491.54249     75143.73148  20375472.9844   20375476.7004
       238.0004        213.0004
  21279524.2384     606462.77549    467408.83147  21279523.9124   21279526.1594
       241.0004        204.0004
  22698274.5494     609125.61449    470136.21146  22698273.4324   22698277.1964
       226.0004        181.0004
  23326698.1864    1723491.72849   1330570.67445  23326697.5134   23326702.2234
       218.0004        161.0004
  23708769.8424    2148799.39349   1660923.28345  23708769.8104   23708776.4524
       216.0004        157.0004
  22991243.2824   -3638310.57149  -2825279.30046  22991243.1244   22991246.7794
       224.0004        175.0004
  24263107.8124   -2994968.52849  -2310519.93045  24263107.7404   24263110.4614
       203.0004        144.0004
 07  2 18  1 20 35.0000000  0  8G 1G14G22G19G18G 3G31G11
  21607081.5664   -2503359.72549  -1784331.86147  21607081.1394   21607086.3494
       239.0004        196.0004
  20376099.3034     133779.85049     77706.05248  20376098.7404   20376102.3144
       240.0004        213.0004
  21280451.9154     611337.77349    471207.53847  21280451.4704   21280453.7814
       243.0004        204.0004
  22699378.0674     614924.78849    474655.05046  22699376.8784   22699380.6054
       227.0004        181.0004
  23328652.6254    1733762.37649   1338573.76745  23328651.2314   23328656.3574
       221.0004        161.0004
  23711157.2174    2161344.84549   1670698.96645  23711156.9684   23711163.3234
       217.0004        157.0004
  22988114.3244   -3654753.46649  -2838091.94246  22988114.4004   22988118.2824
       226.0004        175.0004
  24260126.6674   -3010634.58349  -2322727.21345  24260126.7544   24260130.2944
       204.0004        143.0004
 07  2 18  1 20 40.0000000  0  8G 1G14G22G19G18G 3G31G11
  21605218.7504   -2513148.83849  -1791959.73847  21605218.3194   21605223.3674
       237.0004        196.0004
  20376727.2474     137079.69149     80277.35848  20376726.5664   20376730.1674
       239.0004        213.0004
  21281380.4534     616217.31149    475009.77147  21281380.2274   21281382.2654
       242.0004        204.0004
  22700484.0774     620736.85249    479183.93046  22700482.6334   22700487.1234
       225.0004        180.0004
  23330607.6684    1744036.37549   1346579.47145  23330607.7064   23330610.8964
       221.0004        161.0004
  23713545.3244    2173894.29949   1680477.75345  23713545.2644   23713551.6464
       216.0004        157.0004
  22984986.2174   -3671191.80749  -2850901.02846  22984986.9354   22984990.1644
       226.0004        175.0004
  24257146.5404   -3026295.26549  -2334930.32345  24257145.7374   24257149.6174
       203.0004        141.0004
 07  2 18  1 20 45.0000000  0  8G 1G14G22G19G18G 3G31G11
  21603357.9294   -2522927.55849  -1799579.51447  21603357.2374   21603362.4934
       237.0004        196.0004
  20377357.3314     140390.81749     82857.45848  20377356.7894   20377360.2264
       239.0004        213.0004
  21282309.8144     621101.14349    478815.35547  21282309.4344   21282311.6474
       242.0004        204.0004
  22701592.4624     626561.54449    483722.64346  22701591.7154   22701594.9404
       225.0004        180.0004
  23332563.3574    1754313.42149   1354587.57645  23332563.1334   23332565.9804
       220.0004        161.0004
  23715934.1664    2186447.53149   1690259.48745  23715934.4004   23715939.9524
       218.0004        157.0004
  22981858.9014   -3687625.85049  -2863706.76446  22981858.4504   22981862.4994
       225.0004        176.0004
  24254167.3824   -3041950.80449  -2347129.42145  24254166.1004   24254171.0194
       205.0004        141.0004
 07  2 18  1 20 50.0000000  0  8G 1G14G22G19G18G 3G31G11
  21601499.1254   -2532695.59749  -1807190.96447  21601498.3444   21601503.6544
       237.0004        196.0004
  20377989.6084     143713.46349     85446.53148  20377988.9924   20377992.6804
       238.0004        213.0004
  21283240.0504     625989.53449    482624.49047  21283239.7204   21283241.7704
       241.0004        204.0004
  22702703.3084     632399.17149    488271.44346  22702701.9074   22702705.4194
       223.0004        180.0004
  23334519.6804    1764593.80249   1362598.26245  23334519.0094   23334523.3254
       220.0004        161.0004
  23718323.7764    2199004.83049   1700044.39145  23718323.7764   23718329.2634
       216.0004        157.0004
  22978732.4744   -3704055.26549  -2876508.88946  22978733.1144   22978736.3194
       224.0004        176.0004
  24251189.2654   -3057600.90649  -2359324.29145  24251188.1424   24251191.9774
       205.0004        139.0004
 07  2 18  1 20 55.0000000  0  8G 1G14G22G19G18G 3G31G11
  21599642.2784   -2542453.39049  -1814794.43847  21599641.6394   21599646.9764
       237.0004        196.0004
  20378623.9914     147047.19049     88044.24648  20378623.3234   20378626.8484
       238.0004        213.0004
  21284171.0564     630882.07449    486436.86247  21284170.8154   21284172.5674
       241.0004        204.0004
  22703816.5164     638249.26049    492829.95946  22703815.7854   22703818.9754
       224.0004        180.0004
  23336476.5524    1774877.16349   1370611.26345  23336476.5934   23336479.4414
       220.0004        161.0004
  23720714.0874    2211565.72849   1709832.09745  23720713.9614   23720719.7964
       216.0004        157.0004
  22975606.8584   -3720480.46749  -2889307.74346  22975607.1784   22975610.4524
       226.0004        176.0004
  24248212.0524   -3073245.99149  -2371515.26445  24248212.1024   24248213.8244
       207.0004        138.0004
 07  2 18  1 21  0.0000000  0  8G 1G14G22G19G18G 3G31G11
  21597787.4274   -2552200.54849  -1822389.62847  21597787.0634   21597792.4804
       237.0004        196.0004
  20379260.5644     150392.38649     90650.88648  20379260.0824   20379263.8134
       239.0004        213.0004
  21285102.9424     635779.16249    490252.77347  21285102.6304   21285104.7704
       242.0004        204.0004
  22704932.1834     644112.17949    497398.45746  22704931.6734   22704934.7224
       225.0004        180.0004
  23338434.0484    1785163.85849   1378626.86645  23338432.8894   23338437.2974
       218.0004        160.0004
  23723105.1674    2224130.61149   1719622.90845  23723104.7764   23723110.7834
       215.0004        157.0004
  22972482.1004   -3736901.09549  -2902103.03446  22972482.3514   22972485.9644
       226.0004        176.0004
  24245235.9064   -3088885.69449  -2383702.04745  24245235.5834   24245238.0084
       207.0004        138.0004
 07  2 18  1 21  5.0000000  0  8G 1G14G22G19G18G 3G31G11
  21595934.5834   -2561937.32649  -1829976.71847  21595933.9864   21595939.2304
       238.0004        196.0004
  20379899.2664     153748.77649     93266.26248  20379898.9104   20379902.4154
       239.0004        213.0004
  21286035.6424     640680.53949    494072.03247  21286035.2844   21286037.4404
       242.0004        204.0004
  22706050.2604     649987.66749    501976.76746  22706049.2994   22706052.5624
       226.0004        180.0004
  23340392.1434    1795453.69149   1386644.90945  23340391.4934   23340394.5654
       220.0004        160.0004
  23725496.9184    2236699.08149   1729416.51345  23725497.3004   23725502.3314
       216.0004        157.0004
  22969358.2084   -3753317.31549  -2914894.88346  22969357.8544   22969362.5904
       226.0004        176.0004
  24242260.7164   -3104520.24349  -2395884.81045  24242259.9034   24242262.9624
       208.0004        137.0004
 07  2 18  1 21 10.0000000  0  8G 1G14G22G19G18G 3G31G11
  21594083.7714   -2571663.48049  -1837555.53747  21594083.2774   21594088.8034
       236.0004        197.0004
  20380540.1464     157116.62349     95890.55948  20380539.6864   20380543.2694
       238.0004        213.0004
  21286969.1904     645586.45049    497894.82047  21286968.9284   21286971.0614
       242.0004        204.0004
  22707170.7514     655875.93349    506565.02646  22707169.4144   22707173.1344
       225.0004        180.0004
  23342350.8614    1805746.87749   1394665.57645  23342351.2364   23342353.2194
       219.0004        160.0004
  23727889.3774    2249271.44949   1739213.17445  23727889.5544   23727894.5534
       215.0004        157.0004
  22966235.1674   -3769728.94449  -2927683.14246  22966234.5874   22966239.5064
       225.0004        176.0004
  24239286.5524   -3120149.38349  -2408063.35945  24239287.5504   24239289.7384
       205.0004        136.0004
 07  2 18  1 21 15.0000000  0  8G 1G14G22G19G18G 3G31G11
  21592234.8774   -2581379.34449  -1845126.33647  21592234.3374   21592239.8654
       238.0004        197.0004
  20381183.1454     160495.59749     98523.52548  20381182.5914   20381186.4464
       239.0004        213.0004
  21287903.5484     650496.54949    501720.87347  21287903.2914   21287905.5684
       242.0004        204.0004
  22708293.6324     661776.65449    511162.99046  22708292.7364   22708296.0274
       225.0004        180.0004
  23344310.1804    1816043.08049   1402688.61045  23344310.1404   23344315.1374
       220.0004        160.0004
  23730282.4824    2261847.26849   1749012.51045  23730281.5984   23730287.8974
       216.0004        157.0004
  22963112.9634   -3786136.27749  -2940468.07446  22963113.3574   22963117.0024
       227.0004        176.0004
  24236313.3574   -3135773.42449  -2420237.94245  24236313.1304   24236315.8684
       207.0004        135.0004
 07  2 18  1 21 20.0000000  0  8G 1G14G22G19G18G 3G31G11
  21590388.0044   -2591084.76949  -1852688.99847  21590387.2564   21590392.9184
       237.0004        197.0004
  20381828.2904     163885.83149    101165.26848  20381827.6844   20381831.3804
       237.0004        213.0004
  21288838.7614     655410.97749    505550.29447  21288838.8244   21288840.5524
       241.0004        204.0004
  22709418.9234     667689.94349    515770.75146  22709418.1574   22709421.1114
       224.0004        180.0004
  23346270.0794    1826342.46549   1410714.08545  23346268.8944   23346274.0074
       218.0004        160.0004
  23732676.2494    2274426.77649   1758814.72245  23732676.1304   23732681.5684
       216.0004        157.0004
  22959991.6254   -3802539.17249  -2953249.55746  22959992.0384   22959995.4394
       227.0004        176.0004
  24233341.2044   -3151392.22849  -2432408.44545  24233339.8484   24233344.0024
       205.0004        134.0004
 07  2 18  1 21 25.0000000  0  8G 1G14G22G19G18G 3G31G11
  21588543.2084   -2600779.35849  -1860243.21847  21588542.9334   21588548.0984
       237.0004        197.0004
  20382475.6284     167287.70449    103816.07948  20382475.1464   20382478.6654
       238.0004        213.0004
  21289774.8644     660330.16349    509383.43147  21289774.7764   21289777.0104
       241.0004        204.0004
  22710546.6474     673616.19949    520388.60646  22710545.7664   22710548.7404
       224.0004        180.0004
  23348230.6684    1836645.40449   1418742.35245  23348230.7364   23348233.9614
       221.0004        160.0004
  23735070.8594    2287010.46049   1768620.19345  23735070.1834   23735075.7954
       215.0004        156.0004
  22956871.2164   -3818937.18249  -2966027.20746  22956871.1994   22956874.3934
       226.0004        175.0004
  24230370.0924   -3167005.40049  -2444574.55545  24230368.9054   24230372.6224
       205.0004        135.0004
 07  2 18  1 21 30.0000000  0  8G 1G14G22G19G18G 3G31G11
  21586700.3454   -2610463.72649  -1867789.47447  21586699.7794   21586705.1674
       237.0004        197.0004
  20383125.0624     170700.59949    106475.47948  20383124.4974   20383128.0714
       238.0004        213.0004
  21290711.7324     665253.40049    513219.71947  21290711.6874   21290713.5584
       241.0004        204.0004
  22711676.7204     679554.81749    525016.10746  22711675.5044   22711679.1534
       224.0004        180.0004
  23350191.8214    1846951.29849   1426772.92845  23350190.3904   23350195.0224
       217.0004        160.0004
  23737466.1114    2299597.64249   1778428.38345  23737466.3944   23737472.1294
       216.0004        157.0004
  22953751.6014   -3835330.95349  -2978801.57046  22953751.7684   22953755.8694
       225.0004        175.0004
  24227399.9644   -3182613.52349  -2456736.72445  24227398.8014   24227402.0864
       206.0004        135.0004
 07  2 18  1 21 35.0000000  0  8G 1G14G22G19G18G 3G31G11
  21584859.4784   -2620137.56449  -1875327.53047  21584858.9634   21584864.1244
       237.0004        197.0004
  20383776.6704     174124.78549    109143.67648  20383776.0064   20383779.7194
       238.0004        213.0004
  21291649.4444     670181.08049    517059.47347  21291649.2884   21291651.3754
       241.0004        204.0004
  22712809.2034     685506.09149    529653.46046  22712808.7804   22712811.4004
       225.0004        180.0004
  23352153.5994    1857260.50449   1434806.06045  23352152.2314   23352156.9844
       217.0004        160.0004
  23739862.0924    2312188.50949   1788239.44245  23739861.5264   23739867.4074
       216.0004        157.0004
  22950632.8624   -3851720.16149  -2991572.36846  22950632.4584   22950637.3724
       224.0004        176.0004
  24224430.8474   -3198216.27149  -2468894.70045  24224430.6764   24224432.6654
       205.0004        135.0004
 07  2 18  1 21 40.0000000  0  8G 1G14G22G19G18G 3G31G11
  21583020.6154   -2629801.00549  -1882857.47547  21583020.0064   21583025.0414
       237.0004        197.0004
  20384430.3754     177560.10849    111820.55648  20384429.7634   20384433.4404
       238.0004        213.0004
  21292587.9914     675113.04549    520902.56447  21292587.7884   21292589.9824
       242.0004        204.0004
  22713944.0954     691469.85049    534300.54646  22713943.5844   22713946.2474
       226.0004        180.0004
  23354115.9584    1867572.80349   1442841.61745  23354115.2724   23354118.7844
       220.0004        160.0004
  23742258.7594    2324782.89049   1798053.24345  23742257.7674   23742264.2154
       215.0004        157.0004
  22947514.9444   -3868104.91049  -3004339.68946  22947515.4264   22947518.6484
       226.0004        176.0004
  24221462.7214   -3213813.78249  -2481048.59345  24221461.9514   24221464.3494
       206.0004        135.0004
 07  2 18  1 21 45.0000000  0  8G 1G14G22G19G18G 3G31G11
  21581183.7104   -2639454.05449  -1890379.32747  21581183.1784   21581188.6624
       237.0004        197.0004
  20385086.2214     181006.56149    114506.10148  20385085.7994   20385089.3474
       238.0004        213.0004
  21293527.3264     680049.29549    524748.99447  21293527.0684   21293529.2314
       242.0004        204.0004
  22715081.3624     697446.08749    538957.35246  22715080.5174   22715083.6944
       225.0004        180.0004
  23356078.9244    1877888.20149   1450879.58545  23356078.5534   23356082.4584
       219.0004        161.0004
  23744656.0624    2337380.85549   1807869.83545  23744655.8974   23744661.5574
       217.0004        157.0004
  22944397.8554   -3884485.19949  -3017103.54746  22944398.3344   22944401.6444
       226.0004        176.0004
  24218495.5604   -3229406.07549  -2493198.42145  24218494.9354   24218498.0114
       205.0004        135.0004
 07  2 18  1 21 50.0000000  0  8G 1G14G22G19G18G 3G31G11
  21579348.8114   -2649096.60149  -1897892.99347  21579348.2684   21579353.7674
       238.0004        197.0004
  20385744.1924     184464.26149    117200.41348  20385743.6634   20385747.3204
       238.0004        213.0004
  21294467.4954     684989.93349    528598.84347  21294466.9774   21294469.3184
       241.0004        204.0004
  22716221.0314     703434.90549    543623.95446  22716220.2084   22716223.3944
       225.0004        180.0004
  23358042.4844    1888206.78949   1458920.05245  23358041.6544   23358045.8744
       219.0004        161.0004
  23747054.0594    2349982.39649   1817689.22245  23747053.4274   23747059.6144
       215.0004        157.0004
  22941281.6204   -3900860.94449  -3029863.86346  22941282.1714   22941285.0754
       226.0004        176.0004
  24215529.4334   -3244993.01049  -2505344.06545  24215528.2494   24215531.9024
       205.0004        136.0004
 07  2 18  1 21 55.0000000  0  8G 1G14G22G19G18G 3G31G11
  21577515.9614   -2658728.25849  -1905398.17947  21577515.4874   21577520.6114
       237.0004        197.0004
  20386404.3864     187933.58349    119903.78448  20386403.9264   20386407.4764
       237.0004        213.0004
  21295408.5614     689935.35849    532452.42147  21295408.0564   21295410.4534
       240.0004        204.0004
  22717363.1754     709436.67549    548300.66446  22717362.3574   22717365.3724
       223.0004        180.0004
  23360006.7474    1898528.96749   1466963.30345  23360005.3854   23360010.1344
       218.0004        160.0004
  23749452.8224    2362587.97049   1827511.74245  23749452.2464   23749458.5244
       215.0004        157.0004
  22938166.3234   -3917231.69949  -3042620.28646  22938166.5484   22938169.8744
       226.0004        176.0004
  24212564.4094   -3260574.18849  -2517485.22945  24212562.3124   24212566.9774
       203.0004        136.0004
 07  2 18  1 22  0.0000000  0  8G 1G14G22G19G18G 3G31G11
  21575685.0834   -2668349.64049  -1912895.35447  21575684.7144   21575689.6994
       237.0004        197.0004
  20387066.6574     191413.93949    122615.74848  20387066.2284   20387069.9164
       237.0004        213.0004
  21296350.4384     694884.95449    536309.25347  21296350.0944   21296352.2294
       240.0004        204.0004
  22718507.6184     715450.77849    552986.97546  22718506.2454   22718510.2814
       224.0004        180.0004
  23361971.5664    1908854.09149   1475008.85445  23361971.6944   23361973.9524
       219.0004        160.0004
  23751852.1974    2375196.85649   1837336.84145  23751851.0964   23751857.8304
       214.0004        157.0004
  22935051.9034   -3933598.08349  -3055373.30746  22935052.9634   22935056.3964
       226.0004        176.0004
  24209600.3264   -3276150.22049  -2529622.38045  24209599.5534   24209603.4704
       204.0004        135.0004
 07  2 18  1 22  5.0000000  0  8G 1G14G22G19G18G 3G31G11
  21573856.2004   -2677960.35749  -1920384.22247  21573855.6214   21573860.8014
       236.0004        197.0004
  20387731.1144     194905.69049    125336.59448  20387730.6284   20387734.1994
       237.0004        213.0004
  21297293.1684     699839.09449    540169.62047  21297293.0314   21297294.9684
       241.0004        204.0004
  22719654.4714     721477.60249    557683.20046  22719653.4014   22719656.9774
       224.0004        180.0004
  23363936.9914    1919182.59349   1483057.04545  23363936.5034   23363940.7184
       219.0004        161.0004
  23754252.3254    2387809.60149   1847164.95245  23754251.6844   23754258.4094
       214.0004        157.0004
  22931938.3794   -3949959.69849  -3068122.61646  22931939.3794   22931941.8424
       226.0004        176.0004
  24206637.3144   -3291720.70749  -2541755.21345  24206636.1354   24206641.9984
       205.0004        135.0004
 07  2 18  1 22 10.0000000  0  8G 1G14G22G19G18G 3G31G11
  21572029.2304   -2687561.14349  -1927865.34747  21572028.4454   21572033.3144
       237.0004        197.0004
  20388397.6074     198408.07249    128065.72848  20388396.9764   20388400.6064
       238.0004        213.0004
  21298236.6494     704797.09949    544033.00547  21298236.3284   21298238.7304
       241.0004        204.0004
  22720803.6174     727516.41049    562388.76146  22720802.5964   22720805.6724
       225.0004        180.0004
  23365902.9164    1929513.72949   1491107.27945  23365902.0034   23365906.6794
       219.0004        161.0004
  23756653.0054    2400425.41749   1856995.44645  23756652.6624   23756659.4084
       215.0004        157.0004
  22928825.6784   -3966317.30349  -3080868.79346  22928825.2854   22928829.5604
       226.0004        176.0004
  24203675.2394   -3307286.37549  -2553884.29845  24203675.3844   24203679.4544
       202.0004        134.0004
 07  2 18  1 22 15.0000000  0  8G 1G14G22G19G18G 3G31G11
  21570204.2964   -2697151.15949  -1935338.08247  21570203.6094   21570209.0534
       237.0004        197.0004
  20389066.2704     201921.91649    130803.78748  20389065.8434   20389069.4654
       238.0004        213.0004
  21299181.0084     709759.84849    547900.07947  21299180.7944   21299182.9004
       241.0004        204.0004
  22721955.2004     733568.00249    567104.28846  22721954.2784   22721957.4344
       224.0004        180.0004
  23367869.5124    1939848.32549   1499160.20245  23367868.8814   23367872.9544
       218.0004        160.0004
  23759054.4474    2413045.00849   1866828.89245  23759053.7594   23759060.6604
       214.0004        157.0004
  22925713.8654   -3982669.95949  -3093611.11346  22925713.9484   22925717.4164
       225.0004        176.0004
  24200714.2134   -3322846.38149  -2566008.96045  24200713.7054   24200717.2064
       202.0004        134.0004
 07  2 18  1 22 20.0000000  0  8G 1G14G22G19G18G 3G31G11
  21568381.4374   -2706730.40149  -1942802.42047  21568380.9014   21568386.2824
       238.0004        197.0004
  20389737.1154     205447.22749    133550.78348  20389736.7494   20389740.3194
       238.0004        213.0004
  21300126.2584     714727.22949    551770.76747  21300125.8904   21300128.3204
       241.0004        204.0004
  22723109.2214     739632.38949    571829.78146  22723108.2694   22723111.9784
       225.0004        180.0004
  23369836.7854    1950186.40649   1507215.84845  23369836.1194   23369839.6924
       219.0004        160.0004
  23761456.5404    2425668.36249   1876665.26745  23761456.4464   23761462.4664
       215.0004        157.0004
  22922603.0174   -3999017.68549  -3106349.57946  22922602.1334   22922606.6464
       225.0004        176.0004
  24197754.2494   -3338400.68849  -2578129.18045  24197752.8044   24197756.4794
       202.0004        133.0004
 07  2 18  1 22 25.0000000  0  8G 1G14G22G19G18G 3G31G11
  21566560.5814   -2716299.08549  -1950258.53547  21566560.3214   21566565.4844
       237.0004        197.0004
  20390410.0854     208983.73449    136306.50148  20390409.6934   20390413.2224
       237.0004        213.0004
  21301072.3334     719698.99949    555644.87447  21301072.3344   21301074.1934
       240.0004        204.0004
  22724265.6214     745709.34049    576565.06746  22724264.5994   22724268.2744
       225.0004        180.0004
  23371804.6814    1960527.71549   1515274.01945  23371804.6164   23371808.7254
       219.0004        161.0004
  23763859.3474    2438295.36749   1886504.48845  23763858.6534   23763865.0494
       215.0004        157.0004
  22919493.0234   -4015360.67749  -3119084.37646  22919494.3044   22919496.2614
       226.0004        176.0004
  24194795.3414   -3353949.52149  -2590245.13445  24194794.6324   24194798.4714
       204.0004        132.0004
 07  2 18  1 22 30.0000000  0  8G 1G14G22G19G18G 3G31G11
  21564741.6954   -2725857.37149  -1957706.54647  21564741.4504   21564746.4734
       237.0004        197.0004
  20391085.1634     212531.34349    139070.87348  20391084.8264   20391088.2174
       238.0004        213.0004
  21302019.2534     724675.06749    559522.33347  21302018.9294   21302021.1884
       241.0004        204.0004
  22725424.3914     751798.69349    581310.01546  22725423.9864   22725427.0574
       225.0004        180.0004
  23373773.1624    1970872.12349   1523334.59445  23373772.6344   23373776.6314
       218.0004        160.0004
  23766262.7864    2450925.80949   1896346.38745  23766262.5394   23766268.6534
       216.0004        157.0004
  22916383.9514   -4031699.04749  -3131815.56646  22916384.5274   22916387.9014
       227.0004        176.0004
  24191837.4314   -3369493.04949  -2602356.96745  24191836.4304   24191840.7284
       205.0004        132.0004
 07  2 18  1 22 35.0000000  0  8G 1G14G22G19G18G 3G31G11
  21562924.8194   -2735405.11649  -1965146.34447  21562924.4684   21562929.4864
       237.0004        197.0004
  20391762.4044     216090.17149    141843.98448  20391762.0574   20391765.6954
       238.0004        213.0004
  21302966.9954     729655.54849    563403.22947  21302966.9334   21302969.2264
       241.0004        204.0004
  22726585.5444     757900.55149    586064.70246  22726584.9934   22726587.9444
       225.0004        180.0004
  23375742.2844    1981219.78449   1531397.70845  23375742.0614   23375745.6154
       218.0004        160.0004
  23768666.9304    2463559.81649   1906191.05945  23768666.9944   23768673.3784
       217.0004        157.0004
  22913275.7784   -4048032.65849  -3144543.04646  22913276.2194   22913279.7084
       226.0004        177.0004
  24188880.5874   -3385031.11649  -2614464.54045  24188879.1874   24188884.0874
       204.0004        132.0004
 07  2 18  1 22 40.0000000  0  8G 1G14G22G19G18G 3G31G11
  21561109.9064   -2744942.55649  -1972578.10647  21561109.1054   21561114.5874
       237.0004        197.0004
  20392441.7094     219659.95549    144625.63948  20392441.3874   20392444.7784
       238.0004        213.0004
  21303915.5144     734640.21149    567287.38147  21303915.2664   21303917.4674
       241.0004        204.0004
  22727749.0544     764014.69249    590828.96546  22727748.3074   22727751.9814
       226.0004        180.0004
  23377711.9464    1991570.44749   1539463.16645  23377711.9674   23377714.9744
       219.0004        160.0004
  23771071.7414    2476197.14349   1916038.33245  23771071.8094   23771077.5154
       217.0004        157.0004
  22910168.4704   -4064361.76849  -3157267.01646  22910168.6904   22910172.3144
       226.0004        177.0004
  24185924.7564   -3400563.91449  -2626568.01345  24185923.7734   24185927.4944
       206.0004        132.0004
 07  2 18  1 22 45.0000000  0  8G 1G14G22G19G18G 3G31G11
  21559296.9804   -2754469.46649  -1980001.66647  21559296.1704   21559301.4044
       238.0004        197.0004
  20393123.1534     223240.91549    147415.99848  20393122.4554   20393126.1964
       238.0004        213.0004
  21304864.9124     739629.32749    571175.00947  21304864.5294   21304866.7864
       241.0004        204.0004
  22728914.9204     770141.28949    595602.93946  22728914.5604   22728917.4974
       225.0004        180.0004
  23379682.2664    2001924.33349   1547531.13145  23379681.5434   23379686.9994
       217.0004        160.0004
  23773477.2484    2488838.03049   1925888.37045  23773477.6744   23773482.5554
       218.0004        157.0004
  22907062.0474   -4080686.10349  -3169987.26746  22907062.3314   22907065.0924
       226.0004        177.0004
  24182969.9644   -3416091.25549  -2638667.22445  24182969.0194   24182974.5744
       208.0004        132.0004
 07  2 18  1 22 50.0000000  0  8G 1G14G22G19G18G 3G31G11
  21557486.1194   -2763985.64349  -1987416.87247  21557485.7834   21557491.0164
       238.0004        197.0004
  20393806.7394     226833.24649    150215.21748  20393806.4024   20393810.0464
       238.0004        213.0004
  21305815.1744     744623.05349    575066.22347  21305814.9914   21305816.9514
       241.0004        204.0004
  22730083.2194     776280.56049    600386.78446  22730082.4914   22730086.1554
       225.0004        181.0004
  23381653.1864    2012281.64349   1555601.75245  23381651.6294   23381657.1444
       217.0004        160.0004
  23775883.4754    2501482.63849   1935741.30945  23775883.2984   23775888.9334
       216.0004        157.0004
  22903956.5644   -4097005.52649  -3182703.69346  22903956.5114   22903960.8214
       226.0004        177.0004
  24180016.2774   -3431612.89149  -2650761.99845  24180014.5944   24180020.2044
       209.0004        133.0004
 07  2 18  1 22 55.0000000  0  8G 1G14G22G19G18G 3G31G11
  21555677.1384   -2773491.89949  -1994824.33947  21555676.8354   21555681.9064
       238.0004        198.0004
  20394492.3504     230436.11849    153022.65048  20394491.9974   20394495.4514
       239.0004        213.0004
  21306766.1584     749620.55249    578960.38047  21306765.8434   21306768.1314
       242.0004        204.0004
  22731253.7594     782431.72349    605179.89546  22731252.8514   22731256.6454
       224.0004        181.0004
  23383624.5774    2022641.58249   1563674.42545  23383623.0654   23383627.8934
       217.0004        160.0004
  23778290.2434    2514130.15849   1945596.52245  23778289.8224   23778295.2374
       216.0004        157.0004
  22900851.8834   -4113320.77949  -3195416.87146  22900851.7404   22900855.7114
       226.0004        177.0004
  24177063.5374   -3447129.61749  -2662852.94645  24177063.0784   24177068.5294
       209.0004        134.0004
 07  2 18  1 23  0.0000000  0  8G 1G14G22G19G18G 3G31G11
  21553870.2964   -2782986.85949  -2002223.00447  21553869.6874   21553874.9834
       237.0004        198.0004
  20395180.2074     234050.90249    155839.36648  20395179.6314   20395183.2784
       238.0004        213.0004
  21307718.1484     754623.22249    582858.56847  21307717.9844   21307720.1544
       241.0004        204.0004
  22732426.7734     788596.08649    609983.29646  22732425.7294   22732429.8354
       225.0004        181.0004
  23385596.7314    2033005.50549   1571750.22245  23385596.2994   23385600.1724
       216.0004        159.0004
  23780697.7834    2526781.85649   1955454.98645  23780696.9464   23780703.2074
       216.0004        157.0004
  22897748.2424   -4129630.49449  -3208125.72646  22897748.3794   22897751.8244
       226.0004        177.0004
  24174111.9754   -3462640.03149  -2674938.97745  24174111.9514   24174116.2164
       210.0004        134.0004
 07  2 18  1 23  5.0000000  0  8G 1G14G22G19G18G 3G31G11
  21552065.4034   -2792471.63049  -2009613.73147  21552064.5764   21552069.9334
       237.0004        198.0004
  20395870.1464     237676.45749    158664.47648  20395869.6634   20395873.2604
       238.0004        213.0004
  21308670.9244     759629.99749    586759.95247  21308670.9944   21308672.8584
       243.0004        204.0004
  22733602.1354     794772.55549    614796.13246  22733600.7664   22733604.8944
       225.0004        181.0004
  23387569.4404    2043372.33149   1579828.26545  23387567.9744   23387573.1484
       216.0004        159.0004
  23783105.8984    2539436.58149   1965315.81345  23783105.1794   23783111.6424
       215.0004        157.0004
  22894645.4484   -4145935.74649  -3220831.11146  22894646.0964   22894649.2374
       226.0004        177.0004
  24171161.4104   -3478145.28649  -2687020.98545  24171160.4944   24171164.4704
       210.0004        135.0004
 07  2 18  1 23 10.0000000  0  8G 1G14G22G19G18G 3G31G11
  21550262.5054   -2801945.90549  -2016996.27847  21550261.9244   21550267.1544
       236.0004        198.0004
  20396562.1544     241313.10949    161498.22948  20396561.6444   20396565.3004
       238.0004        213.0004
  21309624.5274     764641.19549    590664.78247  21309624.6044   21309626.4994
       240.0004        204.0004
  22734779.8214     800961.43449    619618.62746  22734778.3204   22734782.3274
       224.0004        180.0004
  23389542.7694    2053742.37649   1587908.81945  23389541.7774   23389546.6664
       215.0004        159.0004
  23785514.6524    2552094.76249   1975179.33645  23785514.7014   23785520.6694
       214.0004        156.0004
  22891543.5714   -4162236.24149  -3233532.78546  22891543.5444   22891546.6774
       226.0004        177.0004
  24168211.9134   -3493645.04249  -2699098.72145  24168211.3154   24168214.7934
       209.0004        135.0004
 07  2 18  1 23 15.0000000  0  8G 1G14G22G19G18G 3G31G11
  21548461.6044   -2811409.71349  -2024370.66947  21548460.9814   21548465.9994
       237.0004        198.0004
  20397256.2854     244960.81849    164340.60148  20397255.8444   20397259.3624
       237.0004        213.0004
  21310578.9474     769656.74549    594573.00647  21310578.7834   21310580.8554
       241.0004        204.0004
  22735959.8584     807162.68849    624450.77646  22735958.0344   22735961.8114
       224.0004        181.0004
  23391516.6784    2064115.59149   1595991.84245  23391516.0304   23391519.5634
       217.0004        159.0004
  23787924.0734    2564756.32749   1985045.48445  23787923.3834   23787929.4604
       214.0004        156.0004
  22888442.5894   -4178531.93349  -3246230.71746  22888442.6114   22888446.5004
       225.0004        178.0004
  24165263.4324   -3509139.36949  -2711172.22945  24165263.9664   24165265.6814
       209.0004        136.0004
 07  2 18  1 23 20.0000000  0  8G 1G14G22G19G18G 3G31G11
  21546662.6914   -2820862.89649  -2031736.77947  21546662.3764   21546667.3304
       237.0004        198.0004
  20397952.5514     248619.74349    167191.71448  20397952.1124   20397955.7674
       239.0004        213.0004
  21311534.2634     774676.81349    598484.74747  21311534.1924   21311536.2474
       242.0004        204.0004
  22737142.2904     813376.46849    629292.67846  22737141.5244   22737144.8624
       225.0004        181.0004
  23393491.2364    2074492.14249   1604077.47745  23393489.8344   23393494.3944
       216.0004        158.0004
  23790334.1554    2577421.41149   1994914.37345  23790334.0444   23790339.6294
       215.0004        155.0004
  22885342.5704   -4194822.70849  -3258924.81146  22885342.3974   22885346.8814
       226.0004        178.0004
  24162315.9994   -3524628.05949  -2723241.32945  24162316.1974   24162318.5024
       211.0004        137.0004
 07  2 18  1 23 25.0000000  0  8G 1G14G22G19G18G 3G31G11
  21544865.7914   -2830305.69449  -2039094.80247  21544865.3904   21544870.5444
       237.0004        198.0004
  20398650.9284     252289.60649    170051.34948  20398650.3884   20398654.0634
       238.0004        213.0004
  21312490.3524     779701.14449    602399.81547  21312490.3204   21312492.2634
       240.0004        204.0004
  22738327.0394     819602.47949    634144.11546  22738326.3644   22738329.4164
       225.0004        181.0004
  23395466.3734    2084871.79349   1612165.51845  23395465.7664   23395470.5044
       217.0004        158.0004
  23792744.8634    2590089.77549   2004785.82445  23792743.3574   23792750.7884
       214.0004        155.0004
  22882243.4124   -4211108.81449  -3271615.27246  22882243.6524   22882247.2564
       226.0004        178.0004
  24159369.6014   -3540111.32049  -2735306.20445  24159369.2074   24159372.0124
       210.0004        137.0004
 07  2 18  1 23 30.0000000  0  8G 1G14G22G19G18G 3G31G11
  21543070.8934   -2839737.85849  -2046444.53147  21543070.3534   21543075.7924
       237.0004        198.0004
  20399351.4004     255970.62349    172919.67848  20399350.9434   20399354.6624
       239.0004        213.0004
  21313447.3434     784730.02949    606318.42447  21313447.4074   21313449.3014
       242.0004        204.0004
  22739514.2054     825840.99749    639005.30046  22739513.5124   22739516.8854
       226.0004        181.0004
  23397442.1554    2095254.76949   1620256.13545  23397441.3084   23397445.5294
       215.0004        158.0004
  23795156.2354    2602761.62649   2014659.98645  23795155.6074   23795162.1924
       215.0004        155.0004
  22879145.2234   -4227389.95349  -3284301.87346  22879145.0874   22879149.1984
       227.0004        178.0004
  24156424.3044   -3555588.91749  -2747366.66345  24156423.4164   24156426.4684
       208.0004        136.0004
 07  2 18  1 23 35.0000000  0  8G 1G14G22G19G18G 3G31G11
  21541278.0024   -2849159.58549  -2053786.13147  21541277.7144   21541282.7544
       237.0004        198.0004
  20400053.9614     259662.64349    175796.57448  20400053.4774   20400057.0624
       237.0004        213.0004
  21314405.1334     789763.21649    610240.38847  21314405.0044   21314406.8934
       241.0004        204.0004
  22740703.7104     832091.80149    643876.05446  22740702.8494   22740706.6834
       224.0004        181.0004
  23399418.5324    2105640.88449   1628349.21445  23399418.0204   23399421.2314
       215.0004        158.0004
  23797568.2194    2615436.66149   2024536.63645  23797567.5574   23797573.9264
       215.0004        155.0004
  22876047.9144   -4243666.33649  -3296984.75346  22876048.2614   22876051.7074
       226.0004        178.0004
  24153480.0444   -3571061.00549  -2759422.82645  24153478.8854   24153482.7374
       210.0004        136.0004
 07  2 18  1 23 40.0000000  0  8G 1G14G22G19G18G 3G31G11
  21539487.1434   -2858570.50249  -2061119.31047  21539486.6344   21539491.8234
       237.0004        198.0004
  20400758.7064     263366.04249    178682.33948  20400758.2594   20400761.8334
       237.0004        213.0004
  21315363.8034     794801.09549    614166.01247  21315363.6514   21315365.6204
       241.0004        204.0004
  22741895.5904     838355.26249    648756.67246  22741894.3744   22741897.8344
       225.0004        181.0004
  23401395.6114    2116030.53049   1636445.04845  23401394.0724   23401400.3034
       216.0004        159.0004
  23799980.8794    2628115.37549   2034416.14745  23799979.9574   23799986.3034
       215.0004        155.0004
  22872951.6374   -4259937.56549  -3309663.62946  22872951.6454   22872955.3924
       226.0004        178.0004
  24150536.9174   -3586527.25049  -2771474.43545  24150535.6424   24150540.2504
       209.0004        136.0004
 07  2 18  1 23 45.0000000  0  8G 1G14G22G19G18G 3G31G11
  21537698.2544   -2867971.16149  -2068444.49747  21537698.0424   21537702.8374
       237.0004        198.0004
  20401465.4724     267080.20949    181576.49848  20401464.9904   20401468.6934
       237.0004        213.0004
  21316323.2644     799843.11349    618094.85947  21316323.0774   21316325.1744
       240.0004        204.0004
  22743089.8154     844630.82249    653646.71546  22743088.3884   22743091.5994
       224.0004        180.0004
  23403373.2244    2126423.11549   1644543.16145  23403373.9614   23403377.1064
       218.0004        159.0004
  23802394.1154    2640797.13349   2044298.03745  23802393.4664   23802399.3064
       216.0004        155.0004
  22869856.2004   -4276204.14049  -3322338.87746  22869856.0484   22869859.8304
       225.0004        178.0004
  24147594.7834   -3601988.17249  -2783521.90145  24147594.0784   24147597.8554
       209.0004        136.0004
 07  2 18  1 23 50.0000000  0  8G 1G14G22G19G18G 3G31G11
  21535911.2224   -2877362.01749  -2075762.03547  21535910.5594   21535916.0254
       237.0004        198.0004
  20402174.2314     270804.72649    184478.72548  20402173.8494   20402177.1394
       237.0004        213.0004
  21317283.4584     804888.82849    622026.59247  21317283.1924   21317285.0604
       241.0004        204.0004
  22744286.2254     850918.00649    658545.81946  22744284.7694   22744288.1164
       224.0004        180.0004
  23405351.3694    2136818.18949   1652643.21745  23405352.2024   23405354.6764
       218.0004        159.0004
  23804807.8924    2653481.50749   2054181.96645  23804808.1444   23804813.3684
       217.0004        156.0004
  22866761.5644   -4292466.53449  -3335010.85346  22866761.5304   22866765.4584
       224.0004        179.0004
  24144653.5764   -3617444.23249  -2795565.58545  24144652.4554   24144657.4654
       210.0004        136.0004
 07  2 18  1 23 55.0000000  0  8G 1G14G22G19G18G 3G31G11
  21534126.3634   -2886741.45249  -2083070.68947  21534125.6254   21534130.8704
       237.0004        198.0004
  20402885.2574     274541.19849    187390.25948  20402884.8374   20402888.3374
       238.0004        213.0004
  21318244.6394     809939.87349    625962.46747  21318244.4764   21318246.3474
       242.0004        204.0004
  22745485.1354     857218.40049    663455.21546  22745484.6594   22745487.3834
       225.0004        180.0004
  23407330.2874    2147217.41549   1660746.51545  23407329.1534   23407332.9294
       219.0004        159.0004
  23807222.4754    2666170.13649   2064069.20245  23807222.8834   23807228.6184
       217.0004        156.0004
  22863667.9974   -4308723.13449  -3347678.32146  22863667.4924   22863672.2694
       226.0004        179.0004
  24141713.6224   -3632893.79549  -2807604.19845  24141713.5294   24141717.6624
       211.0004        136.0004
 07  2 18  1 24  0.0000000  0  8G 1G14G22G19G18G 3G31G11
  21532343.5544   -2896110.24049  -2090371.03947  21532342.9394   21532348.0374
       237.0004        198.0004
  20403598.3814     278288.77649    190310.45148  20403597.9834   20403601.5834
       238.0004        213.0004
  21319206.6814     814995.43949    629901.86747  21319206.6004   21319208.4354
       241.0004        204.0004
  22746686.4174     863531.23649    668374.30646  22746685.6274   22746689.2554
       225.0004        180.0004
  23409309.8754    2157619.95849   1668852.38645  23409309.9124   23409314.3474
       218.0004        160.0004
  23809637.6994    2678862.13549   2073959.06945  23809638.2504   23809642.7034
       218.0004        156.0004
  22860575.4014   -4324974.65349  -3360341.83946  22860575.7934   22860579.1814
       227.0004        179.0004
  24138774.7624   -3648337.61849  -2819638.33645  24138775.4144   24138777.8434
       211.0004        137.0004
 07  2 18  1 24  5.0000000  0  8G 1G14G22G19G18G 3G31G11
  21530562.6304   -2905468.86149  -2097663.46347  21530561.8724   21530567.0384
       237.0004        198.0004
  20404313.5554     282047.01049    193238.94848  20404312.9284   20404316.5414
       237.0004        213.0004
  21320169.4834     820055.05549    633844.43147  21320169.3844   21320171.2874
       240.0004        204.0004
  22747889.9994     869856.03349    673302.71846  22747889.1744   22747892.1254
       224.0004        180.0004
  23411289.9874    2168025.41049   1676960.53145  23411289.8614   23411294.8564
       218.0004        160.0004
  23812053.4944    2691557.00449   2083851.17445  23812053.6484   23812059.5274
       218.0004        157.0004
  22857483.6754   -4341221.58849  -3373001.78146  22857484.0034   22857487.0404
       225.0004        179.0004
  24135836.8894   -3663776.13649  -2831668.33745  24135837.1184   24135839.9284
       211.0004        138.0004
 07  2 18  1 24 10.0000000  0  8G 1G14G22G19G18G 3G31G11
  21528783.6514   -2914817.47749  -2104948.09347  21528783.0544   21528788.5604
       237.0004        198.0004
  20405030.7224     285815.76249    196175.63848  20405030.3914   20405033.7664
       237.0004        213.0004
  21321133.0254     825118.55049    637790.01247  21321132.9174   21321134.7274
       240.0004        204.0004
  22749095.7864     876192.57049    678240.28146  22749095.6894   22749098.2584
       224.0004        180.0004
  23413270.6414    2178433.57349   1685070.78345  23413271.0104   23413274.6364
       217.0004        160.0004
  23814469.8084    2704254.65049   2093745.44645  23814469.8864   23814475.3874
       218.0004        157.0004
  22854392.8014   -4357464.09049  -3385658.26546  22854392.2434   22854396.9794
       225.0004        179.0004
  24132899.9874   -3679209.57949  -2843694.39145  24132899.6914   24132903.6084
       210.0004        139.0004
 07  2 18  1 24 15.0000000  0  8G 1G14G22G19G18G 3G31G11
  21527006.8204   -2924154.69249  -2112223.84447  21527006.6034   21527011.5954
       237.0004        198.0004
  20405750.1274     289596.38049    199121.57748  20405749.6234   20405753.2884
       238.0004        213.0004
  21322097.5944     830187.34349    641739.72347  21322097.4994   21322099.5924
       241.0004        204.0004
  22750304.0834     882542.29149    683188.11946  22750303.3134   22750306.1354
       225.0004        180.0004
  23415252.0494    2188845.80649   1693184.20545  23415251.1694   23415255.0464
       218.0004        160.0004
  23816886.9004    2716956.39149   2103642.91045  23816886.3934   23816892.1474
       217.0004        156.0004
  22851303.0584   -4373700.72949  -3398310.17946  22851302.7024   22851307.0244
       226.0004        179.0004
  24129964.3314   -3694636.48349  -2855715.34645  24129964.2734   24129969.1514
       212.0004        139.0004
 07  2 18  1 24 20.0000000  0  8G 1G14G22G19G18G 3G31G11
  21525231.9924   -2933481.47949  -2119491.46347  21525231.3524   21525236.4134
       238.0004        198.0004
  20406471.6314     293387.88849    202075.99848  20406471.1344   20406474.7734
       238.0004        213.0004
  21323062.9544     835260.44649    645692.78947  21323062.7714   21323064.8064
       242.0004        204.0004
  22751514.6934     888904.17349    688145.42846  22751513.8154   22751516.6324
       224.0004        180.0004
  23417234.0644    2199261.12549   1701300.03745  23417233.5774   23417237.3004
       218.0004        160.0004
  23819304.5944    2729661.28849   2113542.81745  23819303.3794   23819309.9494
       216.0004        156.0004
  22848214.2744   -4389932.51349  -3410958.31346  22848214.4504   22848218.4884
       227.0004        179.0004
  24127029.7234   -3710057.86749  -2867731.99445  24127030.3244   24127034.4984
       212.0004        140.0004
 07  2 18  1 24 25.0000000  0  8G 1G14G22G19G18G 3G31G11
  21523459.0924   -2942798.21349  -2126751.25447  21523458.6804   21523463.9404
       237.0004        198.0004
  20407195.1294     297189.92949    205038.62848  20407194.8034   20407198.1664
       238.0004        213.0004
  21324029.1014     840337.48049    649648.91947  21324029.0324   21324030.9704
       241.0004        204.0004
  22752727.5584     895277.80449    693111.89046  22752725.9964   22752729.7754
       224.0004        180.0004
  23419216.5354    2209679.18049   1709417.99845  23419216.3144   23419220.1894
       217.0004        160.0004
  23821722.7774    2742368.86949   2123444.83445  23821722.9144   23821728.0114
       215.0004        156.0004
  22845126.3274   -4406159.80149  -3423602.94646  22845126.8584   22845130.1024
       227.0004        180.0004
  24124096.1344   -3725474.03349  -2879744.57845  24124096.1964   24124100.2874
       211.0004        140.0004
 07  2 18  1 24 30.0000000  0  8G 1G14G22G19G18G 3G31G11
  21521688.2174   -2952104.14449  -2134002.61547  21521687.4164   21521692.7554
       238.0004        198.0004
  20407920.7694     301003.24649    208010.05448  20407920.1814   20407923.7614
       239.0004        213.0004
  21324996.1174     845419.19549    653608.70847  21324995.9234   21324997.8884
       242.0004        204.0004
  22753942.7854     901663.96549    698088.11846  22753941.3844   22753944.8064
       225.0004        180.0004
  23421199.7014    2220100.71249   1717538.68345  23421199.9514   23421203.1754
       219.0004        160.0004
  23824141.6034    2755079.89849   2133349.52445  23824140.6514   23824146.5494
       215.0004        156.0004
  22842039.3724   -4422381.80649  -3436243.44946  22842039.4454   22842043.1924
       227.0004        180.0004
  24121163.6954   -3740884.28749  -2891752.56045  24121163.9264   24121167.0664
       212.0004        141.0004
 07  2 18  1 24 35.0000000  0  8G 1G14G22G19G18G 3G31G11
  21519919.2734   -2961399.90949  -2141246.07147  21519918.4304   21519924.4054
       238.0004        198.0004
  20408648.4474     304827.18249    210989.73648  20408648.1974   20408651.6724
       238.0004        213.0004
  21325963.8804     850504.96549    657571.64147  21325963.6534   21325965.5814
       242.0004        204.0004
  22755160.2794     908062.02349    703073.61046  22755159.6814   22755162.7904
       226.0004        180.0004
  23423183.4224    2230525.12949   1725661.60345  23423182.4184   23423186.6854
       217.0004        160.0004
  23826560.9204    2767793.65549   2143256.34745  23826559.9764   23826566.1074
       216.0004        156.0004
  22838953.3404   -4438599.17349  -3448880.35946  22838953.2024   22838957.5054
       228.0004        180.0004
  24118232.2614   -3756289.18649  -2903756.36845  24118232.1054   24118235.7464
       214.0004        142.0004
 07  2 18  1 24 40.0000000  0  8G 1G14G22G19G18G 3G31G11
  21518152.4304   -2970684.78549  -2148481.03047  21518151.8134   21518157.2694
       237.0004        198.0004
  20409378.2644     308662.44049    213978.25348  20409377.9824   20409381.4184
       238.0004        213.0004
  21326932.5784     855595.52149    661538.30547  21326932.4624   21326934.4664
       241.0004        204.0004
  22756380.1934     914472.66349    708068.91946  22756379.4764   22756382.5354
       226.0004        180.0004
  23425167.7934    2240953.13749   1733787.31045  23425167.8544   23425170.8734
       219.0004        160.0004
  23828980.9394    2780510.92349   2153165.90345  23828980.6504   23828986.7204
       214.0004        156.0004
  22835868.3324   -4454811.13049  -3461513.04146  22835868.9974   22835872.0354
       228.0004        180.0004
  24115301.9714   -3771688.05049  -2915755.47345  24115301.9644   24115305.2294
       213.0004        142.0004
 07  2 18  1 24 45.0000000  0  8G 1G14G22G19G18G 3G31G11
  21516387.5664   -2979959.12249  -2155707.78047  21516387.1754   21516392.3444
       237.0004        198.0004
  20410110.1974     312508.64549    216975.29548  20410109.8054   20410113.4734
       238.0004        213.0004
  21327902.1274     860690.49549    665508.41747  21327902.0814   21327903.8174
       241.0004        204.0004
  22757602.4474     920895.55649    713073.76946  22757601.5504   22757605.3814
       225.0004        180.0004
  23427152.8114    2251384.35049   1741915.54345  23427153.1694   23427155.2674
       217.0004        160.0004
  23831401.5644    2793231.32749   2163077.89945  23831402.4934   23831407.5784
       215.0004        156.0004
  22832784.2744   -4471018.03849  -3474141.80046  22832784.7624   22832788.1784
       227.0004        180.0004
  24112372.7574   -3787081.19849  -2927750.13345  24112373.5914   24112375.7054
       215.0004        142.0004
 07  2 18  1 24 50.0000000  0  8G 1G14G22G19G18G 3G31G11
  21514624.7304   -2989222.88449  -2162926.29647  21514624.3064   21514629.7464
       237.0004        198.0004
  20410844.1664     316365.80349    219980.87548  20410843.7874   20410847.4714
       239.0004        213.0004
  21328872.5054     865789.93649    669482.01047  21328872.3594   21328874.3084
       242.0004        204.0004
  22758827.0644     927330.72549    718088.18446  22758826.2324   22758830.1104
       226.0004        180.0004
  23429138.4594    2261818.90549   1750046.35945  23429137.6164   23429141.3184
       216.0004        160.0004
  23833822.7924    2805954.97849   2172992.43245  23833822.3584   23833828.0344
       217.0004        156.0004
  22829701.1874   -4487219.84049  -3486766.56546  22829700.8874   22829704.3384
       226.0004        180.0004
  24109444.6634   -3802468.56449  -2939740.28945  24109444.6194   24109448.2944
       214.0004        143.0004
 07  2 18  1 24 55.0000000  0  8G 1G14G22G19G18G 3G31G11
  21512863.8354   -2998476.43349  -2170136.84547  21512863.0554   21512868.5294
       237.0004        198.0004
  20411580.2044     320233.57949    222994.73348  20411579.7774   20411583.3974
       238.0004        213.0004
  21329843.6784     870893.47549    673458.80347  21329843.2674   21329845.4264
       241.0004        204.0004
  22760053.9044     933777.76449    723111.84946  22760053.0734   22760056.9334
       224.0004        180.0004
  23431124.6164    2272256.34549   1758179.42745  23431124.5204   23431127.9724
       215.0004        160.0004
  23836244.5644    2818681.49149   2182909.19245  23836243.8124   23836250.5784
       216.0004        156.0004
  22826619.0224   -4503416.90849  -3499387.64446  22826619.0804   22826622.8114
       227.0004        180.0004
  24106517.5924   -3817850.55649  -2951726.25745  24106517.0564   24106520.2124
       214.0004        142.0004
 07  2 18  1 25  0.0000000  0  8G 1G14G22G19G18G 3G31G11
  21511104.9964   -3007719.09649  -2177338.91447  21511104.2924   21511109.8484
       237.0004        198.0004
  20412318.3744     324112.63849    226017.37748  20412318.0464   20412321.4724
       238.0004        213.0004
  21330815.7474     876001.78949    677439.30147  21330815.3444   21330817.5584
       241.0004        204.0004
  22761283.1354     940237.36749    728145.30546  22761281.9224   22761286.0874
       224.0004        180.0004
  23433111.4664    2282697.37349   1766315.28645  23433110.7354   23433115.9204
       217.0004        159.0004
  23838667.0374    2831411.54149   2192828.71145  23838667.4544   23838672.8744
       217.0004        156.0004
  22823537.8654   -4519608.53849  -3512004.49046  22823537.6644   22823541.6794
       226.0004        180.0004
  24103591.6784   -3833226.47449  -2963707.49145  24103591.5614   24103594.6644
       214.0004        143.0004
 07  2 18  1 25  5.0000000  0  8G 1G14G22G19G18G 3G31G11
  21509348.1584   -3016951.31249  -2184532.84447  21509347.5694   21509352.9864
       238.0004        198.0004
  20413058.6054     328002.50849    229048.44548  20413058.1444   20413061.6724
       238.0004        213.0004
  21331788.6364     881114.44049    681423.18647  21331788.4104   21331790.3804
       241.0004        204.0004
  22762514.6484     946709.02749    733188.15746  22762513.4404   22762516.7154
       225.0004        180.0004
  23435098.9314    2293141.55949   1774453.60345  23435098.5994   23435102.1364
       218.0004        159.0004
  23841090.0714    2844144.57949   2202750.55545  23841090.1374   23841096.2454
       217.0004        157.0004
  22820457.6274   -4535795.17849  -3524617.45246  22820457.8664   22820461.4794
       225.0004        180.0004
  24100666.8274   -3848596.74149  -2975684.32845  24100666.6964   24100670.6184
       213.0004        143.0004
 07  2 18  1 25 10.0000000  0  8G 1G14G22G19G18G 3G31G11
  21507593.3834   -3026172.68349  -2191718.32647  21507592.7934   21507598.6904
       237.0004        198.0004
  20413800.9514     331903.59649    232088.25348  20413800.4904   20413804.0694
       238.0004        213.0004
  21332762.4334     886231.82349    685410.75147  21332762.2564   21332764.0154
       240.0004        204.0004
  22763748.5434     953193.17449    738240.74146  22763747.2064   22763750.6254
       224.0004        180.0004
  23437087.0454    2303589.21349   1782594.64845  23437086.4634   23437089.9464
       216.0004        159.0004
  23843513.7464    2856880.99649   2212675.02945  23843513.8094   23843520.1334
       215.0004        157.0004
  22817378.4134   -4551976.42749  -3537226.20746  22817378.1884   22817382.3804
       226.0004        180.0004
  24097743.1394   -3863960.94749  -2987656.43545  24097743.0904   24097746.7564
       212.0004        143.0004
 07  2 18  1 25 15.0000000  0  8G 1G14G22G19G18G 3G31G11
  21505840.5454   -3035383.91949  -2198895.91447  21505839.9674   21505845.1894
       237.0004        198.0004
  20414545.3144     335815.18049    235136.24348  20414544.7854   20414548.4804
       238.0004        213.0004
  21333737.0184     891353.21249    689401.45347  21333736.7914   21333738.7864
       241.0004        204.0004
  22764984.6514     959689.10649    743302.50246  22764983.9704   22764987.2164
       224.0004        180.0004
  23439075.7394    2314039.72249   1790737.89145  23439075.4964   23439079.7044
       217.0004        159.0004
  23845937.9414    2869620.08849   2222601.59245  23845937.6614   23845944.3774
       216.0004        157.0004
  22814300.1084   -4568152.95949  -3549831.28046  22814300.0694   22814304.1754
       225.0004        180.0004
  24094820.4504   -3879319.78649  -2999624.35845  24094820.2334   24094823.7984
       210.0004        142.0004
 07  2 18  1 25 20.0000000  0  8G 1G14G22G19G18G 3G31G11
  21504089.7464   -3044584.43349  -2206065.13447  21504089.2994   21504094.5694
       237.0004        198.0004
  20415291.7854     339737.82549    238192.85448  20415291.2084   20415294.6664
       239.0004        213.0004
  21334712.4524     896479.22049    693395.74747  21334712.2264   21334714.1834
       242.0004        204.0004
  22766223.1144     966197.37449    748373.88446  22766222.1724   22766225.3634
       225.0004        180.0004
  23441065.0544    2324493.66149   1798883.81245  23441065.1884   23441067.0014
       219.0004        159.0004
  23848362.7024    2882362.40049   2232530.66345  23848362.4124   23848368.9014
       218.0004        157.0004
  22811222.8124   -4584324.15449  -3562432.20546  22811222.4594   22811226.7174
       227.0004        180.0004
  24091898.9154   -3894672.63549  -3011587.61445  24091897.8864   24091902.8264
       208.0004        142.0004
 07  2 18  1 25 25.0000000  0  8G 1G14G22G19G18G 3G31G11
  21502340.8124   -3053774.99849  -2213226.61047  21502340.2504   21502345.5984
       238.0004        198.0004
  20416040.1794     343670.77349    241257.48748  20416039.7004   20416043.2614
       238.0004        213.0004
  21335688.6274     901609.06449    697393.02647  21335688.5904   21335690.5054
       241.0004        204.0004
  22767463.7924     972717.17449    753454.24446  22767463.0434   22767466.6024
       225.0004        180.0004
  23443054.9204    2334950.20849   1807031.78445  23443054.7014   23443057.8044
       218.0004        159.0004
  23850787.9754    2895107.20149   2242461.67645  23850788.1834   23850793.8764
       216.0004        157.0004
  22808146.3634   -4600490.81549  -3575029.59646  22808145.8694   22808149.7134
       226.0004        180.0004
  24088978.3324   -3910020.29749  -3023546.82045  24088977.7584   24088981.3314
       209.0004        142.0004
 07  2 18  1 25 30.0000000  0  8G 1G14G22G19G18G 3G31G11
  21500594.0904   -3062954.14849  -2220379.18947  21500593.5094   21500598.7874
       238.0004        198.0004
  20416790.8364     347615.48449    244331.29248  20416790.2004   20416793.9204
       239.0004        213.0004
  21336665.8444     906744.21849    701394.44947  21336665.8244   21336667.7324
       241.0004        204.0004
  22768706.9454     979250.00849    758544.76846  22768706.4924   22768709.3064
       225.0004        180.0004
  23445045.5464    2345410.88049   1815182.95245  23445045.1134   23445049.7504
       216.0004        159.0004
  23853213.9544    2907855.90849   2252395.73345  23853213.5944   23853219.5954
       216.0004        157.0004
  22805071.0904   -4616651.39649  -3587622.25046  22805070.6284   22805074.4484
       226.0004        180.0004
  24086059.0434   -3925361.26649  -3035500.80945  24086057.9894   24086062.0924
       210.0004        142.0004
 07  2 18  1 25 35.0000000  0  8G 1G14G22G19G18G 3G31G11
  21498849.3014   -3072122.95449  -2227523.71447  21498848.9574   21498854.0484
       238.0004        198.0004
  20417543.5044     351570.86649    247413.40848  20417542.8594   20417546.7024
       238.0004        213.0004
  21337643.8144     911883.58149    705399.14847  21337643.7474   21337645.8144
       241.0004        204.0004
  22769952.3674     985794.74649    763644.56346  22769951.7104   22769955.1464
       225.0004        180.0004
  23447036.7314    2355874.56249   1823336.47145  23447036.7244   23447039.7324
       220.0004        159.0004
  23855640.4704    2920607.30549   2262331.88545  23855640.0244   23855647.6814
       215.0004        157.0004
  22801996.7804   -4632806.99149  -3600211.00946  22801996.6164   22802000.6544
       226.0004        180.0004
  24083140.7834   -3940696.62949  -3047450.42445  24083139.2704   24083144.7684
       210.0004        143.0004
 07  2 18  1 25 40.0000000  0  8G 1G14G22G19G18G 3G31G11
  21497106.5064   -3081281.48049  -2234660.22147  21497106.0234   21497111.4614
       238.0004        198.0004
  20418298.1984     355536.87049    250503.80448  20418297.5874   20418301.3124
       237.0004        213.0004
  21338622.6224     917027.12449    709407.10547  21338622.4494   21338624.5354
       241.0004        204.0004
  22771200.0834     992351.34249    768753.58846  22771199.2674   22771202.7664
       224.0004        180.0004
  23449028.4834    2366341.20849   1831492.30045  23449027.1664   23449031.0784
       216.0004        160.0004
  23858067.5224    2933361.53649   2272270.24845  23858066.9344   23858073.5954
       215.0004        157.0004
  22798923.3874   -4648957.64649  -3612795.92346  22798923.9234   22798927.5614
       226.0004        180.0004
  24080223.5844   -3956026.43449  -3059395.70845  24080223.1884   24080227.3274
       211.0004        143.0004
 07  2 18  1 25 45.0000000  0  8G 1G14G22G19G18G 3G31G11
  21495365.7774   -3090429.09949  -2241788.23147  21495365.3384   21495370.4024
       237.0004        198.0004
  20419055.0534     359514.09049    253602.93848  20419054.5634   20419058.0824
       238.0004        213.0004
  21339602.3054     922175.44749    713418.78447  21339602.2914   21339604.1334
       241.0004        204.0004
  22772450.1104     998920.37749    773872.31146  22772449.5814   22772452.4684
       225.0004        180.0004
  23451020.8754    2376811.47649   1839650.94545  23451019.6774   23451024.3504
       217.0004        160.0004
  23860495.1934    2946119.17149   2282211.24445  23860494.3834   23860500.2234
       214.0004        156.0004
  22795851.0984   -4665102.73749  -3625376.50846  22795850.8714   22795854.4574
       225.0004        180.0004
  24077307.5834   -3971350.05949  -3071336.17945  24077306.9274   24077311.1614
       213.0004        144.0004
 07  2 18  1 25 50.0000000  0  8G 1G14G22G19G18G 3G31G11
  21493626.9834   -3099566.54849  -2248908.31147  21493626.3924   21493631.9784
       239.0004        198.0004
  20419813.8794     363501.78549    256710.23648  20419813.3374   20419816.9754
       239.0004        213.0004
  21340582.7864     927327.80549    717433.61247  21340582.8224   21340584.8514
       243.0004        204.0004
  22773702.4014    1005501.12649    779000.17146  22773701.5154   22773704.7674
       226.0004        180.0004
  23453013.8274    2387284.59349   1847811.81245  23453013.2974   23453017.1724
       217.0004        160.0004
  23862923.3714    2958879.45149   2292154.32045  23862923.3924   23862928.8394
       215.0004        156.0004
  22792779.6984   -4681242.98749  -3637953.32146  22792779.7074   22792783.4694
       227.0004        180.0004
  24074392.6204   -3986668.21949  -3083272.39245  24074392.0754   24074395.9574
       215.0004        145.0004
 07  2 18  1 25 55.0000000  0  8G 1G14G22G19G18G 3G31G11
  21491890.2654   -3108693.20049  -2256019.98747  21491889.4854   21491895.0364
       238.0004        199.0004
  20420574.8004     367500.57549    259826.17948  20420574.1214   20420577.8114
       239.0004        213.0004
  21341564.1474     932484.86149    721452.09747  21341563.8634   21341565.8674
       242.0004        204.0004
  22774957.0294    1012094.20649    784137.64146  22774955.9064   22774959.1454
       225.0004        180.0004
  23455007.4814    2397761.25149   1855975.44545  23455006.4074   23455010.4584
       217.0004        160.0004
  23865352.1814    2971642.98549   2302099.93745  23865351.5314   23865357.8484
       215.0004        155.0004
  22789709.3304   -4697377.73449  -3650525.84246  22789709.4424   22789712.6844
       226.0004        180.0004
  24071478.8194   -4001980.26749  -3095203.85145  24071478.0034   24071482.1894
       215.0004        145.0004
 07  2 18  1 26  0.0000000  0  8G 1G14G22G19G18G 3G31G11
  21490155.5074   -3117809.46749  -2263123.57447  21490155.1854   21490160.1694
       239.0004        199.0004
  20421337.7724     371510.05049    262950.44348  20421337.1524   20421340.9754
       239.0004        213.0004
  21342546.3174     937646.21749    725473.93147  21342546.2534   21342548.3994
       242.0004        204.0004
  22776213.9464    1018699.22749    789284.40846  22776213.1164   22776216.6994
       225.0004        180.0004
  23457001.6974    2408240.97349   1864141.45945  23457001.0464   23457005.2174
       217.0004        160.0004
  23867781.4924    2984409.27149   2312047.68945  23867781.7094   23867787.8444
       215.0004        155.0004
  22786639.9504   -4713507.38549  -3663094.38946  22786639.2084   22786643.8934
       226.0004        180.0004
  24068566.1294   -4017286.59049  -3107130.85045  24068565.3394   24068570.1824
       212.0004        146.0004
 07  2 18  1 26  5.0000000  0  8G 1G14G22G19G18G 3G31G11
  21488422.8134   -3126914.74949  -2270218.59147  21488422.3554   21488427.4254
       238.0004        199.0004
  20422102.8974     375530.76349    266083.46648  20422102.6434   20422106.0184
       238.0004        213.0004
  21343529.4034     942812.44349    729499.56547  21343529.1524   21343531.1154
       241.0004        204.0004
  22777473.2064    1025316.77049    794440.93046  22777472.3644   22777476.4924
       225.0004        180.0004
  23458996.6164    2418724.37949   1872310.34445  23458996.5254   23459000.2034
       218.0004        160.0004
  23870211.4644    2997178.88249   2321998.02945  23870211.4964   23870217.5624
       215.0004        155.0004
  22783571.6594   -4729631.34249  -3675658.50246  22783571.5524   22783575.6744
       226.0004        180.0004
  24065654.6374   -4032586.62949  -3119052.95345  24065654.2944   24065658.9554
       213.0004        147.0004
 07  2 18  1 26 10.0000000  0  8G 1G14G22G19G18G 3G31G11
  21486692.1084   -3136009.67049  -2277305.53847  21486691.5634   21486696.4104
       237.0004        199.0004
  20422870.0254     379562.11849    269224.78548  20422869.6624   20422873.0464
       238.0004        213.0004
  21344513.2964     947982.92149    733528.51047  21344512.8614   21344515.0744
       240.0004        204.0004
  22778734.7414    1031946.18349    799606.71246  22778733.8014   22778737.4994
       224.0004        180.0004
  23460992.1374    2429210.86249   1880481.63445  23460992.4834   23460995.3324
       218.0004        160.0004
  23872641.9684    3009951.17949   2331950.46545  23872641.6744   23872647.9894
       215.0004        155.0004
  22780504.3404   -4745750.20349  -3688218.63446  22780504.0454   22780507.8904
       226.0004        180.0004
  24062744.2414   -4047880.94349  -3130970.59345  24062743.1904   24062748.4384
       213.0004        147.0004
 07  2 18  1 26 15.0000000  0  8G 1G14G22G19G18G 3G31G11
  21484963.3464   -3145094.40849  -2284384.54547  21484962.5104   21484968.0034
       237.0004        199.0004
  20423639.1534     383603.89449    272374.22848  20423638.6894   20423642.1334
       238.0004        213.0004
  21345497.9774     953157.47349    737560.63547  21345497.5904   21345499.8694
       241.0004        204.0004
  22779998.4854    1038587.28749    804781.58846  22779998.1754   22780000.6534
       226.0004        180.0004
  23462988.2024    2439700.23049   1888655.17545  23462986.9124   23462991.0554
       217.0004        160.0004
  23875072.9474    3022726.03849   2341904.88745  23875073.1414   23875079.0954
       215.0004        155.0004
  22777437.9514   -4761864.11749  -3700774.92446  22777437.7084   22777441.6664
       225.0004        180.0004
  24059834.8634   -4063169.74949  -3142883.93645  24059834.4834   24059838.6474
       211.0004        148.0004
 07  2 18  1 26 20.0000000  0  8G 1G14G22G19G18G 3G31G11
  21483236.6904   -3154167.96349  -2291454.85347  21483236.5454   21483241.7764
       237.0004        199.0004
  20424410.4424     387657.10049    275532.56348  20424410.1454   20424413.7514
       238.0004        213.0004
  21346483.6114     958337.10549    741596.70047  21346483.7874   21346485.7944
       241.0004        204.0004
  22781264.6824    1045241.04649    809966.32846  22781263.8994   22781267.4014
       225.0004        180.0004
  23464984.9824    2450193.46649   1896831.70945  23464984.5494   23464988.0044
       217.0004        160.0004
  23877504.6314    3035504.44049   2351862.07445  23877505.3874   23877511.0254
       215.0004        155.0004
  22774372.6794   -4777972.12549  -3713326.62046  22774372.7204   22774376.2634
       226.0004        181.0004
  24056926.7394   -4078452.02049  -3154792.18545  24056926.1674   24056930.3554
       214.0004        148.0004
 07  2 18  1 26 25.0000000  0  8G 1G14G22G19G18G 3G31G11
  21481512.0024   -3163231.18349  -2298517.09347  21481511.4494   21481516.6854
       238.0004        199.0004
  20425183.7814     391720.88649    278699.15648  20425183.3404   20425186.7764
       239.0004        213.0004
  21347470.0534     963520.96249    745636.07747  21347469.8344   21347471.9544
       241.0004        204.0004
  22782533.1064    1051906.61049    815160.28446  22782532.4414   22782535.6004
       225.0004        180.0004
  23466982.3354    2460689.72249   1905010.61245  23466982.8464   23466985.6634
       219.0004        160.0004
  23879936.8084    3048285.50749   2361821.35045  23879936.7044   23879942.2204
       216.0004        155.0004
  22771308.3824   -4794075.01049  -3725874.30846  22771308.1814   22771312.4074
       226.0004        181.0004
  24054019.6694   -4093728.61349  -3166696.01145  24054019.5594   24054023.1974
       215.0004        149.0004
 07  2 18  1 26 30.0000000  0  8G 1G14G22G19G18G 3G31G11
  21479789.2844   -3172284.12249  -2305571.32647  21479788.7224   21479794.2324
       239.0004        199.0004
  20425959.1084     395795.19149    281873.94248  20425958.6334   20425962.1254
       240.0004        213.0004
  21348457.3154     968709.01249    749678.71347  21348457.0814   21348459.2264
       242.0004        204.0004
  22783803.8024    1058583.91749    820363.37946  22783802.6924   22783806.6124
       225.0004        180.0004
  23468980.2974    2471188.92949   1913191.81645  23468980.3034   23468983.5774
       219.0004        160.0004
  23882369.4824    3061069.21449   2371782.68045  23882369.1904   23882375.5574
       216.0004        155.0004
  22768245.0414   -4810172.83649  -3738418.05346  22768245.0224   22768248.8364
       227.0004        181.0004
  24051113.6984   -4108999.54749  -3178595.42445  24051113.5514   24051117.3074
       217.0004        149.0004
 07  2 18  1 26 35.0000000  0  8G 1G14G22G19G18G 3G31G11
  21478068.5814   -3181326.58449  -2312617.39547  21478067.8834   21478073.2794
       238.0004        199.0004
  20426736.4584     399880.15349    285057.03648  20426735.7854   20426739.2594
       239.0004        213.0004
  21349445.3974     973901.42149    753724.75247  21349445.0174   21349447.1604
       242.0004        204.0004
  22785076.7154    1065273.13649    825575.76646  22785074.9814   22785079.5724
       224.0004        180.0004
  23470978.8664    2481691.31349   1921375.51045  23470978.2404   23470983.0544
       218.0004        160.0004
  23884802.6994    3073855.66649   2381746.15645  23884802.4554   23884808.6744
       215.0004        155.0004
  22765182.7244   -4826265.42749  -3750957.72746  22765182.5224   22765186.3664
       226.0004        181.0004
  24048208.8184   -4124264.59849  -3190490.25545  24048208.9814   24048212.5764
       216.0004        150.0004
 07  2 18  1 26 40.0000000  0  8G 1G14G22G19G18G 3G31G11
  21476349.9894   -3190357.84949  -2319654.74347  21476349.4734   21476354.7244
       237.0004        199.0004
  20427515.9744     403976.49049    288248.98348  20427515.6054   20427519.0124
       238.0004        213.0004
  21350434.4704     979098.90449    757774.73247  21350434.2724   21350436.4354
       241.0004        204.0004
  22786352.0094    1071974.97549    830797.97346  22786350.8984   22786354.8784
       223.0004        180.0004
  23472978.1404    2492197.58049   1929562.19745  23472977.5264   23472982.3924
       219.0004        160.0004
  23887236.5344    3086645.57749   2391712.31445  23887236.0814   23887242.7634
       216.0004        155.0004
  22762121.5344   -4842352.01849  -3763492.72846  22762121.2514   22762125.6704
       225.0004        181.0004
  24045305.2514   -4139523.03749  -3202379.93945  24045305.0424   24045308.9934
       216.0004        151.0004
 07  2 18  1 26 45.0000000  0  8G 1G14G22G19G18G 3G31G11
  21474633.3254   -3199378.85549  -2326684.09747  21474632.8014   21474638.0354
       237.0004        199.0004
  20428297.4524     408083.29749    291449.09248  20428296.9844   20428300.5894
       237.0004        213.0004
  21351424.3044     984300.56149    761827.97447  21351423.8574   21351426.1264
       240.0004        204.0004
  22787629.5084    1078688.50849    836029.29146  22787628.7034   22787632.5614
       224.0004        180.0004
  23474977.9894    2502706.81049   1937751.19745  23474977.0224   23474981.1844
       218.0004        160.0004
  23889670.8894    3099438.07549   2401680.48845  23889671.2954   23889677.5464
       216.0004        155.0004
  22759061.3034   -4858433.52849  -3776023.76746  22759061.3004   22759064.5904
       225.0004        181.0004
  24042402.7634   -4154775.81549  -3214265.21045  24042402.6914   24042406.6214
       216.0004        151.0004
 07  2 18  1 26 50.0000000  0  8G 1G14G22G19G18G 3G31G11
  21472918.6294   -3208389.63249  -2333705.47847  21472918.1684   21472923.3264
       238.0004        199.0004
  20429080.9334     412200.52949    294657.33048  20429080.4624   20429083.9514
       239.0004        213.0004
  21352414.9444     989506.34549    765884.42647  21352414.8514   21352416.7454
       241.0004        204.0004
  22788909.2614    1085413.69849    841269.69846  22788908.4574   22788912.5214
       224.0004        180.0004
  23476978.3704    2513218.95049   1945942.47545  23476978.1964   23476980.2684
       218.0004        160.0004
  23892105.7214    3112233.04549   2411650.58545  23892105.4904   23892110.9324
       215.0004        155.0004
  22756002.0614   -4874510.01249  -3788550.88646  22756002.0984   22756006.0724
       225.0004        181.0004
  24039501.3294   -4170022.99449  -3226146.11945  24039501.2404   24039505.0084
       216.0004        151.0004
 07  2 18  1 26 55.0000000  0  8G 1G14G22G19G18G 3G31G11
  21471206.0794   -3217389.18549  -2340718.11247  21471205.5444   21471211.1014
       238.0004        199.0004
  20429866.6004     416329.19149    297874.46648  20429866.2784   20429869.8244
       238.0004        213.0004
  21353406.5584     994717.25749    769944.88047  21353406.6844   21353408.2064
       241.0004        204.0004
  22790191.3834    1092151.49449    846519.92646  22790191.2394   22790194.6934
       225.0004        180.0004
  23478979.5154    2523735.02549   1954136.81645  23478979.0414   23478983.7704
       218.0004        160.0004
  23894541.1824    3125031.44949   2421623.37045  23894540.7044   23894546.2964
       214.0004        155.0004
  22752943.9594   -4890580.38249  -3801073.23846  22752943.5554   22752948.1324
       225.0004        181.0004
  24036601.1514   -4185263.49949  -3238021.83345  24036600.7784   24036604.9634
       216.0004        152.0004
 07  2 18  1 27  0.0000000  0  8G 1G14G22G19G18G 3G31G11
  21469495.3964   -3226378.87349  -2347723.05747  21469494.5684   21469500.0204
       239.0004        199.0004
  20430654.1524     420467.90449    301099.44848  20430653.4434   20430657.0934
       239.0004        213.0004
  21354398.8764     999931.89349    774008.23947  21354398.6074   21354400.6704
       242.0004        204.0004
  22791475.7024    1098900.54149    851778.92746  22791475.1004   22791478.3424
       227.0004        180.0004
  23480981.1424    2534253.63649   1962333.13945  23480981.3254   23480985.4364
       218.0004        160.0004
  23896977.0154    3137831.99649   2431597.81245  23896977.0274   23896982.2854
       215.0004        154.0004
  22749886.7434   -4906646.02249  -3813591.90146  22749886.7214   22749890.4654
       226.0004        181.0004
  24033702.0014   -4200498.72949  -3249893.43545  24033702.0544   24033706.0434
       215.0004        151.0004
 07  2 18  1 27  5.0000000  0  8G 1G14G22G19G18G 3G31G11
  21467786.7844   -3235357.66549  -2354719.51247  21467786.3514   21467791.6684
       239.0004        199.0004
  20431443.8174     424617.67349    304333.03448  20431443.3364   20431447.0514
       239.0004        213.0004
  21355392.1054    1005151.35349    778075.35247  21355391.8804   21355394.1894
       243.0004        204.0004
  22792762.3774    1105661.84549    857047.48046  22792762.0794   22792765.3144
       226.0004        180.0004
  23482983.4384    2544775.87549   1970532.29445  23482982.7394   23482987.1064
       219.0004        160.0004
  23899413.4864    3150635.72049   2441574.72345  23899413.9504   23899418.7524
       216.0004        154.0004
  22746830.6214   -4922705.89749  -3826106.08346  22746830.3674   22746834.1684
       227.0004        181.0004
  24030804.0404   -4215727.63049  -3261760.11145  24030804.2304   24030807.6274
       214.0004        151.0004
 07  2 18  1 27 10.0000000  0  8G 1G14G22G19G18G 3G31G11
  21466080.1424   -3244326.19049  -2361707.96647  21466079.6924   21466084.9294
       239.0004        199.0004
  20432235.4834     428777.87149    307574.75148  20432234.7584   20432238.5694
       239.0004        213.0004
  21356386.1434    1010374.98049    782145.71247  21356385.6624   21356388.1834
       242.0004        204.0004
  22794051.2694    1112434.77149    862325.08346  22794050.2874   22794054.2894
       226.0004        180.0004
  23484986.3314    2555301.07349   1978733.74445  23484985.9534   23484989.8644
       218.0004        160.0004
  23901850.4154    3163441.93549   2451553.59445  23901850.0344   23901856.6564
       214.0004        154.0004
  22743775.4854   -4938760.64449  -3838616.26446  22743775.8124   22743779.0584
       227.0004        181.0004
  24027907.1444   -4230950.82049  -3273622.32945  24027907.0664   24027910.1084
       214.0004        150.0004
 07  2 18  1 27 15.0000000  0  8G 1G14G22G19G18G 3G31G11
  21464375.6744   -3253283.14049  -2368687.41047  21464375.1624   21464380.4534
       238.0004        199.0004
  20433029.3644     432949.80549    310825.60448  20433028.8784   20433032.4044
       237.0004        213.0004
  21357381.2234    1015604.06849    786220.32047  21357381.0334   21357383.1274
       241.0004        204.0004
  22795342.6194    1119220.64849    867612.76846  22795341.6134   22795345.4994
       225.0004        180.0004
  23486990.0204    2565830.51549   1986938.50845  23486990.0054   23486993.3834
       217.0004        160.0004
  23904288.0894    3176251.86249   2461535.35945  23904288.1264   23904293.4074
       215.0004        153.0004
  22740721.5824   -4954808.95249  -3851121.43846  22740721.5864   22740725.2204
       226.0004        181.0004
  24025011.5944   -4246166.96949  -3285479.06545  24025011.1914   24025014.3044
       215.0004        149.0004
 07  2 18  1 27 20.0000000  0  8G 1G14G22G19G18G 3G31G11
  21462672.9934   -3262230.84249  -2375659.63647  21462672.3714   21462677.6044
       238.0004        199.0004
  20433825.0164     437131.10849    314083.77048  20433824.2884   20433828.2384
       239.0004        213.0004
  21358376.8804    1020836.29749    790297.38747  21358376.5244   21358378.4674
       241.0004        203.0004
  22796635.9574    1126017.12049    872908.72046  22796635.4884   22796637.9184
       225.0004        180.0004
  23488994.0714    2576361.88549   1995144.76345  23488993.8784   23488997.4874
       218.0004        159.0004
  23906726.0034    3189063.22949   2471518.23645  23906725.8284   23906731.2114
       214.0004        153.0004
  22737668.4624   -4970853.13749  -3863623.38846  22737668.2004   22737672.5344
       225.0004        181.0004
  24022116.9744   -4261378.38049  -3297332.10645  24022116.8754   24022118.8774
       215.0004        149.0004
 07  2 18  1 27 25.0000000  0  8G 1G14G22G19G18G 3G31G11
  21460972.5094   -3271167.02349  -2382622.89547  21460972.0684   21460977.1274
       238.0004        199.0004
  20434622.9114     441324.05749    317351.00048  20434622.6354   20434626.0864
       238.0004        213.0004
  21359373.5804    1026073.94549    794378.66947  21359373.6034   21359375.4694
       240.0004        203.0004
  22797931.7414    1132826.43949    878214.67946  22797930.8614   22797933.3574
       225.0004        180.0004
  23490998.9354    2586897.44349   2003354.30145  23490997.9014   23491002.2494
       219.0004        159.0004
  23909164.6334    3201878.25049   2481503.96745  23909163.6504   23909171.0334
       216.0004        153.0004
  22734616.5984   -4986890.84549  -3876120.29946  22734617.0324   22734621.3294
       226.0004        181.0004
  24019223.6544   -4276582.76849  -3309179.67445  24019223.5484   24019226.5504
       215.0004        149.0004
 07  2 18  1 27 30.0000000  0  8G 1G14G22G19G18G 3G31G11
  21459273.9554   -3280093.04149  -2389578.22947  21459273.6244   21459278.6514
       238.0004        199.0004
  20435422.7764     445527.30149    320626.25948  20435422.5114   20435425.8074
       239.0004        213.0004
  21360371.0304    1031315.64549    798463.11447  21360370.8934   21360372.9304
       241.0004        203.0004
  22799229.7024    1139647.25149    883529.60246  22799228.5434   22799231.6524
       226.0004        180.0004
  23493004.3554    2597435.84749   2011566.04045  23493004.8314   23493007.5404
       221.0004        159.0004
  23911603.6904    3214695.56749   2491491.47345  23911603.7214   23911608.9784
       214.0004        153.0004
  22731565.6944   -5002923.45049  -3888613.22546  22731565.8344   22731569.7564
       228.0004        181.0004
  24016331.4144   -4291781.50449  -3321022.84145  24016331.5104   24016334.5614
       217.0004        150.0004
 07  2 18  1 27 35.0000000  0  8G 1G14G22G19G18G 3G31G11
  21457577.4504   -3289008.21349  -2396525.11247  21457576.6794   21457582.0504
       237.0004        199.0004
  20436224.6974     449741.47749    323910.03148  20436224.3064   20436227.6834
       238.0004        213.0004
  21361369.3824    1036562.08049    802551.24547  21361369.1124   21361371.1354
       241.0004        203.0004
  22800529.9614    1146480.20149    888853.98246  22800528.4134   22800531.9544
       225.0004        180.0004
  23495010.4714    2607977.77049   2019780.52145  23495009.5734   23495013.7104
       217.0004        159.0004
  23914043.3204    3227515.87049   2501481.31645  23914042.5634   23914049.6894
       213.0004        152.0004
  22728515.9114   -5018950.27549  -3901101.65246  22728515.8364   22728519.3074
       227.0004        181.0004
  24013440.3774   -4306973.91349  -3332861.08345  24013440.3714   24013443.8124
       217.0004        150.0004
 07  2 18  1 27 40.0000000  0  8G 1G14G22G19G18G 3G31G11
  21455882.8324   -3297913.33949  -2403464.16947  21455882.2824   21455887.8734
       237.0004        199.0004
  20437028.5684     453965.80549    327201.71748  20437028.3204   20437031.8664
       238.0004        213.0004
  21362368.5034    1041812.45349    806642.44347  21362368.4404   21362370.3884
       241.0004        203.0004
  22801832.3854    1153324.49849    894187.19746  22801831.5214   22801834.5244
       224.0004        180.0004
  23497017.0834    2618522.46349   2027997.16345  23497017.4334   23497020.4844
       218.0004        159.0004
  23916483.3544    3240338.28249   2511472.81145  23916483.3534   23916488.2504
       213.0004        152.0004
  22725467.0914   -5034972.09949  -3913586.19146  22725467.7864   22725471.7534
       227.0004        181.0004
  24010550.4254   -4322160.74149  -3344694.97145  24010550.7624   24010553.4924
       217.0004        151.0004
 07  2 18  1 27 45.0000000  0  8G 1G14G22G19G18G 3G31G11
  21454190.2884   -3306807.60849  -2410394.76447  21454189.6244   21454194.8764
       238.0004        199.0004
  20437834.5164     458201.09649    330501.94748  20437834.0724   20437837.6964
       238.0004        213.0004
  21363368.5184    1047067.58849    810737.35547  21363368.1884   21363370.4514
       240.0004        203.0004
  22803137.1304    1160180.97449    899529.91446  22803135.9474   22803139.1334
       225.0004        180.0004
  23499024.3744    2629070.70049   2036216.56745  23499024.0344   23499027.3304
       219.0004        159.0004
  23918923.9324    3253163.67149   2521466.62245  23918923.3944   23918929.3124
       214.0004        152.0004
  22722419.3924   -5050988.09249  -3926066.17246  22722418.9574   22722423.2294
       227.0004        182.0004
  24007661.6864   -4337341.18349  -3356523.88645  24007661.9024   24007665.5364
       218.0004        153.0004
 07  2 18  1 27 50.0000000  0  8G 1G14G22G19G18G 3G31G11
  21452499.8174   -3315691.06149  -2417316.93247  21452499.6644   21452504.5824
       237.0004        199.0004
  20438642.5484     462447.28649    333810.66648  20438642.1924   20438645.6454
       238.0004        213.0004
  21364369.4174    1052327.43049    814835.93547  21364369.2554   21364371.3874
       240.0004        203.0004
  22804444.1744    1167049.52749    904882.01846  22804443.0734   22804447.2634
       225.0004        180.0004
  23501032.3264    2639622.45349   2044438.71345  23501031.2954   23501036.6494
       217.0004        159.0004
  23921365.0644    3265991.97049   2531462.69645  23921365.0844   23921371.1704
       213.0004        151.0004
  22719372.7824   -5066998.31749  -3938541.66246  22719372.8854   22719376.2914
       226.0004        182.0004
  24004774.1414   -4352515.29049  -3368347.85945  24004773.9714   24004777.8154
       217.0004        153.0004
 07  2 18  1 27 55.0000000  0  8G 1G14G22G19G18G 3G31G11
  21450811.2964   -3324564.27249  -2424231.12147  21450810.9634   21450815.8844
       239.0004        199.0004
  20439452.5204     466703.78049    337127.41748  20439451.9924   20439455.7594
       238.0004        213.0004
  21365371.1294    1057591.41449    818937.74047  21365370.8624   21365372.7794
       241.0004        203.0004
  22805753.4014    1173929.55749    910243.07846  22805752.2364   22805755.4494
       224.0004        180.0004
  23503040.8014    2650177.13849   2052663.14345  23503039.8744   23503045.1084
       217.0004        159.0004
  23923806.6304    3278822.57049   2541460.57245  23923806.4434   23923811.1064
       213.0004        151.0004
  22716327.1454   -5083003.29249  -3951013.06446  22716326.9644   22716330.5734
       227.0004        182.0004
  24001887.6924   -4367683.66949  -3380167.36745  24001887.3594   24001891.5604
       216.0004        154.0004
 07  2 18  1 28  0.0000000  0  8G 1G14G22G19G18G 3G31G11
  21449124.8544   -3333426.57949  -2431136.81147  21449124.2104   21449129.5894
       238.0004        199.0004
  20440264.6064     470971.24549    340452.71548  20440264.0104   20440267.5724
       239.0004        213.0004
  21366373.7354    1062860.21549    823043.29847  21366373.4874   21366375.6304
       241.0004        203.0004
  22807064.9244    1180821.75149    915613.61246  22807064.0384   22807067.1564
       224.0004        180.0004
  23505049.9794    2660735.46449   2060890.41445  23505049.7734   23505053.3624
       217.0004        158.0004
  23926248.7794    3291656.14649   2551460.75645  23926247.6834   23926254.1574
       211.0004        150.0004
  22713282.6004   -5099002.35549  -3963479.84946  22713282.4824   22713286.4434
       227.0004        182.0004
  23999002.4464   -4382845.69949  -3391981.92145  23999002.0674   23999005.8144
       215.0004        154.0004
 07  2 18  1 28  5.0000000  0  8G 1G14G22G19G18G 3G31G11
  21447440.4414   -3342278.26249  -2438034.22347  21447440.1864   21447445.1814
       238.0004        199.0004
  20441078.6874     475249.37849    343786.32548  20441078.2464   20441081.9674
       238.0004        213.0004
  21367377.2084    1068133.52349    827152.37247  21367377.0434   21367378.9834
       240.0004        203.0004
  22808378.7274    1187725.79349    920993.38646  22808377.8794   22808380.4504
       224.0004        180.0004
  23507059.7804    2671297.12549   2069120.27845  23507058.5924   23507062.0854
       215.0004        158.0004
  23928691.3914    3304492.32749   2561462.96745  23928689.2534   23928696.9934
       211.0004        150.0004
  22710239.1454   -5114995.79049  -3975942.26146  22710238.8394   22710242.8224
       226.0004        182.0004
  23996118.3824   -4398001.52249  -3403791.63745  23996117.9734   23996121.7574
       217.0004        154.0004
 07  2 18  1 28 10.0000000  0  8G 1G14G22G19G18G 3G31G11
  21445757.9044   -3351120.00849  -2444923.88947  21445757.4514   21445762.6414
       238.0004        200.0004
  20441894.6974     479537.50449    347127.72748  20441894.2514   20441897.9844
       238.0004        213.0004
  21368381.3944    1073410.68749    831264.44747  21368381.4674   21368383.0284
       241.0004        203.0004
  22809694.6254    1194641.03249    926381.88546  22809694.1474   22809697.0774
       224.0004        180.0004
  23509070.0614    2681861.40549   2077352.17945  23509069.1204   23509073.5114
       216.0004        157.0004
  23931134.3854    3317330.55149   2571466.77845  23931133.4614   23931139.2434
       210.0004        149.0004
  22707196.6084   -5130984.20849  -3988400.75446  22707196.7554   22707200.1164
       227.0004        182.0004
  23993235.3784   -4413151.78349  -3415597.02445  23993235.2594   23993239.1954
       214.0004        155.0004
 07  2 18  1 28 15.0000000  0  8G 1G14G22G19G18G 3G31G11
  21444077.5354   -3359950.30749  -2451804.64047  21444077.2944   21444082.2814
       238.0004        199.0004
  20442712.8624     483837.10549    350478.06448  20442712.4454   20442715.9324
       238.0004        213.0004
  21369386.6294    1078693.23349    835380.71947  21369386.3424   21369388.2604
       241.0004        203.0004
  22811012.9704    1201568.91849    931780.24546  22811011.2564   22811014.8624
       225.0004        180.0004
  23511081.1324    2692429.80549   2085587.29845  23511080.3384   23511082.8664
       215.0004        157.0004
  23933578.0304    3330172.21749   2581473.25645  23933576.8604   23933583.5274
       210.0004        148.0004
  22704155.3214   -5146966.17649  -4000854.23546  22704155.4204   22704159.0804
       227.0004        182.0004
  23990353.7154   -4428295.03749  -3427396.95645  23990353.1144   23990357.7224
       216.0004        154.0004
 07  2 18  1 28 20.0000000  0  8G 1G14G22G19G18G 3G31G11
  21442399.1364   -3368770.34749  -2458677.39347  21442398.5764   21442403.4104
       239.0004        199.0004
  20443533.0204     488146.98549    353836.41248  20443532.4374   20443536.2294
       239.0004        213.0004
  21370392.6404    1083979.94049    839500.23847  21370392.3554   21370394.4114
       241.0004        203.0004
  22812333.4504    1208508.23749    937187.50746  22812332.1414   22812335.8144
       224.0004        180.0004
  23513092.7694    2703001.13349   2093824.71045  23513091.4064   23513096.3254
       216.0004        156.0004
  23936022.0984    3343016.15249   2591481.51045  23936021.0674   23936027.4624
       210.0004        148.0004
  22701115.0454   -5162942.84149  -4013303.57946  22701115.2254   22701118.5714
       227.0004        182.0004
  23987473.1224   -4443432.46849  -3439192.33945  23987473.0384   23987477.0374
       214.0004        154.0004
 07  2 18  1 28 25.0000000  0  8G 1G14G22G19G18G 3G31G11
  21440722.7334   -3377579.99949  -2465542.05047  21440722.1674   21440727.0104
       238.0004        199.0004
  20444355.1114     492467.25449    357202.86247  20444354.4684   20444358.3544
       238.0004        212.0004
  21371399.4894    1089270.91949    843623.08147  21371399.0884   21371401.2164
       241.0004        203.0004
  22813656.1564    1215459.17649    942603.82846  22813655.0054   22813658.5784
       224.0004        180.0004
  23515104.9944    2713575.54749   2102064.49845  23515104.2124   23515108.5944
       219.0004        156.0004
  23938466.6534    3355862.49749   2601491.63645  23938465.9654   23938471.6584
       211.0004        148.0004
  22698075.8324   -5178914.04949  -4025748.66246  22698075.5994   22698079.2034
       227.0004        182.0004
  23984593.6854   -4458563.89549  -3450983.04545  23984592.9924   23984596.9484
       214.0004        154.0004
 07  2 18  1 28 30.0000000  0  8G 1G14G22G19G18G 3G31G11
  21439048.3874   -3386378.66249  -2472398.15047  21439047.8564   21439053.0734
       238.0004        199.0004
  20445179.3204     496798.54449    360577.89047  20445178.8374   20445182.4984
       238.0004        212.0004
  21372407.2544    1094566.83549    847749.76247  21372407.2304   21372408.9984
       240.0004        203.0004
  22814981.1984    1222422.31349    948029.63646  22814980.0584   22814983.6404
       224.0004        180.0004
  23517117.9194    2724153.63449   2110307.16145  23517117.5584   23517121.9364
       217.0004        156.0004
  23940911.7644    3368711.85349   2611504.11945  23940910.6524   23940917.4334
       209.0004        148.0004
  22695037.7494   -5194879.15849  -4038189.00246  22695037.5924   22695041.8444
       227.0004        182.0004
  23981715.5134   -4473688.70549  -3462768.60245  23981714.6544   23981718.8664
       212.0004        154.0004
 07  2 18  1 28 35.0000000  0  8G 1G14G22G19G18G 3G31G11
  21437376.0454   -3395166.91249  -2479246.13247  21437375.4344   21437380.6924
       239.0004        200.0004
  20446005.5164     501140.25349    363961.04347  20446005.0054   20446008.5844
       238.0004        212.0004
  21373415.8884    1099867.07649    851879.82547  21373415.6424   21373417.5914
       241.0004        203.0004
  22816308.3994    1229396.99449    953464.45046  22816307.3894   22816310.9994
       224.0004        180.0004
  23519131.4284    2734734.83149   2118552.26545  23519130.8454   23519134.8254
       217.0004        156.0004
  23943357.3384    3381563.55849   2621518.42445  23943356.9594   23943363.0334
       211.0004        148.0004
  22692000.7224   -5210838.77749  -4050625.06146  22692000.5454   22692004.3994
       227.0004        182.0004
  23978838.4894   -4488807.49449  -3474549.46345  23978837.9064   23978841.9004
       213.0004        153.0004
 07  2 18  1 28 40.0000000  0  8G 1G14G22G19G18G 3G31G11
  21435705.5554   -3403945.42149  -2486086.52647  21435705.1404   21435710.2324
       238.0004        200.0004
  20446833.5644     505491.67549    367351.76347  20446833.0624   20446836.7264
       238.0004        212.0004
  21374425.1704    1105170.91249    856012.68347  21374425.1634   21374427.3184
       241.0004        203.0004
  22817637.7274    1236382.59649    958907.77746  22817637.4184   22817640.6894
       224.0004        180.0004
  23521145.4054    2745318.46249   2126799.24945  23521144.7004   23521149.0884
       218.0004        156.0004
  23945803.2304    3394416.90149   2631534.01645  23945802.8764   23945808.9524
       211.0004        148.0004
  22688964.6264   -5226793.52449  -4063057.32546  22688964.8764   22688968.5484
       226.0004        182.0004
  23975962.4744   -4503920.89849  -3486326.12945  23975962.5674   23975965.9514
       215.0004        153.0004
 07  2 18  1 28 45.0000000  0  8G 1G14G22G19G18G 3G31G11
  21434037.3914   -3412711.68349  -2492917.37847  21434037.0954   21434042.0224
       238.0004        200.0004
  20447663.9414     509855.33849    370752.02147  20447663.5474   20447667.1394
       238.0004        212.0004
  21375435.6174    1110480.86649    860150.30947  21375435.4344   21375437.5604
       240.0004        203.0004
  22818969.5824    1243381.58849    964361.53446  22818968.9174   22818972.0334
       224.0004        180.0004
  23523160.3884    2755907.04749   2135050.10845  23523160.6854   23523162.9134
       218.0004        156.0004
  23948249.9234    3407274.39649   2641552.83945  23948250.5914   23948255.4734
       213.0004        148.0004
  22685929.9244   -5242740.90049  -4075483.84246  22685929.8084   22685933.7544
       227.0004        182.0004
  23973087.9384   -4519026.40649  -3498096.64645  23973088.1264   23973091.2284
       216.0004        152.0004
 07  2 18  1 28 50.0000000  0  8G 1G14G22G19G18G 3G31G11
  21432371.0634   -3421468.32149  -2499740.72647  21432370.5494   21432375.7524
       238.0004        200.0004
  20448496.1324     514228.60149    374159.76047  20448495.8914   20448499.3684
       238.0004        212.0004
  21376446.7274    1115794.32449    864290.67047  21376446.3944   21376448.5364
       240.0004        203.0004
  22820303.5264    1250391.36949    969823.70346  22820302.5434   22820306.1144
       225.0004        180.0004
  23525175.7604    2766497.93049   2143302.75345  23525174.5414   23525179.4304
       216.0004        156.0004
  23950696.9304    3420133.44049   2651572.87345  23950696.9874   23950702.9214
       213.0004        149.0004
  22682896.1474   -5258683.51449  -4087906.64246  22682896.4184   22682899.6734
       227.0004        182.0004
  23970214.4284   -4534126.67549  -3509863.08445  23970214.0164   23970218.2024
       213.0004        152.0004
 07  2 18  1 28 55.0000000  0  8G 1G14G22G19G18G 3G31G11
  21430706.7744   -3430214.23849  -2506555.72447  21430706.1014   21430711.6134
       238.0004        200.0004
  20449330.3574     518612.54049    377575.82047  20449329.9734   20449333.6754
       238.0004        212.0004
  21377458.7314    1121112.43549    868434.65547  21377458.3144   21377460.7454
       241.0004        203.0004
  22821639.6964    1257413.04349    975295.13746  22821638.6584   22821642.5564
       224.0004        180.0004
  23527191.7934    2777092.25649   2151558.04845  23527191.2744   23527194.3494
       216.0004        155.0004
  23953144.4464    3432995.17549   2661595.00445  23953144.9134   23953149.7124
       213.0004        149.0004
  22679863.4724   -5274620.21149  -4100324.85646  22679863.3874   22679867.2784
       228.0004        182.0004
  23967342.1444   -4549220.51349  -3521624.51145  23967341.7654   23967346.2334
       213.0004        151.0004
 07  2 18  1 29  0.0000000  0  8G 1G14G22G19G18G 3G31G11
  21429044.4924   -3438949.47649  -2513362.40047  21429043.9024   21429049.2074
       239.0004        200.0004
  20450166.6224     523007.12249    381000.16947  20450166.0654   20450169.8214
       239.0004        212.0004
  21378471.6074    1126435.12349    872582.19947  21378471.5224   21378473.3724
       241.0004        203.0004
  22822978.1324    1264446.50649    980775.75546  22822976.9024   22822981.3304
       225.0004        180.0004
  23529208.4364    2787689.94649   2159815.99945  23529208.1584   23529211.5144
       218.0004        155.0004
  23955592.4544    3445859.44249   2671619.10545  23955593.5584   23955597.8984
       214.0004        149.0004
  22676831.9324   -5290551.08449  -4112738.51446  22676832.2164   22676835.9994
       228.0004        182.0004
  23964471.0604   -4564308.01349  -3533381.00045  23964470.7124   23964474.5224
       213.0004        150.0004
 07  2 18  1 29  5.0000000  0  8G 1G14G22G19G18G 3G31G11
  21427384.1534   -3447674.53749  -2520161.14147  21427383.3814   21427388.5354
       239.0004        200.0004
  20451004.8094     527411.84349    384432.42347  20451004.1944   20451007.9254
       239.0004        212.0004
  21379485.2324    1131761.89949    876732.94047  21379484.6114   21379487.1144
       241.0004        203.0004
  22824318.6884    1271491.24049    986265.15946  22824317.2744   22824321.2354
       225.0004        180.0004
  23531225.6354    2798290.50849   2168076.18045  23531225.5824   23531229.0494
       218.0004        155.0004
  23958040.8724    3458725.72249   2681644.77445  23958041.3934   23958046.5034
       215.0004        149.0004
  22673801.3844   -5306476.62049  -4125148.00846  22673801.3144   22673805.3634
       227.0004        182.0004
  23961601.1224   -4579389.63049  -3545132.91145  23961600.9194   23961605.0054
       213.0004        150.0004
 07  2 18  1 29 10.0000000  0  8G 1G14G22G19G18G 3G31G11
  21425725.9584   -3456388.32849  -2526951.11147  21425725.4994   21425730.6534
       238.0004        200.0004
  20451845.1544     531827.78649    387873.41747  20451844.7824   20451848.3934
       238.0004        212.0004
  21380499.8664    1137093.83649    880887.69347  21380499.7384   21380501.5774
       240.0004        203.0004
  22825661.5894    1278548.33249    991764.18246  22825660.7044   22825664.2064
       224.0004        180.0004
  23533243.5844    2808895.01649   2176339.43845  23533242.7654   23533247.9004
       216.0004        155.0004
  23960489.8494    3471595.09549   2691672.85445  23960491.1174   23960495.2414
       214.0004        149.0004
  22670772.0604   -5322395.68549  -4137552.46246  22670772.0614   22670776.1004
       228.0004        182.0004
  23958732.4634   -4594464.33649  -3556879.43845  23958731.1864   23958735.8944
       213.0004        150.0004
 07  2 18  1 29 15.0000000  0  8G 1G14G22G19G18G 3G31G11
  21424069.6644   -3465092.04949  -2533733.22547  21424069.2954   21424074.1424
       238.0004        200.0004
  20452687.3644     536253.73849    391322.21347  20452686.8404   20452690.5314
       238.0004        212.0004
  21381515.2644    1142429.71649    885045.52647  21381515.2254   21381517.2394
       240.0004        203.0004
  22827006.6404    1285616.56649    997271.90246  22827006.0234   22827009.4494
       225.0004        180.0004
  23535262.0874    2819502.31849   2184604.85345  23535260.3684   23535265.3944
       215.0004        155.0004
  23962939.2164    3484466.45349   2701702.48945  23962939.3424   23962944.6684
       214.0004        149.0004
  22667743.7444   -5338309.49149  -4149952.82346  22667744.1874   22667747.4664
       228.0004        183.0004
  23955864.9474   -4609533.29549  -3568621.47345  23955864.5404   23955868.3784
       214.0004        150.0004
 07  2 18  1 29 20.0000000  0  8G 1G14G22G19G18G 3G31G11
  21422415.4434   -3473784.99749  -2540506.94747  21422415.2514   21422420.2954
       239.0004        200.0004
  20453531.6394     540690.41949    394779.36947  20453531.1754   20453534.8004
       238.0004        212.0004
  21382531.5224    1147770.29349    889207.01347  21382531.2824   21382533.4134
       241.0004        203.0004
  22828353.9094    1292696.63049   1002788.83446  22828352.6904   22828356.8904
       224.0004        180.0004
  23537281.2504    2830113.08349   2192872.97545  23537281.1194   23537284.9534
       218.0004        155.0004
  23965389.0924    3497340.41749   2711734.14845  23965389.0964   23965394.3004
       214.0004        149.0004
  22664716.5484   -5354217.29849  -4162348.50746  22664716.7034   22664720.7404
       230.0004        183.0004
  23952998.6384   -4624595.77449  -3580358.46345  23952998.8244   23953001.9544
       214.0004        150.0004
